ECMWFFLT1_con_mucape_000.txt.gz
CAPE
2307 2650 2905 2664 2673 3046 3318 3436 3438 3506 3415 2826 2360 1868 1811 1556 1353 1030 704 806 718 883 764 722 451 406 311 266 408 390 432 496 441 191 123 186 170 226 164 194 212 326 292 241 222 220 192 221 187 78 98 155 173 201 216 244 268 264 240 320 392 496 776
2161 2558 2698 2573 2757 3014 3336 3660 3393 3078 3304 2755 2184 1948 1699 1798 1456 888 836 959 898 831 877 698 600 580 403 422 464 582 490 349 274 285 169 246 286 231 180 220 290 295 281 260 244 182 188 118 113 125 120 82 99 203 224 242 258 246 160 248 299 430 795
2510 2518 2541 2402 2639 2986 3348 3458 3424 2826 2822 2294 1823 1793 1677 1875 1438 1037 998 1030 949 908 933 926 875 750 744 684 491 587 499 300 172 129 114 7 0 16 162 318 246 219 180 209 174 148 149 144 137 142 124 150 122 156 198 223 258 243 234 328 416 401 532
2724 2710 2491 2516 2987 3063 3019 2991 3032 2430 2265 1930 1578 1644 1794 2040 1471 1148 1161 884 1029 973 989 1097 1004 936 862 770 582 457 457 421 226 78 62 50 1 14 161 267 228 184 142 124 129 140 178 194 196 194 225 226 199 180 196 222 252 321 373 390 327 257 458
3294 2935 2585 2448 2367 2602 2808 2788 2440 1930 1490 1263 1438 1720 2016 2055 1447 1174 1066 879 826 937 915 1012 853 796 1032 710 410 316 312 181 193 236 61 16 28 94 200 223 204 215 172 146 140 168 179 209 175 177 212 340 307 178 207 251 310 405 520 651 689 723 564
3175 3210 2628 2174 2371 2919 2842 2301 1660 1101 1069 1018 1402 1771 1940 1523 1005 804 939 1150 999 934 1086 1151 1052 1071 866 714 532 474 438 274 159 131 76 31 7 12 48 155 188 194 156 155 122 140 162 212 234 275 332 296 281 337 298 362 378 438 561 760 1085 1091 656
2996 3272 2591 2131 2280 2608 2349 1526 872 893 1036 1112 1436 2010 1472 853 651 413 606 1115 945 1028 1020 988 853 713 740 490 602 506 435 258 282 218 131 36 34 37 98 165 153 128 185 250 271 246 205 241 344 487 619 736 837 834 920 754 716 707 931 1134 1115 794 785
2990 3136 2545 2149 2011 1814 1779 1458 1072 926 1083 1128 1652 1539 828 582 548 360 439 609 650 420 545 487 610 769 830 653 443 368 356 292 192 114 49 12 14 58 142 116 114 125 157 204 190 240 275 362 459 535 718 796 868 1019 1419 1263 864 864 983 952 1122 1121 1111
3046 3182 2772 2308 1903 1865 1724 1589 1252 1194 1360 1481 1701 1336 876 656 460 496 617 436 500 484 282 92 203 595 864 678 458 530 456 382 255 194 90 21 10 4 0 1 6 27 110 167 162 187 275 356 431 544 736 877 1034 1371 1588 1415 1070 878 886 1038 1153 1149 831
3174 3309 3032 2212 2177 1971 1903 1991 1726 1816 2061 2470 2192 1536 1005 798 696 636 650 524 457 503 416 325 279 347 781 830 616 538 470 425 352 169 9 0 0 0 0 1 9 13 17 104 180 229 370 483 651 842 978 1202 1329 1407 1459 1458 1324 1109 789 1068 1038 1079 1148
3211 3540 3497 2988 2560 2422 2503 2424 2425 2725 2748 2746 2515 1936 1720 1906 1660 1220 1174 588 377 343 446 674 612 553 492 507 502 530 637 534 308 106 36 20 2 0 0 1 1 4 32 104 277 444 483 538 654 973 1280 1425 1400 1350 1428 1192 1154 1248 1296 1244 1211 1046 868
3415 3859 3950 3580 3119 2840 2824 2932 3192 3171 2987 2943 2642 2300 2516 2504 2240 1831 1558 1196 535 330 412 542 644 596 517 298 322 609 550 427 294 88 26 22 8 6 26 18 24 20 4 0 0 2 8 47 195 669 1264 1388 1308 1376 1463 1562 1546 1467 1535 1289 1206 1151 1126
3634 3954 4072 3546 3265 3050 3070 3494 3524 3172 3079 2866 2347 2449 2706 2613 2144 1737 1813 1712 848 609 664 858 866 926 618 320 153 433 463 321 204 106 31 21 14 23 14 19 8 10 18 9 4 1 17 67 145 216 756 1354 1438 1302 1275 1498 1510 1628 1585 1427 1098 846 915
3080 3724 3873 3596 3310 3134 3233 3550 3436 3377 3154 2813 2624 2674 2478 2294 1994 1916 2191 1773 983 893 747 673 942 1048 895 618 539 616 438 286 177 73 44 28 22 25 46 82 68 96 67 18 6 0 0 6 114 168 276 386 772 1194 1542 1594 1558 1636 1636 1451 1080 951 878
2856 3060 3373 3357 3349 3296 3358 3249 3497 3439 3166 2964 2783 2630 2352 1873 1878 2125 2281 1161 1112 804 778 880 1017 1110 777 770 874 966 636 384 192 45 29 20 58 85 160 179 157 100 54 12 2 0 0 63 169 276 403 498 797 1462 1738 1533 1536 1676 1616 1112 843 824 812
2536 2710 2859 3057 3217 3201 3283 3371 3473 3522 3357 3193 2770 2687 2244 2228 2544 2405 2005 1282 1069 1111 794 959 1236 1256 962 728 872 837 573 392 311 162 82 76 108 226 270 113 80 50 22 12 2 0 21 260 436 484 593 604 578 946 1570 1626 1748 1461 731 321 694 730 806
2284 2351 2513 2821 3019 3089 3238 3290 3458 3558 3472 3286 2904 2726 2292 2416 2189 2152 778 629 710 890 973 1012 1455 1427 1037 1070 1052 806 512 372 326 235 158 166 183 246 356 284 138 29 16 24 33 62 324 394 417 420 403 474 782 1098 1555 1638 1784 1302 644 430 445 861 833
1959 2261 2347 2568 2763 2930 3091 3166 3322 3315 3256 3044 2860 2152 1986 2031 1376 1360 724 506 528 486 838 1228 1395 1200 1095 1131 1114 868 537 324 294 258 171 177 298 384 421 273 192 35 36 31 28 34 66 186 394 477 531 748 998 1143 1430 1481 1406 1281 874 551 552 640 922
1784 2099 2264 2459 2594 2815 2950 2934 3137 3134 2827 2909 2277 1712 1524 1795 939 1350 924 749 771 759 774 1204 1240 941 972 994 953 736 452 379 278 215 198 228 322 369 418 314 196 78 24 5 8 35 201 274 255 390 553 717 785 762 1007 1210 1428 1316 1068 645 640 679 704
1562 1919 2189 2258 2470 2637 2806 2866 2898 2943 2832 2627 1906 841 574 714 748 1232 778 583 787 966 1239 1278 914 644 828 920 739 690 440 297 286 263 248 349 407 450 453 290 141 56 5 0 11 33 109 190 275 327 428 391 470 647 879 1207 948 1140 1101 712 734 743 586
1389 1783 2080 2184 2368 2442 2720 2864 3146 2918 2885 1866 671 526 678 721 976 1381 677 555 564 962 1550 1301 732 790 849 566 450 554 578 344 326 425 527 605 558 657 699 261 70 36 14 2 3 23 151 252 285 357 415 410 400 435 444 545 1232 1234 1016 709 746 754 388
1308 1503 1879 2007 2304 2460 2848 3043 3045 2966 2331 1163 796 633 525 818 862 578 522 542 572 1034 1024 873 788 648 742 519 417 406 410 405 444 508 867 716 673 736 546 85 28 22 24 150 162 181 238 432 539 780 884 682 510 484 640 509 1019 1241 1050 702 611 754 1010
925 1316 1606 1888 2096 2505 3210 2918 2961 3091 3317 2577 1106 1133 805 901 826 597 460 524 635 710 652 532 639 734 634 482 320 306 340 446 489 510 528 598 644 696 386 70 26 16 48 204 196 89 52 110 80 292 720 771 701 444 542 765 1324 1132 1098 846 562 484 1093
944 1306 1510 1689 2206 2939 3116 2988 2893 3480 1997 972 1437 1125 925 1035 804 748 731 638 591 433 396 467 533 612 456 329 318 372 483 604 596 444 401 514 661 645 216 62 40 40 274 236 104 138 208 107 10 33 556 632 545 504 602 235 330 924 1098 1076 792 708 1274
1066 1302 1632 1880 2289 2897 2768 2976 2964 2349 2193 1799 1566 1370 1717 1598 816 971 1224 963 609 206 196 333 463 412 209 287 322 498 674 579 451 409 385 557 463 351 200 181 130 79 498 335 186 356 657 374 492 573 710 184 102 293 630 760 361 754 1054 1152 999 868 1611
1536 1597 1936 2162 2408 2859 3063 2936 3194 2038 955 1912 2241 2185 2570 2334 1145 1037 888 726 594 285 231 400 515 423 254 250 310 510 683 598 518 533 506 430 412 563 662 485 316 222 208 180 72 203 447 782 496 544 655 691 865 788 295 576 728 570 842 1007 1220 1138 1461
1731 1935 2138 2078 2184 2311 2538 2929 3353 2496 2630 2259 2905 2710 2937 2291 1914 1360 1396 1172 966 536 389 470 528 392 293 380 724 722 632 537 428 450 408 297 566 1111 672 604 313 280 655 548 269 534 672 702 596 547 637 575 583 463 780 657 158 250 528 1137 1349 1372 1140
1561 1775 1849 1763 2052 2292 2807 2512 2765 2396 1454 2874 3058 2430 2924 3280 2951 2508 2207 1791 1432 966 457 644 457 306 660 1516 1287 762 611 485 476 456 425 269 1066 748 659 598 485 270 319 554 918 743 764 722 675 758 798 869 830 801 879 605 544 870 964 1026 1302 1247 941
1834 1770 1660 1978 2243 2235 2296 2585 2578 1954 868 830 844 2631 3293 3145 3066 2731 2453 2459 2283 1047 559 776 1165 2098 2102 1319 968 884 721 633 536 572 732 1338 860 692 566 744 526 481 508 670 892 918 804 943 828 694 602 489 663 636 566 944 778 522 989 962 922 654 386
1994 1826 1843 1632 1740 2104 1805 2571 2650 2464 1293 574 1996 2761 2763 2813 2867 2756 2784 2725 2448 2112 2048 2666 2755 1947 898 642 706 480 252 366 572 893 1161 1035 891 750 531 614 662 576 804 928 752 833 834 1070 934 713 642 532 657 748 670 754 641 795 722 1280 672 29 0
1893 1984 1706 1293 886 1779 1790 2001 2632 2577 2573 2742 2898 2692 2690 2535 2630 2612 2659 2737 2738 2976 2885 2664 1868 957 779 518 475 455 466 569 662 830 819 872 771 665 504 446 451 598 722 632 408 651 826 882 734 635 284 654 736 820 492 456 843 1190 624 469 599 437 330
2081 1884 1970 2009 2244 2206 2110 2124 2272 2709 2875 2818 2456 2591 2602 2534 2286 2456 2630 2512 2920 2940 2214 1956 1273 771 654 354 393 484 632 666 586 808 878 707 444 455 469 470 495 431 574 623 544 655 780 951 927 652 545 710 585 628 466 621 736 944 1249 286 145 175 260
2202 2009 1925 1919 2047 1864 1828 1944 1756 1974 2077 2267 2569 2151 1752 2012 2033 2050 2303 2668 2954 1928 1712 1267 980 812 558 524 462 748 737 419 148 131 367 619 552 415 341 328 382 414 513 472 382 503 745 816 859 917 905 866 639 516 428 481 916 869 478 95 50 158 134
2370 2358 2489 2615 2132 1682 1631 1620 1514 1395 1584 1948 2320 2427 1958 1479 1782 1877 2021 2114 1362 972 1083 1104 746 738 520 517 556 634 632 328 70 155 217 233 232 173 220 547 544 339 225 438 512 687 800 822 785 809 876 609 458 413 557 616 539 242 1 0 0 0 0
1922 1952 1785 1797 1816 2162 2757 2721 2434 2595 2174 2242 2240 2050 1662 1685 1486 1400 1966 1338 918 1344 1031 944 557 542 661 545 326 455 223 218 402 364 331 364 444 226 174 618 435 260 369 742 549 538 459 484 454 642 412 279 538 473 466 400 90 6 0 0 0 0 0
2146 2136 2312 2479 2699 2933 2657 2416 2521 2381 2306 2197 1674 1607 1661 1779 1663 1166 893 939 1322 1260 1293 1204 864 512 205 268 276 242 292 422 369 340 257 99 54 98 268 106 0 0 164 413 348 90 0 0 158 8 47 240 280 5 1 0 0 0 0 0 0 0 0
1912 1930 1880 2080 2219 2118 2266 2163 1933 2106 1974 1841 1400 1428 1331 1241 1103 1140 748 973 974 990 1275 961 666 327 279 124 214 248 373 236 116 274 498 446 330 259 289 439 0 0 0 32 8 0 0 0 0 0 0 70 104 0 0 0 0 0 0 0 0 0 0
2130 1946 1684 1569 1719 1765 1576 1472 1332 1339 1536 1391 1221 1107 1082 860 990 1077 697 916 794 790 1004 885 748 454 347 299 353 569 304 121 192 192 152 279 384 491 476 326 254 1 11 30 0 0 0 0 0 0 109 126 46 0 0 0 0 0 0 0 0 0 0

ECMWFFLT1_con_mucape_003.txt.gz
CAPE
812 498 754 882 1432 1539 1217 1643 2044 2640 2604 2928 3086 2162 1869 1663 1578 1457 1174 1172 1196 1472 943 628 424 167 90 115 308 386 352 432 534 371 279 334 319 256 226 182 116 127 214 335 309 340 386 426 461 356 286 261 205 204 228 219 200 188 184 212 208 193 173
794 443 687 913 511 512 835 1261 2617 2720 1510 2954 2748 1936 1491 1534 1672 1422 1096 1040 915 1146 591 565 353 282 150 162 308 386 408 344 372 410 371 398 284 274 187 122 218 354 391 400 418 389 357 342 290 311 319 272 220 190 205 196 175 189 134 173 167 204 276
1600 917 829 1594 1996 1608 1061 943 2501 1892 1780 1687 1817 1607 1403 1636 1866 1387 1204 905 875 642 716 571 459 466 482 322 348 377 529 384 261 280 400 298 222 17 60 91 271 320 316 332 326 342 240 277 290 296 261 271 225 180 176 151 135 124 138 176 194 126 138
2040 1464 1146 1710 1736 944 654 1066 1848 1563 2285 1971 1025 758 1309 1922 1941 1362 1068 934 886 726 838 723 730 579 581 537 568 527 484 445 298 140 138 205 147 79 52 174 225 268 232 233 235 213 235 208 243 254 238 224 189 190 211 155 132 137 154 178 299 246 278
1185 1448 676 1144 2047 1680 1309 1037 2324 2301 2420 1725 1128 943 764 1821 1842 1149 981 858 850 862 905 878 894 762 588 371 241 349 321 246 248 300 220 160 124 41 28 142 164 181 177 169 175 204 178 203 194 208 178 165 126 88 74 84 106 142 158 210 373 482 467
1015 1363 1084 952 1513 1881 1609 1522 1876 1950 1338 670 563 306 720 1251 909 688 784 914 851 906 934 919 957 630 450 467 658 440 357 274 260 264 297 230 149 132 84 77 138 157 121 158 135 150 152 190 208 204 184 132 92 97 136 124 96 170 256 383 581 837 688
1264 1675 2462 1870 1192 1152 2024 1399 1735 1592 1659 1153 308 578 853 858 519 485 674 832 644 869 908 771 853 704 667 426 430 412 284 370 444 432 365 250 206 132 139 108 145 159 178 188 208 158 145 173 221 269 237 220 235 258 443 568 516 393 402 458 666 758 781
1430 1734 1407 2452 1816 2584 1877 1853 1234 1198 1502 808 573 949 649 685 726 526 736 873 649 528 596 604 850 826 712 514 298 305 446 363 312 370 398 304 203 124 99 20 11 109 218 143 193 180 167 168 155 201 198 230 213 294 368 609 742 564 456 522 546 590 691
1226 2093 2221 1848 1935 1717 1888 1542 1070 1119 1136 989 1403 1181 854 991 797 720 795 949 766 516 638 558 762 926 964 826 461 441 426 362 320 340 282 214 128 51 6 12 17 8 10 110 79 103 159 158 200 297 374 380 422 536 686 979 787 740 899 596 591 1030 1108
1018 2448 2704 2684 1864 1453 1057 1140 1322 1450 973 1303 1769 1770 1516 1150 1044 824 714 770 690 270 417 186 81 302 810 852 624 407 418 523 518 310 202 130 121 58 18 0 7 31 28 18 3 8 85 166 246 317 333 375 464 438 597 846 856 914 738 523 730 1086 1156
1564 2718 2797 2742 2176 1772 1610 1399 1801 1700 1599 2020 2086 1818 1895 1367 1105 855 514 425 412 393 286 366 182 123 331 706 707 615 616 614 493 410 376 244 65 19 2 0 3 3 4 15 44 31 2 10 38 87 128 156 295 918 1312 815 323 479 657 661 820 1048 1078
2048 3101 3546 2753 2052 1458 1132 1477 1839 2172 1970 2170 1972 2043 2007 1771 1112 872 498 534 470 466 373 559 480 387 404 334 324 446 534 633 516 362 248 176 102 101 82 26 4 18 27 17 14 2 0 0 0 2 31 87 122 371 1020 970 802 632 738 808 952 961 1097
1622 3008 3652 3385 2519 2070 2128 2254 1984 1916 2054 1878 2020 2125 1759 1368 1042 843 935 618 559 509 315 379 423 569 478 400 125 212 368 465 436 377 240 137 109 117 54 5 0 1 41 16 14 0 0 0 0 0 2 54 78 64 329 847 817 972 539 622 924 1229 1308
1661 1721 3357 3975 2904 2334 2594 2566 2263 2107 2190 2138 2262 2011 1649 1420 1084 978 806 693 647 456 228 363 584 802 768 536 254 176 170 310 298 272 258 164 129 118 98 70 33 121 205 163 94 16 0 0 1 0 2 28 51 84 86 445 1243 1085 711 521 623 860 1014
1218 1086 2392 3833 3670 3102 2994 2747 2624 2662 2851 2985 2610 2128 1936 1895 1509 1192 1141 720 691 388 413 503 822 1039 998 872 601 458 375 384 346 266 194 134 170 185 214 179 190 247 199 116 79 48 15 12 8 41 54 52 80 193 310 605 1341 1214 918 1020 1056 980 864
1677 1369 1760 3231 3846 3554 3454 3352 3425 3748 3614 3356 2416 2167 2267 2046 1562 1209 1118 743 420 531 557 821 1012 1202 1180 752 673 695 650 602 527 494 354 264 210 252 288 236 253 333 274 166 65 63 52 82 88 60 46 48 87 196 405 821 1286 992 760 803 1134 881 787
268 1093 1103 1836 3920 3950 3796 3896 4200 4078 3786 2782 2244 2290 2417 1869 1580 1462 891 729 408 648 654 724 1174 1310 1272 1026 772 708 655 538 583 595 576 534 408 372 397 458 663 592 418 252 129 151 134 91 50 39 68 105 235 466 682 881 935 821 986 1059 1042 840 928
330 801 1405 2074 2977 3807 4224 4184 4537 4387 3538 2576 2338 2415 2131 1854 1804 968 1008 726 356 532 725 880 981 1156 1302 1193 1101 846 638 474 451 517 538 552 528 490 496 598 590 622 519 316 173 128 42 25 43 78 151 219 409 592 704 762 654 828 939 990 954 816 1030
705 521 779 1667 2563 3700 4115 4322 4510 4401 3634 2718 2575 2263 1938 1539 1302 1165 913 432 515 711 892 1010 859 911 1272 1463 1204 861 556 423 428 362 408 547 575 591 601 640 668 657 562 278 92 38 62 74 59 82 141 262 360 354 368 626 479 708 778 906 894 758 662
524 368 610 1219 2212 3133 3697 4184 4177 4337 3737 3030 2794 2146 1558 1624 1472 1110 612 387 590 767 828 801 846 988 1263 1429 1115 626 379 342 356 385 367 460 576 654 740 766 796 710 454 160 104 68 44 30 97 208 396 650 484 474 383 314 470 500 702 833 895 768 688
1027 1294 1310 1880 2495 2914 3556 4092 3973 4068 3748 3206 2462 2260 2105 1758 1554 1006 401 620 723 859 976 678 682 884 991 1070 903 570 433 324 277 398 414 479 688 851 930 998 1188 870 349 94 66 84 146 161 161 306 785 398 582 558 523 309 185 268 442 613 757 764 590
726 1168 1633 2044 2814 3181 3605 3866 3722 3546 3634 3076 2558 1928 1826 1740 1295 660 775 734 782 960 1045 1029 927 933 968 916 755 448 406 318 319 450 514 636 851 1173 1183 1140 1294 931 366 135 80 133 191 148 112 97 323 560 454 426 322 396 338 143 20 342 691 741 916
538 1180 1680 2360 2640 3078 3414 3682 3668 3291 3057 2572 1962 1868 1783 1385 761 770 898 806 622 882 912 965 1146 1076 1044 991 888 526 313 264 252 334 465 512 631 743 968 1088 1102 717 308 131 153 248 176 187 250 229 232 359 408 382 416 334 412 484 235 0 427 786 1254
708 1323 1865 2207 2662 2997 3292 3386 3198 3334 3106 2169 1940 1698 1288 788 667 824 875 760 653 683 760 882 856 780 1047 1063 928 644 312 304 331 479 544 552 454 493 721 886 877 499 272 179 137 133 102 314 351 448 464 524 566 396 427 396 385 305 215 0 0 451 1244
685 1360 1968 2282 2470 2890 2964 3475 3392 3380 2872 2042 1662 1196 841 822 790 661 778 755 556 612 720 824 681 618 802 1024 808 622 296 254 313 522 734 549 333 425 580 605 604 517 423 302 190 262 420 390 393 411 424 361 360 324 366 394 409 500 492 27 0 0 752
1418 1852 2240 2414 2681 3159 3547 3603 3432 2628 2038 1736 1222 1076 1145 792 672 709 689 654 561 502 530 694 911 812 838 861 829 579 404 308 419 714 680 466 326 367 498 475 594 658 551 467 193 76 24 56 93 478 606 540 374 313 347 417 501 654 538 360 0 0 264
2073 1952 2186 2111 2764 3308 3597 3604 3374 2262 1676 1616 1649 1070 844 594 539 609 973 1224 1411 1211 1052 877 778 969 1034 849 616 456 390 317 742 904 718 436 188 536 542 429 578 733 506 215 202 303 500 562 593 500 576 588 610 578 729 753 740 655 498 144 0 0 553
1672 1660 1780 2082 3464 3500 3671 3329 3174 2195 1396 1464 1498 1053 675 747 998 1099 1511 1683 1525 1350 1232 1210 664 660 828 952 763 550 479 658 1004 602 286 113 424 508 913 734 510 388 356 265 363 505 850 964 860 724 639 572 565 529 850 702 804 750 771 714 270 389 686
1938 1626 1710 3189 3406 3634 3210 2778 2114 1373 1184 1092 990 809 650 696 1004 1313 1626 1869 1932 2026 1854 1393 947 879 943 1168 987 682 781 1005 870 585 390 288 665 1001 1111 788 436 464 448 548 447 573 943 1168 1032 972 834 596 510 804 712 896 832 1322 879 598 617 714 656
2178 1512 2475 2616 2292 2476 1911 2255 1748 1119 974 636 705 776 714 1062 1378 1317 1702 2119 2369 2434 2346 1788 1229 1198 1144 983 762 1016 1248 624 520 442 504 667 665 687 858 1002 856 796 847 669 881 951 841 804 853 1001 896 577 534 642 1044 1098 1189 998 544 710 539 664 613
1531 1532 1550 689 987 1607 1165 1474 1670 698 755 594 668 1516 2500 2426 2828 2931 3081 3041 2824 2326 2548 2223 1775 1187 953 1427 1682 1375 786 938 816 848 695 806 694 678 685 824 629 485 431 664 787 786 586 587 624 726 931 810 594 546 859 1052 712 939 936 616 492 212 0
1790 1510 818 850 1208 1579 1265 1220 1283 1019 902 2399 2650 2832 2423 2594 2422 2878 2758 2185 2662 2636 2443 2425 2577 2694 2406 1740 1182 701 670 920 857 703 634 725 584 413 396 407 398 402 203 316 639 698 669 687 673 675 494 278 591 1017 899 900 1027 990 786 622 307 248 98
1457 1093 1004 1450 2291 2056 1329 995 1007 1079 1972 2212 2363 2155 1697 1851 2342 2241 2117 2025 2012 2800 2918 2915 2293 1954 1612 1262 868 542 772 893 414 304 398 245 436 404 500 456 332 266 531 501 598 431 589 617 804 328 370 526 248 506 595 810 870 911 398 28 6 12 0
2343 2322 2542 2554 2228 1968 1805 1563 1129 1120 1162 1263 1644 2025 1724 949 1177 1391 1778 1268 1200 1740 2124 2430 1910 1398 1110 815 626 964 959 630 206 100 83 73 284 440 412 410 200 61 120 399 720 860 1000 976 1022 795 698 775 394 207 462 520 774 200 0 0 0 0 0
2868 2339 1755 1682 1834 2056 2026 1672 1695 2029 2039 2422 2126 1859 1787 1604 970 530 1021 1238 1011 1158 1594 1596 1345 1093 1064 924 865 1012 577 220 202 662 555 784 727 469 1245 1188 281 458 382 289 5 18 62 292 294 295 478 443 638 539 352 245 174 0 0 0 0 0 0
1593 1205 1174 1888 2184 2233 2282 2057 1640 1860 2228 1823 1748 1685 1601 1579 1381 682 83 202 1135 1278 1448 1278 975 681 648 414 436 583 543 563 352 384 469 487 378 130 322 0 0 0 102 14 0 0 0 0 0 0 0 165 107 1 0 0 0 0 0 0 0 0 0
1327 1515 1576 1701 1553 1785 1951 1806 1897 2025 1966 1920 1557 1556 1308 1284 992 988 293 1091 998 1155 1495 1420 1094 496 316 340 302 440 396 444 488 369 270 148 290 388 272 337 0 0 0 0 0 0 0 0 0 0 0 0 0 0 0 0 0 0 0 0 0 0 0
1137 1264 665 992 1652 1742 1594 1336 1498 1688 1614 1355 1200 1063 1015 492 545 860 407 842 918 1028 1491 1261 973 687 436 461 393 1100 537 453 405 254 230 239 259 474 512 703 512 0 0 0 0 0 0 0 0 0 0 0 6 16 0 0 0 0 0 0 1 0 0

ECMWFFLT1_con_mucape_006.txt.gz
CAPE
261 403 820 1054 997 955 1722 1750 1528 1558 2291 2766 2730 2727 2715 2746 3029 2481 2111 2326 2011 1819 1995 2008 1491 1280 738 1247 775 817 312 979 1127 776 1005 1606 945 608 435 533 275 425 582 901 811 857 689 900 911 785 908 828 842 900 830 786 763 692 700 736 762 751 670
206 201 421 768 922 1061 1799 1840 1515 2249 2458 2567 2647 2837 2616 2634 2751 2179 2219 2140 2000 1894 1934 1646 1530 947 918 798 1218 858 846 868 943 532 688 693 722 602 575 683 606 455 667 829 858 818 810 728 766 846 770 802 784 791 704 684 708 732 540 676 655 796 773
553 408 409 679 893 1009 2278 2025 1898 2082 2526 2406 2060 2586 2593 2703 2499 2216 2095 1926 2181 2085 1920 1376 1324 1084 907 1112 850 1011 835 704 384 696 557 620 696 358 297 397 240 542 496 402 544 874 753 780 703 852 785 754 798 822 685 620 729 697 626 699 693 555 644
1251 1473 1471 1121 1097 1458 1956 1985 2663 2041 2595 2452 2582 2351 2622 2757 2371 2316 1930 1768 2168 2106 1433 1505 1140 1170 1019 906 867 971 1070 903 573 441 441 401 98 273 370 437 640 497 1077 463 521 440 528 574 633 754 755 828 856 826 617 583 571 603 614 620 767 676 785
1298 1756 1262 1960 1901 1864 1726 2515 2369 2328 2199 2043 2231 2628 2572 2710 2266 2080 1837 1583 1538 1672 1522 1361 985 1166 1439 1281 1037 1101 1070 1048 831 559 418 580 567 547 217 47 256 348 363 240 640 891 465 755 592 601 721 852 610 618 890 759 557 613 487 595 788 749 901
1474 1154 1046 1336 980 1953 1721 1833 1870 1662 2339 2063 2301 2514 2167 2209 1695 1324 1267 1484 1482 1388 1558 1407 1428 1600 1564 1183 798 858 948 889 545 662 651 426 442 462 332 224 53 254 99 408 330 282 423 538 562 492 518 305 332 428 488 470 501 505 497 696 905 930 1016
1078 2404 2060 1354 1808 2016 1491 891 1319 2022 2114 2655 2871 2321 1596 1328 1403 1241 1038 1063 961 1371 1356 1359 1482 1592 1425 1262 1188 1237 882 748 649 505 485 462 464 443 310 416 490 145 373 612 599 357 467 603 702 740 590 571 712 589 710 752 825 822 844 860 954 982 1012
768 1854 1569 1335 1102 1427 913 1020 2421 1930 1570 2056 1887 1796 1207 1223 1555 1305 923 622 682 743 691 860 1464 1556 1283 1151 1302 985 973 738 785 791 833 628 655 573 454 391 480 686 725 465 824 771 487 650 529 564 731 559 641 880 883 882 916 782 794 888 791 661 687
895 1327 2004 1334 1572 1254 1184 1704 2259 2406 2495 2026 1735 1571 1263 1180 1438 1532 885 663 767 815 836 761 964 1326 1597 1252 1059 1050 1035 981 948 940 817 738 606 246 189 208 493 412 382 371 220 755 812 839 689 933 942 849 846 950 931 948 998 1070 839 833 806 752 770
351 2672 2437 1590 1219 1574 1134 1571 2382 2402 2506 2458 2244 1933 1210 1450 1851 1293 481 264 464 602 855 728 728 779 1413 1344 930 843 915 883 938 602 327 175 327 118 78 9 1 162 715 9 147 230 477 421 503 674 839 933 845 835 880 955 1182 1357 1077 866 811 774 788
222 3318 2731 2599 2353 2081 1973 1767 1924 2522 2348 2146 1933 1620 1305 1206 1676 1357 800 432 503 504 630 805 920 907 1132 1135 856 698 1004 830 714 639 602 385 103 97 22 0 11 96 16 119 173 526 706 662 507 632 874 915 812 745 748 876 1117 1242 1236 1222 1102 984 778
1246 3342 3329 3012 3009 3198 2895 2683 2568 2827 2733 2302 2040 1863 1782 1633 1527 1189 942 796 867 567 524 747 536 1088 1045 857 872 1122 842 894 772 632 639 556 357 212 158 126 176 70 54 10 26 273 111 345 414 476 818 858 798 686 692 799 1073 1324 1396 1266 1153 1036 921
933 3565 3789 3176 4193 3170 3452 3442 3069 2676 2848 2738 2301 1992 2207 1740 1561 1300 1496 1347 966 534 734 403 272 485 398 480 838 1138 948 958 955 871 511 745 612 470 195 80 7 22 128 66 106 25 31 102 337 670 602 695 810 760 732 757 700 1348 1513 1555 1436 1288 1174
428 384 3342 3854 3876 3250 3175 3383 3017 2671 2509 2484 2211 1932 2419 2030 1853 1563 1710 1206 632 550 819 437 930 812 822 536 960 1248 1019 812 1031 905 979 815 922 553 286 249 114 296 508 402 234 204 206 46 138 202 315 438 338 402 516 554 590 973 1729 1824 1666 1468 1264
303 444 1309 3832 4061 3346 3093 3584 3046 2596 2413 2207 1896 1841 2302 2091 1941 2107 1378 702 1725 774 1037 844 1119 965 737 1156 1226 988 929 1009 904 953 1057 883 952 775 673 617 463 602 718 755 605 441 292 186 200 423 510 428 486 658 856 673 564 636 1393 1791 1580 1445 1171
28 358 798 2826 2980 3503 3907 2964 3281 3432 2557 2231 2077 2376 2323 2113 2105 1724 1000 1298 633 1149 1023 942 1074 1153 1136 1233 1263 1310 1035 1118 1002 1038 1006 987 902 891 775 623 815 567 670 787 733 733 705 823 775 274 222 417 482 487 458 615 895 894 907 869 1279 1322 1024
143 238 322 1244 3693 3417 2897 2619 2505 3120 3370 2668 2419 2732 2525 2422 1858 1273 779 723 596 457 467 655 1579 1520 1596 1574 1580 1451 1325 1327 1270 1200 1207 1150 906 858 864 946 939 1027 1082 1186 1158 1070 867 754 777 192 99 192 170 278 415 675 776 676 477 435 507 932 1182
164 174 542 1491 1620 3061 3189 2878 3236 3286 2996 2646 2602 2855 2613 2191 1627 1039 917 784 601 507 620 754 1647 1584 1834 1776 1656 1644 1470 1332 1379 1322 1387 1310 1276 1193 1146 1137 1215 1254 1307 1268 1097 1309 1218 654 582 542 489 296 262 374 540 648 506 211 209 470 613 743 1095
588 632 1061 1625 3041 3468 3695 3330 3549 3436 3040 2638 2661 2693 2377 2128 1231 1106 892 710 652 733 656 734 1551 1724 2008 1892 1772 1531 1417 1385 1288 1281 1329 1323 1267 1348 1312 1388 1322 1256 1219 1119 1181 1064 927 856 671 580 628 522 779 522 390 312 584 80 66 412 531 641 693
157 162 434 668 884 1729 3854 3680 3137 3736 3746 2400 2077 1969 1672 1698 1186 1104 993 867 822 876 356 1060 1312 2040 1964 1982 1892 1688 1537 1437 1234 1200 1203 1309 1360 1496 1467 1298 1299 1297 1015 1044 1120 1073 991 656 464 559 713 1158 1218 1092 810 683 416 72 27 30 184 506 567
632 618 590 687 1124 937 3892 4043 4024 4007 3112 2766 2448 2010 1450 1526 1436 1045 1106 861 539 506 498 1185 1297 1843 1900 1945 2010 1937 1702 1534 1351 1174 1249 1226 1340 1433 1432 1352 1438 1440 1385 1135 1068 894 905 895 816 729 592 1277 805 730 713 492 363 6 0 0 0 332 360
176 200 373 775 1478 1922 3887 4544 4446 3271 3176 2954 2678 2073 1624 1611 1557 1294 975 556 508 423 604 1544 1808 1776 1745 1852 2039 2037 1691 1420 1402 1219 1190 1287 1269 1308 1347 1529 1811 1940 2005 1591 1139 835 610 600 676 694 472 940 1155 571 718 322 108 7 0 0 0 0 163
18 80 212 1462 975 1682 3907 4602 4364 3457 3140 3132 2782 2540 1776 1794 1595 1413 1192 780 494 270 848 1505 1821 1716 1668 1662 1850 1832 1661 1203 1218 1278 1180 1283 1182 1230 1260 1481 1619 1560 1990 1479 1108 822 552 500 513 552 569 474 541 613 708 637 319 1 0 0 0 0 510
81 157 318 672 1980 2097 4357 4432 4694 3845 3281 3051 2779 2473 1713 1537 1068 1238 1149 1053 412 437 1141 1217 1303 1436 1640 1647 1604 1688 1613 1369 1269 1371 1343 1266 1169 1190 1301 988 1277 1590 1776 1250 1049 638 369 259 378 620 685 688 617 211 400 407 410 16 0 0 0 64 446
115 52 477 1125 1736 2240 2957 4423 4655 4418 4151 3324 2769 1997 1348 1061 767 1581 1630 865 654 984 1096 1414 1553 1596 1790 1848 1830 1935 1705 1511 1327 1197 1220 1333 1172 1008 1003 1122 1120 1214 1246 820 778 797 909 527 320 488 602 358 219 288 312 305 123 0 0 0 162 9 476
463 419 1163 1710 1891 2917 4566 4629 5206 4003 3350 2950 2428 2108 1307 954 882 1264 984 882 792 831 1302 1532 1748 1959 1931 1847 1910 2036 1792 1328 1544 1305 1212 1272 1418 1333 1412 1354 916 650 320 530 650 770 786 646 244 276 234 79 88 134 452 401 648 570 226 0 0 0 96
321 318 331 475 1557 2815 4171 4474 4786 3658 3034 2632 2294 1801 1186 922 964 526 620 1160 1314 1435 1659 2131 2175 2099 1954 2084 1914 1880 1727 1485 1500 1387 1159 1270 1372 1095 908 1011 782 647 662 586 625 762 651 690 743 482 624 592 276 203 225 566 542 668 374 339 314 0 57
177 242 124 367 3139 3629 3902 3668 4262 3190 2559 1774 1706 1604 1323 1186 580 704 1658 1991 1905 2044 2267 2756 2867 2526 2399 2035 1908 1808 1632 1404 1537 1446 1522 1616 1158 1239 1723 1385 1316 1012 1250 932 940 1227 1147 1123 1118 1065 530 343 31 68 84 178 404 522 725 633 358 0 288
524 438 566 3189 3728 3783 3484 2802 2435 2245 1397 1356 1490 1120 924 806 1365 1980 2455 2303 2941 2900 2800 3396 2973 3219 2803 2346 2124 1732 1645 1674 1640 1501 1237 1124 1030 899 943 1458 832 701 797 1281 1320 1235 1082 1055 1223 1402 953 422 315 458 276 220 453 827 804 601 316 230 262
1937 1896 1982 2674 2493 2755 2808 2533 1376 1210 1404 1167 1370 1056 719 1107 2457 2507 2490 1798 3425 2793 2050 2002 2286 2299 2738 2511 2122 2042 1666 1908 1624 1746 1979 1661 1232 1141 1416 1437 613 495 600 1373 1648 1474 1312 1284 1076 1303 810 598 530 565 658 534 669 463 290 366 410 251 226
1768 1714 1705 2034 2210 2702 2035 1933 1355 1455 929 1263 2345 3179 3658 2917 2509 2725 3360 3151 3204 2295 2208 2088 2039 1580 1433 1233 1399 2047 1866 1984 1763 1422 1390 1370 1295 1202 1027 736 1018 1484 1149 1117 1150 1335 1479 1330 859 860 950 745 674 782 620 778 568 404 267 330 291 240 0
2000 2025 1426 1232 2029 1826 1458 1653 1570 1666 2552 1910 2125 3355 3151 3236 3387 3497 3110 2954 2635 2480 2175 1986 1743 1383 1326 1547 1865 1889 1563 958 834 1040 976 1155 1139 884 1066 546 855 1163 1244 1014 934 1069 1392 1444 1170 904 803 787 962 786 905 838 921 651 375 0 0 0 0
1826 1428 1217 664 750 1267 1773 1252 1269 1541 1795 2493 2117 1668 1052 930 1509 2520 2708 2480 2482 1958 2245 1672 1331 1077 1278 1364 1496 1316 955 769 719 821 1209 735 664 782 688 1343 1425 1343 1195 1193 841 740 846 733 734 840 435 538 545 783 906 1160 569 93 41 38 0 0 0
1996 2106 2546 1812 1650 1632 1461 1745 1799 1968 1959 2139 1564 1222 808 709 757 1196 1457 1076 1103 1668 1843 1667 1475 1252 1004 815 735 811 771 1080 574 584 529 345 276 308 378 586 384 482 591 446 499 527 458 461 538 566 176 438 536 516 674 485 16 0 0 0 0 0 0
1625 1168 1384 1434 1384 1313 1403 1707 1783 2170 2253 2280 1944 1600 1467 1112 513 210 895 1419 1280 1463 2079 2073 1898 1481 1356 1158 1190 1035 1394 879 930 736 620 931 1063 525 306 17 54 308 0 0 0 0 3 62 45 24 1 19 295 215 240 46 0 0 0 0 0 0 0
1166 1334 1836 1769 2064 2162 1612 1615 2221 2517 2276 1906 1878 1638 1541 1180 970 248 58 672 899 1078 2160 1916 1303 1016 633 736 554 880 669 477 312 318 529 592 880 350 0 0 0 0 77 0 0 0 0 0 0 0 0 0 0 0 0 0 0 0 0 0 0 0 0
1616 1608 1841 1722 1945 2072 2357 2552 2402 2228 2024 1860 1744 1361 1101 958 542 676 607 1216 1257 989 1388 1158 1389 1093 477 433 266 204 570 356 351 423 1301 1013 526 384 410 0 0 0 0 0 0 0 0 0 0 0 0 0 0 0 0 0 0 0 0 0 0 0 0
1361 1046 895 1266 1778 2132 2493 2261 1890 1626 1451 1664 1421 1023 997 360 632 997 544 1120 860 1047 1601 1221 1446 1358 856 532 691 1457 1284 628 952 949 746 789 581 866 693 498 368 346 314 209 0 0 0 0 0 0 0 0 0 0 0 0 0 0 0 0 0 0 0

ECMWFFLT1_con_mucape_009.txt.gz
CAPE
281 330 262 209 628 867 808 848 1273 1402 1402 1289 2241 2411 2664 2756 2604 2433 2243 1992 1617 1065 805 889 768 865 429 432 231 186 200 303 128 520 0 130 561 16 420 292 163 247 171 169 326 296 476 345 282 367 567 641 510 555 493 640 570 589 451 532 623 576 473
210 199 108 74 293 903 805 799 1067 1255 1402 1265 2244 2356 2610 2728 2592 2415 2228 1939 1564 897 878 822 670 834 315 400 365 139 192 188 369 1092 667 878 1024 193 19 207 14 111 98 78 126 435 233 182 301 599 341 525 377 470 521 383 358 365 434 378 414 421 534
58 117 73 56 181 855 934 895 971 1097 1281 1376 2105 2241 2480 2636 2596 2456 2258 1990 1576 818 900 778 615 770 293 374 294 79 194 344 586 301 90 155 288 62 20 388 116 5 0 268 314 96 308 414 408 88 192 184 344 455 493 407 371 412 443 384 481 501 336
33 58 132 99 182 647 1049 960 913 1058 1209 1468 1960 2104 2350 2628 2542 2400 2236 2011 1613 823 960 871 709 106 313 376 210 220 234 319 394 77 144 157 258 153 319 182 3 1 99 282 436 320 209 52 14 223 1094 588 444 484 554 458 351 351 272 299 328 414 483
146 156 357 253 272 911 1079 982 857 1142 1321 1562 1749 2057 2187 2532 2460 2347 2181 1936 1516 922 1028 798 606 22 374 295 333 385 266 198 267 164 227 170 289 159 13 0 27 91 108 121 0 75 127 274 283 178 276 428 420 277 298 527 664 577 530 424 378 528 546
140 324 535 490 461 900 1148 990 891 1132 1459 1585 1714 1968 2110 2332 2296 2210 2084 1862 1489 1032 1004 696 620 238 227 270 411 622 495 363 135 138 165 271 146 60 0 1 0 0 36 12 210 204 177 30 2 133 114 91 90 69 129 177 336 401 415 422 388 364 520
138 460 555 566 577 802 1309 1045 939 1160 1403 1570 1711 1979 2064 2178 2122 2064 1934 1752 1499 1103 936 634 327 500 157 373 332 620 514 432 204 160 167 214 168 2 0 0 16 2 0 31 31 81 16 12 94 104 97 173 271 211 228 427 464 618 653 548 504 651 703
411 666 590 571 699 1000 1322 1279 1116 1312 1594 1496 1673 1953 2059 2047 1896 1806 1722 1600 1429 1149 864 667 335 727 351 397 439 389 324 201 144 199 190 166 76 152 7 0 0 8 114 83 95 172 47 50 117 256 338 250 209 298 396 401 413 312 465 524 604 609 552
615 732 671 651 649 1088 1314 1424 1512 1494 1679 1722 1802 1834 1979 1964 1779 1667 1560 1443 1337 1188 888 594 551 684 559 294 395 277 152 159 58 102 163 125 182 46 50 26 1 18 63 33 22 147 90 110 161 215 201 197 182 149 215 268 294 478 636 528 480 439 439
601 776 710 708 565 744 1152 1408 1646 1688 1682 1723 1845 1868 1831 1830 1697 1587 1486 1399 1304 1214 1016 626 766 760 573 433 458 424 238 348 270 239 201 197 218 175 97 51 7 29 29 81 75 48 284 215 175 181 210 204 277 248 224 283 369 519 608 573 603 520 407
559 896 834 683 625 506 585 1094 1608 1660 1828 1806 1740 1811 1783 1725 1625 1506 1450 1358 1301 1226 1024 730 839 733 478 431 540 525 352 408 492 403 292 276 246 235 112 18 1 113 130 34 10 7 8 242 286 232 251 235 185 196 268 299 360 495 766 826 756 678 586
1072 1245 1215 954 809 720 619 776 1414 1542 1679 1984 2013 1909 1726 1651 1595 1531 1437 1388 1293 1182 967 697 828 743 565 393 424 406 342 365 464 339 304 197 109 71 28 7 23 0 10 27 70 107 84 0 34 121 14 44 176 276 186 160 272 510 788 880 915 883 771
1643 1498 1422 1219 988 801 784 788 1368 1826 1682 1724 2063 2086 1933 1762 1643 1577 1480 1360 1255 1155 937 731 819 793 639 428 226 249 277 378 277 375 276 251 160 62 33 64 1 4 1 7 9 2 0 0 0 0 12 238 418 279 194 142 197 259 580 851 879 839 790
2736 1687 1674 1338 1632 1327 943 922 1270 1864 1991 1795 1688 1964 2062 1934 1758 1585 1444 1364 1248 1122 989 748 798 801 629 516 446 289 303 278 346 325 290 274 259 235 161 59 68 57 81 99 1 3 4 1 0 0 111 74 23 2 10 6 23 60 466 859 984 1051 1041
2249 2479 2331 2046 1969 2408 1324 1124 1305 1764 2096 2072 1845 1597 1558 1609 1638 1545 1440 1393 1296 1163 1073 858 667 752 672 629 535 422 410 338 421 285 505 551 480 383 226 100 122 103 56 22 99 172 31 21 34 44 58 49 18 8 40 281 401 543 938 1062 1317 1411 1340
251 1949 2470 2481 2354 2561 2081 1542 1487 1672 2058 2120 2074 1900 1748 1642 1565 1445 1392 1281 1065 866 901 937 528 662 641 527 646 573 391 424 475 411 501 476 398 326 147 85 144 199 184 206 248 192 366 295 200 274 143 22 21 226 253 36 366 740 730 1378 1467 1485 1373
72 158 768 2635 3226 2730 2592 2289 1846 1693 1918 2149 2015 1903 1842 1712 1590 1536 1550 1310 889 893 838 802 575 614 561 535 516 450 651 691 773 671 601 454 291 279 228 233 302 291 230 229 304 338 310 438 329 103 21 9 9 1 1 121 757 364 240 345 755 922 962
440 530 375 514 3023 2897 2519 2569 2612 2282 2017 2073 2206 2037 1725 1705 1660 1674 1458 1168 907 659 533 597 572 607 558 573 551 319 352 406 592 617 553 474 405 406 267 264 308 329 406 413 473 457 497 467 375 205 204 129 19 7 81 432 510 286 132 134 140 230 442
231 178 239 364 2065 2526 2689 2529 2644 2779 2520 2203 2163 2248 2066 1947 1970 1817 1552 1161 750 358 424 571 610 649 649 618 305 495 238 247 535 479 508 453 429 428 422 431 414 400 418 520 548 589 607 606 566 506 266 281 216 240 173 113 258 232 42 1 5 18 110
111 66 68 204 273 2185 2646 2638 2506 2508 2656 2444 2277 2182 2147 2092 1945 1834 1598 1215 982 609 471 558 503 540 432 284 361 786 532 567 584 535 547 530 584 533 542 528 475 448 520 555 635 655 635 599 417 126 87 27 25 184 411 438 343 239 208 174 124 0 6
367 366 365 213 113 100 1269 2607 2340 2246 2191 2648 2339 2052 1938 1875 1889 1751 1533 1328 1093 764 552 452 508 429 490 331 390 833 926 775 659 714 626 680 668 682 611 592 591 663 698 692 630 653 626 445 392 315 252 350 565 583 652 670 556 428 0 0 0 0 0
13 114 84 40 43 43 27 1937 2847 2718 2701 2568 2412 2088 1912 1759 1569 1452 1374 1270 1171 834 720 572 395 196 320 561 923 1146 926 855 770 765 755 751 720 673 640 624 637 638 674 833 877 816 696 545 595 518 244 219 527 549 418 425 182 0 12 46 43 0 0
0 0 80 661 480 686 1410 2706 3122 3168 2864 2490 2143 1950 1909 1712 1532 1405 1301 1222 1137 879 380 314 181 158 268 604 1238 1322 1018 850 809 754 729 677 689 654 671 675 660 672 982 1099 917 709 519 463 319 346 97 123 384 464 86 80 0 0 0 4 20 0 0
69 44 19 1818 1674 1690 2611 4530 3530 3325 2709 2639 2394 2040 1609 1582 1579 1492 1471 1327 1208 978 864 792 336 271 251 472 1231 1359 1252 1017 851 782 709 660 616 620 619 678 834 965 1264 920 665 536 507 508 482 402 140 192 184 62 0 0 0 0 0 0 0 0 34
177 981 1261 1320 1571 2294 2681 3094 3114 2625 2798 2578 1958 1692 1487 1428 1202 1163 1166 1122 703 952 892 632 265 332 219 607 1114 1389 1354 1172 965 829 698 572 508 488 512 548 717 960 1109 672 480 466 403 426 313 179 133 111 0 102 0 0 11 0 0 0 0 0 0
917 1358 1506 1258 1781 2103 2408 2681 2576 2749 2561 2468 2194 2007 1636 1004 930 1014 1314 1098 871 724 638 488 449 307 379 874 1183 1393 1430 1296 1083 907 768 552 413 428 447 533 624 579 784 653 561 337 339 521 218 175 145 2 0 0 0 54 89 102 0 0 0 0 0
456 68 70 1557 1933 2334 2288 2468 2313 2301 2123 2105 2152 2078 1878 1660 1508 1239 983 932 849 556 568 618 570 330 782 1145 1185 1281 1376 1329 1162 1033 844 616 516 486 707 618 445 336 279 217 220 393 596 543 476 348 340 216 399 252 226 144 168 225 5 0 143 0 0
1325 900 2018 1590 1557 1698 2049 2284 2562 2233 2065 1926 1698 1547 1802 1712 1005 690 404 99 0 287 354 408 699 1034 1027 1148 1003 1046 1274 1182 1062 909 720 670 633 572 496 550 419 258 274 284 422 552 507 458 544 551 604 423 108 52 15 146 343 116 370 276 0 39 99
2790 2381 1703 1612 1734 2001 2132 2299 2227 1676 1522 1418 1324 1544 1573 1451 1070 622 282 141 299 591 932 473 560 740 909 1106 1136 1119 1128 1159 956 691 689 750 610 582 410 307 296 294 279 116 201 384 679 714 847 753 500 135 1 71 142 82 223 300 80 0 154 158 167
2496 2426 2314 2313 2424 2722 2833 2741 1748 1445 1335 1229 1428 1540 1497 1137 706 458 769 1329 1510 1449 1284 1073 1294 1554 1571 1734 1699 1506 1367 1203 1093 941 588 673 629 405 335 324 349 319 305 296 74 272 937 989 721 665 367 244 124 203 258 203 319 178 0 0 117 154 166
2322 2257 2152 2054 2113 2166 2072 1612 1203 867 1014 1111 1186 1456 1234 819 1100 1716 1470 1669 1760 1111 875 907 926 1017 1013 944 910 956 943 851 762 638 604 414 360 274 351 361 349 323 344 278 113 265 570 779 831 533 356 244 265 282 338 403 383 114 0 0 53 40 0
1500 1880 1850 1824 1904 1828 1702 1362 1039 781 723 845 752 1053 1065 1132 2037 1684 1952 1954 1595 1407 1317 1121 1173 1196 988 651 654 701 766 682 564 518 442 394 396 407 413 451 442 453 421 438 473 548 632 635 748 544 503 330 438 503 434 580 0 0 0 0 56 0 0
1684 1553 1591 1591 1551 1492 1379 1177 1129 1204 1244 1240 1148 1321 1400 1755 1884 1771 2017 1986 1744 1457 1029 977 1071 1065 617 366 496 584 652 684 664 614 574 522 502 516 514 327 44 1 514 942 912 714 496 606 661 411 158 404 342 445 549 7 0 0 0 0 0 0 0
1887 1828 1346 1275 1388 1395 1572 1532 1515 1629 1688 1531 1366 1252 1018 855 634 788 1712 1978 1808 1524 1236 1148 1275 984 645 597 544 554 611 651 924 722 594 479 305 263 276 91 133 425 479 535 221 195 82 107 249 200 52 130 210 181 344 27 0 0 0 0 0 0 0
1353 1164 1184 1149 1127 1283 1439 1544 1487 1370 1315 1164 1037 1023 975 913 791 493 876 1353 1311 1322 1416 1371 1475 1167 970 684 516 498 712 666 958 518 407 377 386 416 266 66 311 10 13 0 9 0 0 0 0 0 0 2 0 1 11 0 0 0 0 0 0 0 0
1322 1289 1172 923 1050 1260 1190 1198 1175 1631 1629 1399 1241 887 701 774 633 680 1199 1388 1622 1958 1636 1463 1249 1174 937 790 727 732 747 496 476 485 414 342 130 0 0 1 0 0 0 0 0 0 0 0 0 0 0 0 0 0 0 0 0 0 0 0 0 0 0
1410 1319 1213 826 819 853 974 1143 1592 1393 834 624 594 622 570 388 279 346 781 1498 1697 2148 2228 1908 1341 1218 1146 1001 798 622 522 505 533 385 204 0 0 0 7 88 68 0 0 0 0 0 0 0 0 0 0 0 0 0 0 0 0 0 0 0 0 0 0
1552 1687 1632 1188 875 964 1536 1852 1234 923 736 558 480 384 239 143 169 353 646 940 1435 1617 1391 1412 1141 889 583 381 496 786 778 575 423 236 304 346 142 0 36 32 0 0 0 0 0 0 0 0 0 0 0 0 0 0 0 0 0 0 0 0 0 0 0

ECMWFFLT1_con_mucape_015.txt.gz
CAPE
488 726 1080 1282 1398 1473 1603 1763 1857 1917 1976 2033 2065 2088 2132 2168 2204 2216 2216 2213 2133 2043 2026 2065 2076 2040 2022 2069 2131 1978 1527 1246 810 0 0 0 0 0 0 0 0 0 0 0 0 0 0 0 0 1 1 17 0 0 0 116 6 15 0 1 0 1 0
445 596 966 1236 1421 1488 1558 1706 1853 1914 1960 2010 2047 2075 2112 2158 2198 2218 2228 2223 2176 2106 2069 2089 2099 2084 2055 2104 2120 1885 1482 1227 670 18 0 0 1 0 0 0 0 0 0 0 0 0 0 0 0 0 0 104 28 0 0 5 1 0 0 0 0 0 3
392 578 848 1120 1336 1445 1501 1598 1766 1875 1904 1953 1990 2027 2066 2104 2154 2209 2238 2210 2189 2158 2124 2123 2141 2126 2074 2128 2092 1742 1602 1244 551 0 0 0 0 0 0 0 0 0 0 0 0 0 0 0 0 0 0 5 20 0 0 0 0 0 0 0 0 0 0
385 577 835 1023 1185 1318 1393 1482 1646 1819 1880 1888 1915 1973 2030 2082 2129 2199 2232 2175 2141 2167 2169 2155 2142 2108 2072 2125 2132 1679 1299 866 140 0 0 0 0 0 0 0 0 0 0 0 0 0 0 0 0 0 289 0 0 0 0 0 0 0 0 0 0 0 0
359 536 842 1036 1118 1175 1281 1394 1535 1713 1836 1857 1861 1888 1973 2054 2114 2174 2212 2160 2080 2099 2126 2084 2044 2059 2112 2182 2076 1498 829 207 0 0 0 0 0 0 0 0 0 0 0 0 0 2 1 0 0 0 0 0 0 0 0 0 0 0 0 0 0 0 0
328 483 770 1040 1156 1184 1240 1356 1436 1586 1742 1822 1839 1844 1899 2022 2095 2138 2176 2164 2098 2066 2077 2061 2058 2112 2206 2224 1861 1312 772 51 0 0 0 0 0 0 0 0 0 0 0 0 0 0 0 0 0 0 0 0 0 0 0 0 0 0 0 0 0 0 0
296 417 630 894 1098 1200 1235 1324 1436 1499 1635 1765 1814 1847 1883 1970 2074 2108 2143 2173 2150 2102 2069 2087 2120 2122 2143 2134 1906 1460 948 70 0 0 0 0 0 0 0 0 0 0 0 0 0 0 0 0 0 0 0 0 0 0 0 0 0 0 0 0 0 0 0
259 366 509 674 889 1062 1195 1268 1362 1474 1521 1640 1700 1804 1865 1919 1974 2038 2114 2171 2197 2142 2070 2035 2055 2106 2122 1995 1838 1573 1113 0 0 0 0 0 0 0 0 0 0 0 0 0 0 0 0 0 0 0 0 0 0 0 0 0 0 0 0 0 0 0 0
234 318 431 549 628 798 965 1106 1216 1305 1437 1476 1521 1582 1638 1711 1790 1921 2065 2149 2163 2132 2054 1986 1973 1996 1988 1906 1747 1392 1171 232 0 0 0 0 0 0 0 0 0 0 0 0 0 0 0 0 0 0 0 0 0 0 0 0 0 0 0 0 0 0 0
233 293 355 430 521 617 728 897 967 1095 1269 1356 1412 1467 1500 1524 1665 1841 2002 2090 2105 2067 2038 1943 1870 1882 1943 1861 1674 1384 1111 0 0 0 0 0 0 0 0 0 0 0 0 0 0 0 0 0 0 0 0 0 0 0 0 0 0 0 0 0 0 0 0
192 104 167 355 411 503 638 681 757 880 986 1176 1340 1380 1401 1426 1633 1826 1968 2051 2061 2038 2005 1951 1808 1765 1804 1784 1677 1492 1300 43 0 0 0 0 0 0 0 0 0 0 0 0 0 0 0 0 0 0 0 0 0 0 0 0 0 0 0 0 0 0 0
153 0 192 286 363 428 478 570 636 705 789 984 1178 1292 1341 1401 1604 1806 1963 2020 2030 2002 1942 1906 1835 1770 1744 1717 1627 1494 1242 234 2 308 0 0 0 0 0 0 0 0 0 0 0 0 0 0 0 0 0 0 0 0 0 0 0 0 0 0 0 0 0
1 0 5 12 184 343 416 480 504 589 728 823 996 1148 1274 1344 1524 1752 1916 1998 1999 1977 1920 1841 1806 1761 1697 1658 1655 1514 824 456 1 57 0 0 0 0 0 0 0 0 0 0 0 0 0 0 0 0 0 0 0 0 0 0 0 0 0 0 0 0 0
104 0 0 14 209 323 345 383 470 541 662 755 843 1023 1168 1253 1425 1660 1858 1964 1990 1983 1920 1846 1772 1768 1731 1604 1429 1460 1197 610 108 0 0 0 16 0 0 0 0 0 0 0 0 0 0 0 0 0 0 0 0 0 0 0 0 0 0 0 0 0 0
2 1 238 333 360 348 380 416 446 496 611 702 760 848 1015 1176 1300 1502 1738 1893 1981 2007 1986 1913 1834 1727 1646 1511 1499 1376 1253 947 297 252 0 0 0 0 0 0 0 0 0 0 0 0 0 0 0 0 0 0 0 0 0 0 0 0 0 0 0 0 0
9 14 86 307 379 417 430 448 473 470 499 632 736 811 887 1041 1201 1345 1561 1781 1922 1987 2000 1953 1835 1755 1700 1587 1473 1373 1424 1170 484 418 227 0 0 0 0 0 0 0 0 0 0 0 0 0 0 0 0 0 0 0 0 0 0 0 0 0 0 0 0
17 34 22 53 68 369 416 448 447 454 494 613 726 812 888 933 1008 1196 1397 1619 1807 1914 1953 1879 1821 1785 1708 1625 1582 1536 1372 1040 761 671 46 136 0 0 0 0 1 0 0 0 0 0 0 0 0 0 0 0 0 0 0 0 0 0 0 0 24 30 0
181 283 323 212 413 436 464 488 504 504 537 680 790 801 849 929 1019 1136 1343 1507 1680 1776 1808 1829 1841 1845 1786 1679 1551 1531 1355 1244 848 598 421 296 0 0 0 0 0 1 0 0 0 0 0 0 0 0 0 0 0 0 0 0 0 0 0 0 0 22 28
35 90 389 434 472 522 554 580 598 572 608 652 774 1002 1010 1025 1122 1234 1343 1460 1604 1691 1744 1791 1816 1824 1737 1597 1551 1486 1324 1276 1118 1076 740 346 129 0 0 0 1 2 0 0 0 0 0 0 0 0 0 0 0 1 0 0 215 26 16 0 0 0 0
44 422 510 644 826 1016 1042 998 1044 1006 1015 1100 1174 1114 1038 1199 1243 1290 1366 1482 1559 1633 1668 1663 1704 1718 1658 1597 1512 1396 1526 1266 1212 810 717 424 0 1 0 0 4 31 8 5 0 0 31 0 0 0 0 0 0 6 8 273 310 322 286 81 0 0 0
475 701 771 950 1209 1352 1483 1501 1576 1549 1453 1377 1212 1047 1028 1244 1368 1444 1474 1502 1582 1630 1635 1623 1625 1613 1586 1582 1468 1528 1442 1461 1336 950 875 474 71 0 0 0 17 52 38 10 0 82 337 314 38 1 26 36 48 30 36 305 378 404 409 416 184 0 0
93 100 92 332 363 562 908 1094 1225 1449 1646 1505 1393 1323 1269 1260 1337 1442 1521 1573 1634 1661 1641 1640 1617 1612 1557 1515 1512 1451 1176 1290 932 838 657 104 0 0 0 11 50 79 152 221 278 346 397 338 9 46 103 110 87 61 52 375 467 476 504 474 245 0 0
0 0 0 0 3 41 549 946 1227 1439 1630 1585 1589 1501 1418 1427 1429 1444 1483 1520 1574 1622 1653 1644 1649 1685 1642 1576 1606 1442 1056 996 798 520 112 65 0 0 14 60 107 150 274 349 400 434 433 349 330 282 110 140 142 44 362 458 544 541 452 0 0 0 0
19 9 136 347 458 562 660 1167 1408 1631 1745 1696 1611 1547 1529 1456 1431 1417 1459 1518 1543 1588 1635 1642 1675 1688 1686 1648 1639 1205 991 900 739 586 442 9 0 5 50 136 223 312 440 477 503 523 502 421 344 290 275 340 61 428 548 607 457 0 0 0 0 0 0
882 1088 1132 974 807 800 1065 1410 1561 1713 1747 1610 1554 1492 1600 1519 1450 1436 1442 1458 1449 1480 1523 1547 1585 1612 1622 1614 1585 1399 1016 938 818 648 528 419 27 48 129 276 355 430 486 577 615 626 590 416 320 345 386 425 550 597 489 348 0 0 0 0 0 0 18
1439 1519 1520 1366 1248 1184 1334 1461 1412 1534 1661 1565 1564 1409 1459 1504 1480 1436 1420 1362 1375 1374 1411 1452 1483 1463 1399 1392 1294 1058 936 723 614 452 485 8 20 235 243 389 476 552 579 655 710 648 460 320 323 403 495 503 500 478 333 102 0 0 0 0 37 64 0
1569 1580 1575 1560 1509 1574 1495 1506 1379 1346 1477 1470 1496 1510 1540 1509 1429 1378 1345 1337 1313 1334 1410 1447 1348 1231 1189 1226 1238 1054 778 695 636 658 479 369 259 331 444 375 343 412 555 592 490 395 373 334 378 454 482 437 296 61 0 0 0 0 28 61 51 0 0
1635 1766 1729 1795 1597 1588 1592 1582 1383 1343 1394 1536 1734 1752 1649 1525 1361 1301 1260 1240 1291 1358 1430 1369 1200 1106 1108 1106 1014 790 688 657 640 660 578 564 480 535 628 702 707 571 446 451 533 608 607 506 428 508 504 333 180 0 0 75 12 0 0 0 0 0 0
1372 1505 1669 1676 1699 1676 1600 1593 1494 1568 1735 1852 1882 1816 1632 1440 1324 1248 1264 1342 1367 1358 1330 1205 1130 1080 1030 946 801 711 677 647 751 803 793 791 925 981 991 979 1051 1058 964 959 1014 960 778 557 501 440 436 353 254 0 108 193 42 50 0 0 0 0 0
1099 1392 1514 1562 1441 1430 1460 1602 1674 1816 1935 1946 1812 1679 1524 1362 1270 1278 1339 1481 1508 1441 1311 1208 1124 987 869 773 747 715 703 684 697 785 871 919 822 975 1054 1092 1176 1356 1355 1247 1178 997 794 538 453 419 378 0 0 0 0 193 147 47 0 0 0 0 0
983 1236 1339 1397 1407 1480 1672 1736 1850 1908 1976 1849 1685 1507 1392 1289 1230 1371 1620 1606 1452 1326 1174 1097 998 937 933 858 769 724 701 727 754 801 825 760 719 764 839 1049 1231 1404 1497 1474 1214 920 746 733 762 343 0 0 0 56 198 223 123 0 0 0 0 0 0
1159 1245 1266 1318 1402 1612 1830 1924 1929 1954 1920 1643 1478 1346 1257 1247 1432 1650 1602 1335 1127 989 876 848 841 872 970 918 770 715 709 648 644 498 215 342 756 896 992 1050 1176 1317 1398 1327 1263 1264 1180 884 755 489 0 3 59 116 280 181 101 99 18 0 0 0 0
1575 1448 1494 1536 1566 1754 1943 2016 1961 1853 1696 1508 1248 1253 1268 1434 1676 1596 1353 1100 907 779 706 621 605 693 773 873 801 779 756 675 485 425 570 745 886 950 996 1067 1198 1259 1211 1110 1103 1081 996 850 600 194 0 106 164 328 237 179 157 0 0 0 0 0 0
1584 1530 1544 1698 1759 1862 1982 1988 1923 1794 1614 1468 1272 1342 1482 1660 1685 1441 1079 809 659 533 405 19 32 134 499 671 744 707 672 320 417 623 692 863 1029 1115 1183 1260 1204 1155 991 897 875 885 788 495 267 0 0 220 339 268 245 187 0 0 0 0 0 0 0
1350 1502 1496 1470 1538 1720 1796 1824 1777 1662 1564 1464 1389 1491 1636 1614 1450 1085 766 665 578 604 601 641 560 37 357 588 453 24 11 11 127 59 0 550 711 811 865 999 1111 1062 978 816 682 576 444 204 0 0 211 294 312 236 101 0 0 0 0 0 0 0 0
1241 1194 1313 1365 1429 1432 1483 1569 1558 1561 1489 1453 1474 1540 1559 1389 1086 726 670 682 588 434 344 101 308 5 9 1 0 0 0 0 0 0 0 0 303 429 583 704 731 637 587 594 514 398 375 270 244 315 318 146 0 0 0 0 0 0 0 0 0 0 0
1030 998 1216 1276 1254 1252 1240 1300 1359 1408 1377 1375 1356 1267 984 882 763 694 698 887 752 501 0 273 250 0 0 0 0 0 0 0 0 0 0 102 336 493 573 574 468 492 491 462 495 507 381 118 0 0 0 0 0 0 0 0 0 0 0 0 0 0 0
1016 959 1147 1301 1246 1176 1106 1112 1185 1232 1232 1243 1136 969 903 945 1029 932 947 949 863 684 620 165 5 0 0 0 0 28 183 0 0 0 0 349 448 478 475 452 467 474 513 501 408 252 102 0 0 0 0 0 0 0 0 0 0 0 0 0 0 0 0

ECMWFFLT1_con_mucape_021.txt.gz
CAPE
595 700 867 1158 1208 1094 1175 1441 1468 1567 1754 1692 1733 1776 1881 2012 2158 2440 2362 2578 2568 2724 2966 2894 2880 2879 2964 3064 3125 3218 3150 3115 3049 2930 2425 2116 1792 1503 1361 1403 1394 1462 1335 1110 1054 1171 968 1165 1507 1486 1532 1528 1308 1168 1156 1140 1003 730 656 714 560 482 298
454 565 748 1026 1144 1188 1291 1436 1684 1655 1683 1687 1726 1876 1879 2161 2376 2344 2444 2676 2731 2798 3039 2905 2884 2910 3032 3111 3168 3194 3142 2977 2836 2530 2236 1951 1492 1454 1488 1444 1108 1180 1212 1122 1252 1208 1148 1072 1172 1434 1448 1342 1176 1116 959 1120 1093 894 460 711 605 648 585
434 486 638 873 1046 1199 1449 1477 1696 1697 1740 1626 1623 1820 2000 2365 2496 2418 2571 2722 2844 2925 3062 2981 2905 2965 3008 3176 3174 3190 3073 2886 2559 2262 1942 1802 1527 1460 1550 1422 985 993 858 987 1113 980 907 1000 1184 1314 1193 1127 1010 1055 992 1032 1106 916 786 827 710 580 634
586 552 654 956 1232 1492 1553 1465 1636 1676 1687 1606 1681 1801 2104 2606 2560 2605 2726 2687 2848 2963 3047 3068 2965 2936 3010 3106 3162 3164 3005 2760 2386 2035 1902 1794 1596 1528 1582 1336 835 746 795 719 645 736 697 868 898 1135 1003 975 954 846 899 773 622 878 934 992 830 688 678
699 650 635 834 958 1284 1349 1497 1661 1809 1700 1640 1790 2056 2341 2587 2582 2615 2665 2621 2645 2872 2906 3048 2916 2964 3023 3026 3046 3042 2878 2608 2184 1889 1796 1715 1612 1584 1627 1375 566 479 566 600 633 737 816 824 825 881 985 989 764 969 984 941 752 1008 870 1056 852 788 676
661 777 820 820 840 1126 1302 1410 1516 1724 1775 1746 1878 2155 2215 2223 2237 2243 2406 2624 2689 2786 2996 3066 3050 3034 3060 3014 3021 2934 2648 2380 2006 1780 1707 1637 1599 1616 1667 1482 666 442 592 637 466 556 808 793 780 720 632 591 455 480 536 718 751 792 880 1004 837 591 438
702 807 857 857 982 1083 1222 1289 1368 1593 1788 1874 1974 2125 1984 1940 2104 2133 2242 2512 2604 2807 2906 3006 3006 3008 3083 3046 3026 2951 2528 2188 1875 1800 1642 1591 1577 1642 1684 1494 822 492 482 553 382 455 574 730 644 601 528 456 514 445 505 780 668 802 825 822 785 888 804
818 866 982 1010 1020 1065 1163 1352 1480 1628 1859 2030 2110 2063 1981 1988 2116 2178 2282 2417 2499 2480 2711 2627 2914 3111 3166 3168 3009 2847 2489 2082 1878 1717 1579 1548 1613 1696 1740 1544 908 601 590 344 361 304 284 444 394 522 563 473 605 682 719 780 876 732 682 713 689 698 780
682 1022 932 820 962 971 1176 1547 1641 1862 2171 2329 2354 2332 2193 2226 2224 2287 2423 2509 2566 2574 2673 2637 2901 3123 3261 3189 2922 2738 2422 1946 1806 1611 1475 1549 1704 1766 1744 1560 971 422 356 296 211 250 223 198 243 483 486 411 465 620 675 839 844 782 670 635 706 730 732
750 936 1110 1005 992 1044 1452 1787 1954 2268 2535 2603 2564 2583 2493 2509 2480 2467 2527 2505 2537 2670 2794 2844 2898 3056 3253 3140 2845 2614 2241 1914 1770 1578 1488 1527 1726 1816 1768 1564 967 288 337 218 56 0 46 268 250 262 251 290 417 421 517 632 762 738 681 688 678 652 702
718 1114 1254 1103 1253 1450 1637 1663 2113 2466 2432 2664 2757 2654 2758 2755 2704 2619 2707 2650 2639 2781 2860 2984 2998 3050 3095 3047 2741 2388 2059 1869 1696 1560 1462 1496 1554 1760 1744 1533 964 148 208 101 88 8 28 104 59 126 113 135 238 335 397 495 543 580 529 529 589 648 620
1024 1077 1308 1330 1535 1626 1444 2051 2446 2538 2662 2718 2621 2584 2865 2888 2740 2683 2774 2828 2761 2793 2870 2965 3050 3022 3037 2884 2592 2213 1987 1820 1638 1488 1415 1348 1502 1688 1733 1482 1020 250 188 120 54 17 22 134 49 48 36 41 114 244 400 547 538 572 589 557 615 619 524
850 1168 1340 1132 1550 1710 2185 2148 2212 2446 2628 2562 2462 2644 2816 2722 2674 2644 2844 2874 2732 2772 2898 3055 3098 3096 2973 2770 2414 2153 2046 1864 1624 1425 1308 1170 1388 1614 1728 1602 913 219 140 90 28 5 3 48 54 85 15 76 121 157 292 361 379 550 655 658 662 643 633
657 763 979 1424 1502 1608 1800 2198 2411 2437 2544 2502 2573 2764 2688 2730 2760 2786 2892 2826 2770 2714 2808 2974 3096 3135 2968 2672 2338 2169 2085 1931 1697 1446 1254 1170 1188 1493 1669 1635 1088 353 320 162 27 38 10 38 48 38 46 32 180 243 255 318 366 553 677 672 624 628 702
419 573 886 1031 1500 1854 2010 2149 2386 2348 2418 2489 2499 2537 2615 2624 2673 2815 2855 2702 2804 2668 2742 2935 3136 3144 2956 2636 2346 2202 2093 1976 1782 1557 1216 1071 1111 1324 1440 1473 944 353 313 134 3 17 10 6 44 25 48 133 158 171 208 267 370 562 656 592 568 684 780
558 625 707 977 1342 1467 1868 2069 2332 2415 2436 2500 2406 2520 2479 2608 2749 2724 2696 2690 2718 2729 2696 3132 3226 3202 2894 2599 2418 2251 2108 2027 1902 1700 1426 1070 866 996 1056 1211 1197 679 184 5 73 242 89 71 70 26 129 184 140 154 218 335 469 319 9 95 641 1033 1025
638 674 728 1066 1555 1422 1685 1931 2129 2320 2362 2392 2398 2490 2506 2598 2558 2556 2364 2512 2552 2710 2835 3109 3274 3216 2862 2609 2412 2179 2116 2077 2019 1947 1798 1563 1208 866 870 1217 521 632 453 222 0 147 128 124 96 45 46 63 96 158 249 332 438 65 0 0 1 508 979
805 870 856 974 1131 1302 1552 1624 1922 2012 2111 2169 2286 2445 2468 2526 2481 2390 2263 2480 2546 2505 2690 2860 3005 3011 2836 2604 2347 2097 2095 2083 2061 2002 1928 1784 1650 1429 1298 1160 899 577 432 230 208 242 205 160 106 154 95 122 81 87 184 375 196 2 0 0 0 64 674
870 911 1024 1095 1234 1340 1295 1305 1564 1834 1833 1951 2000 2144 2204 2459 2262 2353 2424 2537 2618 2546 2842 2938 2983 2969 2803 2499 2224 2006 2018 2008 1996 1969 1886 1784 1666 1605 1538 1169 932 558 224 196 397 436 290 28 207 227 105 112 178 179 182 260 258 0 0 0 0 0 146
1016 900 835 831 1135 1217 1342 1413 1410 1595 1940 2096 2044 1962 2150 2071 2171 2388 2524 2689 2916 2945 2969 2962 2926 2874 2705 2435 2118 1908 1887 1884 1895 1889 1835 1743 1683 1638 1630 1624 1281 930 628 694 653 629 383 296 300 150 127 121 166 205 238 348 337 2 0 0 0 0 47
912 789 868 1145 1187 1034 1431 1546 1612 1693 1867 1755 1633 1940 2114 2060 2045 2338 2412 2598 2731 2907 2982 2892 2880 2678 2552 2256 1982 1759 1777 1804 1795 1796 1770 1723 1668 1589 1540 1574 1100 1191 1031 696 509 548 321 288 173 244 240 248 263 308 403 412 268 2 0 54 0 0 9
550 613 908 901 1243 1552 1677 1339 1514 1424 1701 1741 2053 1908 1820 2000 1875 1908 2304 2587 2726 2842 2796 2768 2692 2532 2296 2076 1727 1662 1698 1716 1727 1706 1717 1671 1586 1478 1460 1423 1157 1019 759 536 358 294 280 174 276 314 285 384 411 301 392 425 87 194 385 336 198 0 241
576 791 1120 1298 1120 1500 2028 1896 2012 1745 2203 1956 1810 1920 1887 2033 1864 2100 2380 2399 2580 2718 2620 2525 2486 2358 2090 1822 1558 1545 1562 1592 1605 1625 1620 1588 1497 1412 1368 1344 1378 975 706 442 361 278 201 182 260 321 304 342 476 508 567 752 593 353 388 376 350 70 636
572 784 1062 1177 2035 1990 2077 2119 2115 2090 1718 1818 2104 2475 2438 2137 2163 2375 2431 2535 2569 2526 2450 2302 2288 2155 1874 1680 1409 1412 1433 1437 1458 1492 1498 1515 1474 1386 1314 1292 1136 713 464 375 165 1 41 181 296 402 478 487 579 555 759 892 876 369 357 438 477 378 946
582 841 1143 1288 1518 1838 2123 2407 2290 2016 2203 2154 2060 1838 2039 2226 2336 2325 2473 2488 2380 2318 2238 2159 2128 1875 1676 1557 1312 1305 1308 1323 1365 1396 1417 1450 1414 1319 1214 1159 900 580 235 106 139 62 195 240 310 499 636 588 542 451 509 831 880 452 416 512 587 520 574
1339 1284 1413 1688 1898 2092 2047 1986 2064 2172 2042 1791 1501 1432 1804 1936 2088 2333 2346 2208 2020 2059 2102 1976 1846 1666 1508 1315 1261 1267 1266 1282 1302 1332 1358 1350 1337 1242 1088 933 707 407 106 114 144 203 331 427 453 613 691 676 654 610 628 714 1271 496 593 634 680 566 380
1787 1800 1733 1615 1532 1546 1694 1718 1834 1754 1577 1390 1315 1372 1552 1842 1956 1837 1740 1775 1878 1978 1888 1747 1551 1359 1285 1224 1237 1228 1220 1228 1222 1267 1264 1245 1213 1148 870 680 388 106 113 152 198 331 567 708 811 780 977 979 910 867 914 1059 1111 648 603 666 722 637 442
1484 1409 1396 1412 1410 1370 1344 1282 1295 1208 1114 1148 1200 1155 1339 1677 1786 1546 1577 1628 1816 1852 1506 1380 1280 1212 1141 1163 1142 1184 1170 1163 1197 1176 1186 1153 1107 1092 726 406 250 186 222 228 374 556 678 946 1200 1228 1199 1264 1006 984 848 433 550 633 759 641 376 406 477
1869 1665 1584 1500 1342 1302 1410 1476 1366 1148 882 993 1097 1334 1348 1582 1624 1551 1430 1746 1739 1301 1159 1176 1120 1116 1124 1161 1192 1173 1131 1102 1102 1122 1133 1122 1142 983 713 397 292 325 445 500 554 677 986 1257 1265 1184 1212 944 835 702 572 637 398 400 410 584 698 643 574
2250 1939 1508 1190 1097 1212 1383 1193 874 853 1012 1106 1148 1292 1388 1648 1653 1542 1678 1796 1235 1147 1104 1100 1150 1194 1206 1170 1179 1123 1086 1058 1033 1044 1032 1054 1060 1002 819 531 332 478 660 807 968 1187 1296 1351 1171 892 900 868 895 939 650 368 0 0 242 348 440 462 404
1653 1702 1639 1376 1096 1075 1174 1178 1021 977 1080 1227 1363 1508 1496 1652 1867 1696 1928 1400 1128 1078 1095 1184 1218 1243 1202 1181 1155 1092 1032 978 964 980 967 966 943 903 760 632 473 587 871 1096 1133 1340 1502 1365 1192 1220 1258 1058 839 893 764 550 356 153 50 71 226 168 44
1685 1650 1620 1471 1202 1036 1013 1061 1136 1175 1248 1319 1540 1638 1676 1706 1812 2124 1792 1213 1100 1104 1192 1234 1255 1234 1203 1164 1115 1048 955 900 869 864 852 825 788 786 770 708 505 548 836 858 998 1063 1134 1305 1245 1264 1111 958 905 803 735 468 296 102 0 0 0 0 0
2166 2070 2094 1823 1493 1335 1317 1232 1261 1372 1338 1482 1562 1531 1625 1559 1484 1700 1228 1122 1091 1145 1187 1198 1188 1175 1142 1100 1086 1040 950 851 810 785 764 748 751 770 779 736 596 522 629 758 916 1095 1190 1142 968 657 906 983 889 802 564 272 184 0 2 0 0 0 0
1873 1926 1500 1672 1597 1546 1589 1668 1616 1448 1360 1495 1479 1550 1474 1383 1312 1259 1166 1089 1141 1185 1214 1142 1030 981 959 975 991 1000 964 876 768 730 726 697 714 775 788 795 736 604 796 830 1008 1133 1160 964 742 760 944 931 788 768 383 64 2 2 18 0 0 50 130
1479 1509 1629 1754 1658 1716 1934 1670 1516 1393 1353 1336 1358 1378 1405 1257 1197 1154 1121 1140 1202 1297 1244 1064 872 836 858 777 803 858 876 857 810 773 903 948 716 746 700 771 784 882 650 458 758 976 974 887 735 777 782 852 866 891 740 517 226 88 2 7 127 159 113
1119 1176 1326 1305 1348 1414 1443 1472 1555 1345 1177 1139 1152 1176 1195 1191 1168 1147 1151 1212 1302 1310 1180 1011 928 927 940 877 851 779 740 741 856 764 749 710 589 589 626 699 791 827 770 718 638 517 559 635 852 658 692 613 707 633 555 492 514 0 0 136 140 116 18
1136 1138 1162 1166 1281 1347 1489 1389 1317 1282 1138 1058 946 983 1028 1120 1128 1170 1213 1304 1392 1203 1001 1002 922 782 743 698 666 689 766 660 720 765 768 621 70 427 452 476 477 493 497 408 392 467 440 462 444 322 262 386 352 149 7 68 7 113 100 0 0 0 0
841 960 1085 1172 1240 1263 1220 1177 1187 1128 1164 1003 911 1024 1002 1036 1099 1165 1272 1361 1220 875 974 912 877 816 733 691 725 700 827 659 603 461 319 243 158 439 472 488 396 85 0 0 0 0 228 277 298 346 350 331 250 171 111 0 99 68 19 0 0 0 0

ECMWFFLT1_con_mucape_024.txt.gz
CAPE
1702 1825 1834 1884 2069 2174 2171 2183 2340 2378 2490 2681 2871 2892 2737 2734 2632 2896 3204 3622 3812 4006 4167 4208 4244 4344 4319 4326 4317 4398 4418 4370 4242 4236 3976 3868 3342 3140 3225 3105 3009 2950 2487 2304 2382 2056 2094 1610 1320 1072 720 649 647 467 540 575 679 521 500 512 499 478 488
1585 1568 1758 1858 2008 2162 2303 2363 2425 2448 2593 2716 2906 3072 2779 2850 2884 2922 3219 3588 3843 3880 4156 4287 4253 4261 4269 4391 4379 4440 4398 4404 4324 4166 3992 3834 3608 3475 3462 3318 3114 3038 2898 2585 2246 2087 1994 1459 1101 958 590 682 505 478 494 680 684 497 360 495 456 572 330
1401 1554 1638 1859 2034 2139 2345 2414 2472 2474 2572 2590 2738 2854 2802 2981 3085 3092 3370 3600 3905 4012 4026 4305 4431 4322 4323 4340 4398 4548 4575 4532 4389 4375 4144 3695 3746 3535 3627 3305 3124 2799 2779 2594 1966 1760 1596 1314 1078 754 607 676 474 554 695 747 694 523 462 565 531 504 381
1160 1460 1569 1834 2180 2349 2464 2471 2566 2451 2477 2532 2610 2661 2886 3131 3275 3270 3407 3517 3834 3940 3936 4303 4434 4280 4370 4448 4503 4550 4637 4623 4523 4397 4160 3913 3982 3764 3606 3428 3082 2622 2698 2409 1699 1440 1252 1004 898 663 641 674 604 570 570 542 536 445 525 594 596 574 568
1174 1328 1454 1679 1906 2371 2593 2555 2601 2674 2454 2461 2664 2832 2914 3072 3278 3304 3379 3452 3551 3838 3917 4108 4278 4305 4330 4386 4407 4508 4618 4707 4634 4393 4219 3959 3934 3747 3485 3142 2951 2584 2407 2074 1552 1415 1215 942 874 718 755 687 672 591 544 499 500 534 505 588 717 643 624
1324 1462 1427 1574 1730 2175 2545 2567 2551 2543 2491 2486 2660 2787 2803 2868 2989 3015 3182 3463 3568 3756 3937 4059 4261 4295 4403 4322 4358 4347 4636 4771 4690 4536 4272 4019 3939 3626 3364 3140 2796 2525 2104 1879 1459 1479 1457 1210 760 696 642 552 372 311 508 522 510 456 546 785 674 630 434
1263 1624 1600 1612 1750 2006 2333 2450 2456 2477 2489 2479 2563 2763 2716 2705 2920 2906 2975 3258 3450 3678 3888 3877 4181 4199 4390 4338 4396 4448 4720 4716 4685 4433 4140 3995 3805 3628 3372 3156 2708 2349 2088 1864 1628 1375 1308 868 612 578 610 490 605 369 457 627 685 613 631 635 835 688 563
1403 1821 1817 1738 1668 1816 2023 2338 2493 2390 2494 2499 2507 2595 2604 2618 2831 2848 2932 3033 3242 3130 3405 3455 3840 4224 4396 4444 4413 4421 4674 4590 4502 4352 4010 3845 3740 3522 3258 3102 2647 2352 2032 1898 1639 1258 980 814 582 803 768 601 628 562 682 869 851 439 514 657 675 523 440
1464 1932 1877 1612 1630 1561 1702 2121 2318 2370 2541 2686 2632 2690 2759 2707 2668 2912 2931 2999 3223 3186 3208 3172 3410 3966 4458 4478 4476 4515 4594 4510 4431 4184 3951 3738 3465 3008 2850 2872 2644 2269 2060 1902 1630 1326 995 968 653 1369 1374 510 519 940 1029 1117 848 715 507 558 532 424 266
1472 2038 2052 1629 1416 1222 1512 1936 2380 2492 2715 2879 2873 2961 2959 2872 2909 2965 2966 2926 3063 3196 3136 3242 3212 3599 4354 4544 4459 4533 4596 4432 4217 3932 3671 3468 3061 2690 2598 2594 2577 2286 2125 1829 1548 1218 1076 1055 987 1412 744 342 769 1449 1024 938 896 684 627 839 622 527 466
1287 1967 2248 1792 1499 1515 1776 2068 2456 2829 3006 3272 3211 3025 3234 3128 2943 2946 3060 3018 2862 3119 3229 3344 3330 3447 4076 4438 4350 4372 4528 4400 4131 3859 3595 3284 2657 2495 2472 2466 2323 2116 1960 1406 1139 843 736 1010 1272 1000 799 606 968 1131 1034 909 724 612 711 870 709 602 494
2042 2107 2373 2044 1773 1778 1988 2467 2968 3229 3364 3554 3397 3306 3486 3408 3190 3026 3233 3183 3066 3106 3304 3385 3438 3370 3730 4290 4306 4406 4535 4450 4181 3707 3576 3295 2803 2449 2391 2373 2272 2108 1763 1426 1171 1203 946 954 772 870 846 592 511 834 940 845 633 713 720 649 693 815 697
2250 2298 2553 1982 2165 2176 2522 3132 3392 3606 3813 3790 3495 3617 3703 3559 3446 3278 3457 3505 3201 3166 3375 3534 3596 3688 3683 4187 4232 4427 4571 4505 4214 3781 3540 3454 2955 2538 2214 2010 1980 1793 1577 1488 1103 635 426 608 636 595 610 633 784 748 670 547 594 795 865 832 918 862 900
1694 2229 2266 2371 2478 2750 3127 3547 3752 3952 4114 3930 3746 3793 3772 3648 3684 3683 3798 3780 3583 3361 3325 3532 3806 3936 3952 4182 4333 4491 4750 4673 4351 3906 3609 3444 2974 2563 2190 2164 1867 1732 1602 1522 1089 494 222 541 679 643 672 708 510 488 698 820 752 764 951 1023 917 829 883
1903 2001 2384 2340 2799 2988 3264 3448 3905 4096 4042 3890 3765 3811 3911 3904 3826 3970 4055 3980 4040 3548 3596 3824 4030 4189 4240 4378 4450 4587 4894 4711 4314 3926 3369 2892 2759 2526 2350 1758 1843 1955 1710 1438 1208 594 258 502 784 827 607 560 392 450 564 538 550 544 580 736 930 866 731
1797 1697 2088 2393 2892 2912 3219 3523 3908 4100 4058 3925 3773 3854 3849 3795 3974 3953 4070 4092 4038 3989 3846 3951 4238 4445 4538 4561 4598 4667 4715 4415 4134 3540 2897 2888 2445 2500 2107 1933 1804 1638 1599 1466 1264 952 836 839 629 350 220 178 267 455 428 359 404 170 102 502 822 849 1038
1674 1483 1630 2370 2977 2906 3074 3347 3721 3885 3958 3868 3865 4023 3924 4108 4158 4111 3905 4090 4107 4171 3965 4076 4405 4652 4693 4726 4753 4628 4543 3922 3863 3306 3265 3010 2308 2352 2158 2122 2034 1811 1560 1348 1314 999 897 664 249 212 182 231 344 440 371 380 323 21 2 211 258 600 836
1339 1784 1695 2236 2643 2834 2972 3174 3763 3894 3981 3875 3909 4237 4357 4362 4322 4266 4010 4134 4070 4053 3974 4001 4315 4599 4773 4800 4807 4783 4332 3758 3428 3126 2956 2770 2474 2188 2130 2162 2089 2015 1900 1766 1527 960 944 840 530 388 262 147 214 180 253 322 56 0 22 60 10 15 429
1446 1919 2118 2520 2879 2924 2985 3243 3718 3850 3786 3798 4026 4292 4239 4438 4191 4321 4224 4285 4261 4170 4071 4152 4170 4620 4902 4895 4824 4810 4389 3778 3437 2956 3220 2742 2523 2158 2066 2106 2070 2024 1952 1830 1638 1569 1458 1277 1126 907 362 158 274 242 194 163 4 4 0 0 0 0 107
1513 1672 2155 2328 2780 2978 3182 3240 3404 3628 3831 4005 4074 4124 4200 4204 4232 4434 4251 4249 4334 4250 4182 4266 4377 4612 4797 4869 4790 4730 4449 3899 3450 3312 3128 2758 2397 1933 1940 2022 2035 2009 1890 1744 1593 1506 1327 1198 1042 1028 735 490 302 293 218 154 109 91 13 0 0 0 64
1848 2119 2406 2617 2965 2846 3134 3231 3380 3731 3778 3664 3648 3990 4147 4129 4044 4256 4179 4243 4362 4392 4319 4336 4616 4631 4654 4710 4708 4629 4412 4009 3488 3128 3062 2460 2030 1703 1718 1835 1858 1892 1837 1708 1672 1612 1460 1240 1064 983 807 488 340 233 171 194 2 96 14 0 0 0 99
1654 1971 2244 2440 2892 2775 3025 2778 3217 3381 3633 3660 3667 3947 4034 3845 3502 3531 4198 4316 4422 4435 4424 4544 4582 4495 4494 4498 4564 4442 4234 3936 3310 2940 2884 2295 1934 1775 1626 1668 1704 1762 1717 1643 1622 1581 1442 1303 1099 832 675 484 337 270 56 9 0 0 0 0 0 0 127
924 1553 1772 2238 2331 2513 3157 3107 3290 3524 3795 3604 3354 3240 2965 3096 3212 3639 4230 4243 4214 4442 4415 4398 4336 4242 4440 4324 4400 4151 3931 3699 3334 2877 2772 2349 2000 1657 1563 1566 1650 1662 1584 1532 1510 1446 1275 1077 879 715 595 551 399 286 58 234 164 0 0 0 0 0 436
790 1142 1412 1781 2100 2970 3198 2857 2632 3478 3001 3060 2687 3046 3193 3189 3147 3891 4180 4025 4095 4344 4265 4174 4094 4210 4312 4089 4066 3804 3560 3169 2421 2704 2721 2351 2016 1574 1474 1520 1596 1608 1524 1449 1404 1342 1203 906 702 540 526 513 476 296 348 274 108 0 0 0 0 33 663
1170 1335 1928 2250 2598 2640 2308 2680 2992 2984 2942 3155 3817 3780 3686 3615 3898 4022 4007 3979 4219 4090 4048 3904 3968 4072 4133 3872 3757 3518 3053 2591 2341 2472 2570 2365 2074 1634 1419 1424 1468 1445 1342 1231 1131 1038 854 656 556 476 419 377 292 151 244 190 185 0 473 432 70 1 718
1466 1656 1817 2126 2097 2612 3501 3570 3365 3420 3845 3966 4036 3962 4008 4009 3595 3500 3867 4234 3869 3666 3765 3778 3925 3970 3727 3509 3410 3102 2583 2001 2174 2282 2379 2394 2030 1769 1360 1359 1348 1306 1223 1084 862 646 620 603 524 392 364 420 372 390 297 274 703 1042 612 666 576 385 672
2426 2420 2306 2451 3029 3286 3394 3182 3310 3486 3773 3940 3808 3732 3624 3536 3727 4002 4088 3748 3618 3735 3772 3842 3752 3569 3402 3262 2906 2662 2352 2135 1962 2126 2114 2065 1886 1360 1272 1211 1195 1138 1073 872 659 482 494 480 456 377 560 612 738 791 882 945 1018 2501 875 805 598 377 453
2271 2575 2906 3051 2886 2874 3056 3579 4161 4048 3937 3841 3737 3599 3749 4073 4128 4078 3782 3858 4022 3852 3643 3578 3356 3208 3162 2874 2492 2288 2072 1764 1928 1964 1922 1864 1746 1231 1213 1134 1028 948 844 546 453 415 564 634 628 824 884 960 1163 1380 1493 1286 1067 1793 1204 1073 704 449 458
2753 2685 2768 2957 3204 3144 3338 3560 3478 3266 3081 2957 3204 3486 3592 3810 3845 3685 3788 4008 3585 3331 3290 3167 3010 2939 2757 2424 2198 1992 1986 1874 1878 1701 1416 1556 1398 1221 1086 999 908 762 676 705 710 653 655 760 838 1094 1351 1581 1973 1912 1647 1576 1702 882 907 793 461 462 487
2706 2704 2558 2570 2832 2975 2980 2958 2691 2476 2512 2628 3029 3317 3466 3839 3737 3760 3847 3436 3020 2920 2898 2871 2770 2551 2408 2178 2010 1827 1686 1542 1596 1560 1531 1308 1195 1101 1034 948 807 752 859 848 748 687 688 849 905 1205 1259 1514 1506 1414 1196 1283 1120 683 481 354 94 266 230
2195 2187 2234 2268 2310 2474 2526 2610 2692 2621 2632 2704 2950 3163 3300 3525 3825 3814 3422 3012 2848 2812 2828 2696 2499 2355 2180 2119 1716 1677 1561 1530 1478 1556 1420 1123 1127 1065 982 923 788 842 846 866 781 758 818 1160 1396 1608 1636 1535 1447 1175 981 1055 1159 514 227 0 2 34 0
2601 2490 2486 2523 2626 2539 2469 2483 2565 2701 2773 2886 2939 3078 3414 3732 3952 3694 3018 2755 2734 2745 2749 2568 2472 2280 2158 1868 1686 1556 1489 1499 1413 1354 1250 1077 1054 1009 911 856 812 892 892 850 828 846 1167 1669 1543 1448 1421 1578 1662 1364 910 742 635 382 134 0 0 0 0
3008 3013 3028 3060 2952 2839 2961 2954 2920 2968 2893 2859 2808 2821 3084 3536 3420 2996 2781 2635 2620 2590 2592 2522 2361 2130 1898 1922 1672 1614 1420 1438 1146 980 973 1128 972 944 874 981 916 740 898 897 932 753 1008 1554 1565 1616 1449 1568 1610 1314 774 840 654 652 459 132 4 0 22
2805 2717 2923 3213 3277 3110 2964 2954 3107 2975 2962 2803 2673 2705 2844 2844 2778 2554 2443 2262 2211 2370 2432 2262 2142 1981 1854 1709 1628 1562 1517 1389 1143 1132 1077 912 883 859 824 826 679 951 916 824 730 831 1169 1341 1480 1511 1396 1358 1452 1187 686 596 540 574 703 557 419 218 237
2677 2773 2807 3004 3320 3409 3241 3249 3320 3085 2782 2732 2748 2754 2725 2404 2186 2248 2192 2068 2217 2345 2368 2108 1795 1824 1474 1452 1404 1418 1328 1365 1190 1152 1181 1046 798 801 794 819 800 1154 945 1272 1194 1513 1210 1410 1224 1330 1247 1189 1199 817 852 851 644 629 342 769 291 1059 373
2189 2276 2395 2554 2775 3008 3135 3255 3285 3165 2895 2727 2682 2651 2540 2292 2123 2051 1822 1978 2090 2240 2316 2058 1821 1654 1370 1392 1357 1320 969 1220 959 1072 1191 1062 814 761 760 756 811 828 684 616 557 438 333 430 749 813 892 1094 1036 821 768 642 662 470 306 230 191 0 92
1996 1980 2132 2304 2382 2493 2596 2590 2701 2876 2830 2669 2581 2372 2324 2305 2108 1979 1776 1865 2083 2297 2310 2128 1880 1597 1246 1057 935 1105 1035 1149 1208 1198 1197 1036 792 772 784 795 775 844 848 632 519 513 579 524 534 520 593 674 675 680 636 498 468 406 174 0 0 0 0
1712 1850 1846 1992 2354 2582 2592 2608 2622 2452 2376 2288 2314 2330 2344 2206 2147 2058 1888 2009 2060 2114 2176 2069 1853 1703 1485 1231 1166 1026 1098 1148 1206 1228 1122 802 736 766 764 751 734 676 688 673 544 602 595 575 489 515 600 631 624 400 269 168 59 0 0 0 0 166 173

ECMWFFLT1_con_mucape_027.txt.gz
CAPE
1014 640 722 925 2294 2133 2054 2318 2489 2386 2350 2410 2490 2417 1995 1786 2266 2808 3072 3702 4172 4525 4738 4673 4376 4223 4254 4340 4099 3972 4091 3966 3368 3226 3223 3203 3109 2907 2666 2479 2443 2473 2032 2083 2091 1860 1500 1419 1153 753 481 633 698 478 670 529 643 538 471 580 359 422 411
1122 530 354 724 2048 2353 2194 2334 2634 2605 2573 2644 2674 2613 2133 1906 2344 2759 3238 3601 4189 4465 4826 4860 4772 4597 4437 4326 4340 4198 4234 4208 3807 3538 3296 3407 3352 3192 2796 2718 2666 2700 2557 2188 2168 2004 1823 1448 1132 1002 790 787 683 712 620 648 673 588 531 500 454 496 360
212 1014 732 1386 2218 2439 2538 2484 2704 2684 2694 2749 2851 2715 2420 2470 2642 2865 3002 3395 4174 4427 4682 4929 4988 4680 4670 4650 4587 4588 4415 4206 3942 3687 3442 3146 3288 3094 3017 2794 2813 2879 2732 2414 2220 2174 1824 1584 1225 1008 946 871 638 759 706 686 788 752 454 518 430 458 480
186 986 1603 1823 2261 2666 2682 2656 2888 2865 2734 2616 2934 3103 3048 3021 2940 2898 2986 3475 4239 4460 4552 4755 4890 4776 4711 4727 4744 4877 4749 4546 4220 3795 3586 3370 3171 3454 3134 3168 3206 2693 2624 2456 2169 1990 1978 1853 1366 1226 1054 878 687 587 624 710 796 740 590 726 783 575 732
532 709 1072 2031 2212 2604 2803 2816 3085 3067 2850 2723 2976 3398 3411 3306 3308 3166 3144 3634 4111 4510 4429 4616 4520 4737 4690 4774 4845 4898 4920 4797 4485 4126 3880 3690 3490 3475 3536 3036 3337 2993 2569 2497 2290 2136 2012 1807 1415 1204 1035 818 698 639 640 752 822 698 620 789 944 767 723
132 825 1306 1924 2238 2494 2844 2866 3069 2998 2923 2685 2922 3507 3563 3429 3527 3276 3345 3828 4055 4243 4402 4353 4443 4678 4868 4821 4660 4688 5005 4961 4800 4604 4207 3996 3867 3584 3822 3756 3442 3189 2470 2612 2348 2207 2008 1550 1299 1210 945 695 605 583 551 735 754 734 725 849 844 768 640
12 220 780 1794 2263 2472 2756 2948 3025 3056 2912 2702 2827 3454 3604 3523 3408 3165 3238 3663 3651 4120 4168 4123 4226 4284 4801 4755 4731 4681 4870 4966 4977 4706 4486 4194 4111 4075 4177 4122 3626 3357 2804 2812 2727 2167 1835 1537 1336 1205 1007 612 697 611 684 812 606 767 836 882 957 1010 955
6 215 1446 1914 1997 2290 2604 2958 2999 3024 2894 2713 2790 3366 3251 3274 3256 2868 2881 3196 3485 3266 3829 3676 4004 4337 4889 4900 4904 4766 4916 4888 5091 5036 4616 4528 4267 4312 4444 4352 3929 3630 3318 3146 2884 2203 1881 1596 1244 1165 1000 712 650 780 794 746 664 806 992 940 986 1044 939
16 718 1788 1812 1718 1678 2321 2856 2956 2999 3032 2846 2840 3555 3394 3040 2903 2644 2645 2887 3285 3247 3528 3273 3546 4172 4838 4987 4983 5013 4947 4814 5071 5035 4793 4527 4569 4350 4368 4272 4083 3770 3500 3226 2802 2288 2016 1743 1252 1263 1164 829 799 798 940 967 846 836 918 910 1082 960 732
16 558 2211 2084 1542 1402 1924 2609 3077 3487 3337 3508 3461 3711 3384 3096 3042 2650 2522 2582 3003 3065 3109 3088 3076 3795 4776 5109 4974 4956 5083 4917 4962 4945 4806 4405 4373 4319 4136 3952 3948 3779 3538 3177 2770 2412 2215 1848 1313 1300 1179 652 806 920 858 462 662 794 860 946 921 865 931
34 296 2285 2316 1842 1784 2067 2390 3077 3928 3962 4213 4182 3530 3724 3286 3098 2884 2768 2696 2670 2950 3044 3006 2962 3493 4411 4978 4736 4740 5079 4976 4857 5046 4782 4484 4226 4216 3952 3635 3797 3664 3410 3189 2828 2636 2242 1836 1363 1400 1087 545 1110 1238 746 487 862 988 715 675 775 785 760
1262 1638 3364 2738 2184 2056 2225 3152 3616 4276 4268 4461 3716 3611 4074 4058 3310 3158 3125 3040 2726 2870 2978 3140 2920 3136 4235 4771 4661 4917 5123 5156 4800 4890 4940 4532 4213 4068 3868 3531 3675 3564 3364 3215 2880 2629 2159 1762 1530 1411 950 852 1375 1154 620 512 943 1075 790 550 498 783 716
1925 3106 3507 2644 2383 2374 2946 3572 3736 3831 4210 4005 3732 3816 3822 3589 3519 3438 3913 3654 2900 2774 3175 3478 3415 3552 3872 4705 4718 5060 5277 5298 5030 4822 4757 4757 4372 4106 3906 3420 3020 3162 3368 3113 2863 2619 2228 1810 1712 1274 1160 1123 1212 881 858 1204 1317 1023 888 504 563 768 763
3210 3013 3102 2771 2529 2655 2860 3195 3587 3952 4261 4280 3996 3958 4066 4043 3789 3748 4063 3858 3345 3081 3293 3491 3732 3653 3812 4586 4945 5248 5403 5436 5430 5014 4882 4773 4590 4319 4100 3521 3035 3238 3466 3176 2855 2670 2364 2070 1732 1428 1506 1548 1106 859 1232 1374 1196 966 908 656 640 692 670
3178 3402 3432 2905 2784 3025 3191 3295 4002 4191 4421 4444 4142 4177 4342 4294 4190 4148 4214 4134 3905 3153 3416 3824 4106 4058 3980 4570 5088 5421 5654 5756 5475 5139 5000 4766 4637 4448 4160 3840 3534 3475 3482 3280 2961 2612 2346 1879 1444 1424 1346 1177 875 703 1166 1265 818 629 730 414 552 586 576
1457 1640 2710 3252 3222 3128 3718 3828 4413 4634 4675 4680 4292 4504 4576 4539 4508 4287 4327 4173 3889 3660 3584 4174 4438 4631 4398 4620 5119 5559 5678 5557 5020 4429 4446 4269 4290 4220 3616 3794 3438 3296 3365 3294 2999 2694 2309 1928 1586 1476 1314 719 607 789 1027 907 622 627 491 615 802 904 723
34 11 120 2476 3820 3540 3940 4301 4826 4926 4822 4743 4511 4574 4830 4930 4740 4550 4282 4354 4285 4103 3874 4174 4851 4905 4784 4841 5187 5571 5725 5510 5030 4757 4736 4490 4074 4096 3844 3249 3408 3380 3317 2990 3034 2828 2632 2268 1786 1100 962 964 902 878 672 207 302 571 442 575 530 576 469
0 0 7 85 1034 3713 4197 4585 5103 5132 5104 4856 4604 4876 5038 5110 4965 4831 4443 4750 4525 4094 3907 4399 4853 5052 5118 5116 5422 5726 5618 5296 4809 4717 4622 4318 4148 4012 4054 3798 3438 3575 3511 3075 2818 2656 2346 1964 1846 1716 1605 1522 1322 984 642 480 502 380 293 243 156 565 714
0 4 3 1395 2354 3702 4130 4308 4782 5325 5186 5087 4806 5051 5096 5250 4954 5075 5005 5150 5140 4648 4551 4820 5224 5320 5486 5477 5702 5661 5378 5173 4589 4386 4542 4329 4111 4187 3913 3556 3791 3847 3474 3234 2986 2669 2030 2083 2097 2028 1883 1726 1553 1299 1033 626 523 451 475 71 127 168 112
0 0 0 32 993 1686 4248 4284 4271 4980 5358 5276 4946 4753 5074 5242 5090 5081 4909 5125 5316 4914 4981 5106 5350 5776 5766 5931 5949 5819 5352 4918 3960 4378 4230 4294 4189 3980 3668 3415 3224 3306 2985 2822 2904 2938 2256 2053 2005 1894 1798 1700 1630 1300 1198 862 1088 776 471 302 208 188 284
56 66 28 267 1094 526 3195 4506 4299 4972 5290 5026 4646 4912 5042 5108 5046 5161 5244 5505 5404 5200 5206 5201 5613 5838 5928 5788 5862 5665 5051 4128 3841 4498 4199 3861 3952 3822 3545 3419 3401 3171 2946 2610 2704 2868 2606 2050 1980 1778 1598 1482 1400 1326 1132 899 1017 796 473 406 364 300 286
22 5 0 110 1426 3069 4203 4202 4353 4665 4928 4717 4350 4721 4935 5040 5145 4996 5380 5430 5376 5374 5416 5510 5662 6000 6016 6012 5800 5540 4801 4348 4078 3548 4166 3850 3636 3548 3332 3200 3312 3146 3030 2805 2568 2392 1953 1949 1854 1746 1609 1493 1408 1356 1408 1092 723 601 417 572 374 280 252
0 0 0 1012 948 2468 4317 4456 4549 4632 5148 4659 4450 4649 4865 5064 4994 5082 5490 5564 5402 5520 5679 5599 5752 5847 5928 5915 5816 5351 4734 4297 3987 3684 3530 3696 3362 3304 3010 2964 2849 2804 2752 2434 2230 2060 1716 1840 1814 1702 1639 1652 1666 1524 1165 1075 795 715 589 465 333 282 296
0 0 1 441 2453 3532 4765 4423 4366 4671 4617 4368 4523 4986 5140 4797 5123 5558 5616 5583 5570 5516 5594 5575 5577 5658 5703 5582 5644 5161 4882 4492 4194 3734 3384 3609 3488 3016 2454 2642 2519 2372 2356 2112 1828 1633 1616 1616 1650 1588 1600 1585 1519 1376 1243 1151 902 660 483 367 322 327 430
330 92 302 1565 2841 3828 4149 4248 4392 4710 4667 4464 4802 5006 5144 5030 5208 5400 5484 5630 5568 5285 5117 5314 5213 5289 5268 5319 5329 5259 4893 4616 4077 3546 3184 3446 3151 2840 2607 2434 2410 2089 1910 1723 1572 1541 1541 1542 1561 1490 1325 1229 1073 976 866 751 614 605 554 420 357 341 482
281 104 355 2060 2756 3651 4016 4299 4506 4679 4454 4424 5191 5231 4951 4453 5079 5306 5344 5485 5102 4739 4723 4800 4889 5182 5085 5223 5118 4710 4406 3964 3665 3469 3165 3017 2977 2823 2580 2301 2038 1676 1508 1516 1503 1452 1382 1325 1265 1305 1170 860 690 645 637 608 595 629 648 534 403 312 614
1050 548 800 1973 2437 3718 4125 4429 4700 4507 4683 4921 4766 4221 4196 4773 5129 5023 5058 4817 4303 4333 4341 4734 5014 5079 4860 4766 4423 4096 3777 3562 3375 3217 2886 2558 2781 2502 2210 2002 1678 1244 1228 1293 1222 1159 1085 1041 1030 978 800 591 556 506 480 476 458 1127 489 469 340 199 104
1562 2034 2534 2792 3905 3892 3985 3986 4323 4166 3926 4365 4264 4282 4636 4958 4926 4850 4439 4054 4266 4373 4706 5095 4966 4724 4631 4372 3955 3638 3272 3230 3200 3007 2499 2656 2689 2389 2219 1986 1606 1188 1142 1198 1060 1100 967 721 649 606 576 566 500 401 537 518 459 2639 434 348 251 28 450
2532 2466 3272 3956 3898 3877 3683 3960 4274 4893 5058 4596 4386 4410 4515 4822 4639 4244 4311 4796 4878 4838 4724 4608 4480 4318 4097 3872 3708 3363 3148 3049 2816 2622 2375 2580 2683 2370 2078 1694 1450 1148 1087 1052 976 808 626 594 509 465 521 490 824 963 1083 1399 1226 1530 780 684 693 714 686
3892 4149 3933 3586 3444 3594 4309 4714 4254 3882 3831 3687 4078 4477 4549 4543 4601 4873 4920 4631 4452 4326 4223 4201 4072 3797 3561 3412 3367 3202 3028 2702 2409 2328 2481 2420 2334 2135 1757 1490 1390 1099 1064 891 813 784 875 875 856 889 867 940 1148 1366 697 853 1054 1004 970 1007 968 952 897
3594 3424 3294 3206 3831 3957 3455 3054 2981 3473 3960 4113 4436 4312 4490 4827 4950 4642 4491 4229 3999 3969 3952 3771 3410 3115 3065 3002 3088 2999 2687 2369 2118 2188 2334 2147 2118 1695 1504 1141 1269 997 1011 1021 1048 1003 899 898 1042 1075 994 1320 1138 992 751 817 813 973 972 935 836 815 658
3332 3499 3494 3349 3408 3269 3675 3608 3815 4037 4322 4544 4511 4486 4574 4476 4300 4052 3929 3844 3725 3559 3406 3309 3104 2944 2820 2730 2607 2429 2216 2062 2135 2017 1961 1805 1781 1746 1458 1271 1179 1251 1237 1152 1158 1136 984 1071 914 970 1010 1074 948 830 816 1202 926 900 818 768 685 508 394
2857 2946 2941 3076 2987 3062 3120 3250 3293 3541 3724 3775 3694 3634 3523 3505 3502 3594 3513 3512 3460 3218 3153 2957 2827 2618 2445 2420 2310 2138 2058 1947 2054 1875 1761 1546 1528 1666 1616 1392 1260 1266 1210 1189 1078 1056 1067 886 902 742 954 1022 934 918 1282 1162 900 679 606 543 160 0 51
3680 3581 3244 2968 3097 3206 3304 3290 3201 3306 3487 3625 3418 3194 3013 3131 3206 3245 3189 3138 3114 3184 2999 2866 2602 2359 2192 2067 2053 2009 2102 1932 1756 1800 1565 1431 1264 1558 1414 1100 938 1183 1232 1164 1224 1210 998 903 1469 1011 844 1052 1118 1232 1133 884 1007 898 569 230 21 12 2
3308 3595 3822 3665 3358 3360 3480 3492 3432 3347 3192 3142 3058 2951 2877 2776 2719 2833 2944 2919 3093 3124 2813 2560 2382 2283 2152 2031 1935 2063 2014 1776 1600 1666 1548 1455 1448 1351 1271 1295 1726 1356 1144 908 1032 1702 1077 1141 917 1054 1244 1142 806 879 1062 1010 861 903 420 783 428 87 28
2491 2731 3146 3542 3629 3680 3684 3651 3569 3402 3297 3152 3002 2838 2750 2679 2679 2740 2742 2985 3101 3066 2857 2655 2455 2280 2022 1818 1472 1668 1690 1413 1348 1572 1467 1258 1081 990 952 961 920 896 1223 821 736 706 679 760 877 872 627 969 968 862 939 1064 880 632 576 566 496 258 203
2304 2278 2349 2547 2939 3306 3577 3654 3646 3626 3438 3260 3088 2878 2683 2645 2616 2762 2836 2996 3120 2956 2860 2773 2408 2082 2005 1709 1508 1181 1520 1449 1473 1653 1547 1126 901 864 820 790 731 706 692 688 692 702 647 632 617 644 686 1831 610 723 982 928 670 533 387 486 392 288 293
2042 2072 2385 2885 3268 3320 3345 3400 3536 3519 3359 3206 3036 2841 2798 2671 2767 2944 2888 2838 2708 2836 2826 2572 2161 1986 1638 1650 1237 1283 1405 1395 1512 1597 1395 1122 1004 752 744 719 682 693 702 717 736 684 658 586 575 540 492 426 362 446 646 715 598 471 360 290 242 217 76

ECMWFFLT1_con_mucape_030.txt.gz
CAPE
734 664 759 891 1095 1105 1514 2034 2111 2202 2524 2415 2542 2481 2150 2472 2701 2989 3312 4013 4264 4566 4677 4416 4121 4255 4261 4413 4485 4369 4065 4038 4018 3907 4027 4021 3758 3677 3563 3668 3404 3270 2876 3102 2867 2748 2565 2663 2381 2354 2137 1412 1461 1182 1007 1235 1135 1046 1196 991 1075 1130 890
609 618 523 519 1010 1536 1846 2238 2028 2162 2606 2626 2594 2623 2228 2416 2791 2996 3199 3968 4353 4550 4661 4530 4202 4238 4288 4393 4395 4397 4159 4090 3990 3820 3831 3989 3909 4128 3657 3618 3395 3449 3294 2983 3254 3090 2424 2581 2155 2226 1579 1357 1284 1200 1000 1115 1283 1166 976 1179 864 1398 1036
599 565 502 562 893 1523 1987 1879 2186 2690 2629 2439 2418 2442 2339 2514 2701 3006 3231 3759 4384 4583 4646 4622 4219 4092 4275 4448 4403 4420 4294 4121 3989 3823 3719 3799 3955 3384 3648 3711 3441 3396 3116 3084 3329 2741 2414 1947 2009 2001 1500 1143 1082 1046 1025 884 1242 1131 1284 1211 1130 1037 1221
658 628 860 990 1368 1708 1962 2047 2582 2639 2431 2064 2263 2234 2521 2772 2707 2975 3237 3536 4170 4528 4743 4731 4434 4064 4123 4360 4484 4491 4388 4353 4178 3741 3409 3364 3638 3591 3647 3701 3460 3178 3154 2855 2836 2384 1962 1908 1787 1972 1680 1317 1149 1131 964 879 820 1122 1133 1274 1046 1096 997
974 1159 926 1065 1054 1964 2136 1949 2305 2995 2602 2127 2286 2529 2791 2960 2797 2762 3133 3356 3665 4266 4609 4767 4278 4098 4097 4318 4325 4416 4327 4444 4352 3926 3471 3362 3674 3725 3701 3141 3370 2878 3010 2927 2592 2562 2350 2121 1707 1794 1406 1535 1288 1176 1081 1072 978 1153 1196 1242 1094 991 1081
1394 927 872 823 780 1353 1750 1875 1696 2113 2450 2374 2357 2836 2812 2738 2484 2226 2633 3380 3546 3985 4625 4802 4645 4482 4444 4323 4252 4344 4429 4477 4441 4332 3881 3672 3768 3810 3621 3460 3109 2914 3085 3015 2691 2635 2592 2206 1746 1614 1347 1445 1045 948 1005 1091 1018 1216 1212 1278 1295 917 770
936 771 1177 1017 1214 1252 1505 1568 1696 2137 2417 2532 2449 2828 2647 2467 2325 1877 2218 2922 3413 4182 4379 4664 4726 4676 4499 4219 4258 4524 4696 4635 4613 4340 4120 4017 3756 3777 3723 3642 3280 3103 2895 3034 2740 2526 2466 2282 1948 1585 1369 1133 1097 896 811 910 1000 1122 1107 1074 1256 1154 982
201 800 1363 1087 1022 1039 1433 2346 2646 2354 2324 2970 2595 2662 2635 2466 2152 1845 1865 2610 3306 3776 4038 4209 4756 4804 4513 4339 4553 4417 4678 4530 4566 4426 4102 3988 3907 3703 3739 3804 3544 3476 3330 3006 2909 2591 2360 2336 2135 1731 1596 1267 1198 1044 979 1055 1073 1205 1067 1079 1195 1181 1004
280 918 1145 810 778 751 963 2082 1983 1770 2110 3106 3004 3142 2817 2708 2247 2030 2284 2913 3005 3251 4051 4253 4428 4502 4665 4549 4542 4448 4620 4816 4726 4443 4205 3872 3846 3487 3408 3755 3822 3760 3581 3056 2900 2762 2461 2378 2052 1821 1637 1336 1196 1160 1134 1087 1174 1144 1086 1070 1195 1142 1000
744 1679 1295 836 600 666 1471 1847 1893 1661 1815 3209 3350 3410 3409 3286 2899 2587 2562 2580 2674 3107 3835 4051 4115 4236 4723 4680 4624 4448 4704 4933 4911 4292 3956 3593 3630 3422 3179 2999 3778 3909 3759 3188 2814 2898 2700 2442 1990 1820 1691 1373 1204 1204 1118 1164 1128 1059 1138 1222 1183 1185 1156
1069 1791 1610 1271 1464 1690 1724 1472 1623 2172 3166 3824 3651 3623 3759 3626 3423 3117 3058 2787 2716 3074 3771 3859 3899 3741 4358 4372 4203 4322 4761 4855 4852 4625 4301 3971 3615 3511 3118 2989 3382 3803 3626 3356 2952 3035 2772 2457 2036 1938 1769 1458 1193 1160 1152 1232 1112 925 908 1193 1233 1227 1144
2507 2175 2894 2420 2563 2145 1694 1598 2214 3694 4386 4297 3904 3865 4034 3917 3679 3379 3289 3054 2970 3044 3461 3645 3462 3817 4231 3964 4332 4615 4806 4739 4530 4330 4374 4101 3709 3467 3312 3101 3752 3881 3701 3590 3223 3242 2831 2517 2141 1926 1815 1492 1242 1126 1160 1290 1137 974 921 1032 1182 1259 1094
3033 2785 3385 2951 3139 2503 2416 2528 3144 4424 4950 4551 3925 3927 4203 4098 3855 3520 3480 3156 2964 3155 3216 3519 3240 3772 4298 4654 4212 4862 4848 4743 4568 4584 4486 4258 3960 3746 3677 3243 3146 3384 3368 3324 3033 3013 2677 2562 2304 1954 1834 1620 1295 1146 1171 1349 1276 1178 1096 1057 1148 1203 1065
4117 3983 3843 3960 3736 3656 3947 5412 5236 5103 5366 4775 4113 3998 4371 4197 3894 3689 3518 3114 2698 2852 2926 3118 3305 3763 4465 4800 4684 4972 5012 4912 4737 4569 4576 4414 4421 4226 3924 3717 3668 3790 3865 3661 3406 2980 2781 2577 2450 2100 1877 1757 1330 1201 1258 1270 1042 1053 1036 1020 1137 1100 893
4061 3880 3756 3656 3781 3717 4244 5775 6014 5729 5633 5084 4287 4046 4351 4249 3960 3818 3778 3196 2736 2464 2924 3184 3361 3726 4464 4907 4991 5225 5310 5252 5073 4771 4592 4741 4859 4662 4457 4300 4272 4298 4223 3922 3550 3254 3061 2830 2601 2247 2029 1833 1194 1215 1486 1256 816 974 1104 705 949 789 718
777 2884 3568 3444 3878 4095 4688 5354 6101 5884 5866 5338 4571 4289 4284 4377 4250 3942 4074 3651 3328 2835 3146 3496 3614 3871 4548 5010 5232 5520 5555 5537 5437 5111 5099 5186 5209 5044 4799 4689 4720 4472 4320 4242 3848 3586 3389 2884 2852 2217 2047 1596 1329 1480 1669 956 813 737 756 587 828 425 366
150 562 2249 3534 3731 3764 4207 4809 5672 5673 5587 5509 4929 4698 4473 4696 4548 4309 3613 3972 3424 3376 3525 3982 4152 4105 4700 5226 5624 5813 5877 5944 5877 5581 5410 5513 5538 5438 5176 5018 4974 4677 4251 4332 4094 3749 3656 3608 2946 2404 2229 2026 1851 1615 1368 1254 1270 1211 1018 705 652 646 723
59 1075 2989 3627 3866 3273 4088 4413 5143 5332 5574 5429 5338 5065 4884 5030 4823 4552 3920 4259 3882 3463 4006 4437 4438 4262 4757 5422 5947 6112 6137 6104 6132 5985 5738 5716 5653 5608 5386 5241 5084 4773 4488 4391 4361 4013 3797 3555 3293 2522 2274 2086 1978 1802 1672 1634 1659 1607 1484 905 533 537 574
77 660 1754 3103 3883 3833 4180 3920 4585 5191 5060 5119 5169 5110 5069 5206 4975 4724 4422 4733 4546 3900 4282 4853 4789 4650 4969 5711 6136 6292 6357 6306 6224 5934 5747 5608 5594 5452 5306 5163 4817 4564 4298 4123 4224 4172 3870 3984 3215 2593 2300 2101 2027 1873 1752 1739 1749 1837 1556 864 672 589 445
124 90 341 3079 3990 4153 4145 4167 4681 5147 5508 5483 5381 4815 4848 4949 4958 4924 4846 5155 5074 4409 4569 5317 5154 5134 5268 5891 6219 6469 6396 6299 6026 5785 5605 5546 5425 5137 5014 4897 4666 4436 4291 4145 4150 4022 3739 3516 3283 2637 2324 2085 1922 1821 1745 1737 1745 1702 1488 706 620 757 550
1136 456 272 1051 4395 4179 4563 4809 5318 5790 5920 5699 5172 5119 5236 5304 5240 5358 5219 5477 5187 4753 5456 5640 5453 5529 5481 5830 6235 6470 6360 6137 5947 5792 5583 5423 5229 5011 4851 4815 4660 4366 4230 4062 3961 3873 3742 3296 2853 2522 2370 2183 1971 1854 1754 1710 1756 1584 1443 975 979 690 553
2 45 363 411 1719 5019 5254 5091 5374 5692 6035 5482 5337 4778 4943 5200 4823 4644 5263 5639 5233 5227 5836 5884 5777 5672 5692 5846 6276 6408 6223 6000 5840 5669 5371 5220 5097 5000 4885 4676 4384 4306 4094 3749 3535 3295 3689 2914 2636 2460 2324 2171 2174 2020 1882 1563 1398 1298 1314 1247 956 779 752
0 0 14 232 344 2666 5433 5385 5539 5631 6353 5859 5140 4908 4785 4678 4772 5049 5476 5631 5217 5811 5864 6012 5990 5924 5931 6036 6345 6314 6051 5767 5435 5312 5221 5064 4914 4817 4634 4374 4241 4161 3915 3505 3129 2830 3212 2892 2563 2402 2321 2217 2086 1938 1786 1569 1238 1409 1416 1332 958 880 776
0 0 0 0 84 213 4577 5538 5387 5523 6269 5925 5337 5132 5505 5402 5276 5443 5806 5593 5367 5861 5807 6074 6119 6167 6291 6350 6352 6077 5722 5382 5094 5166 4734 4674 4586 4458 4253 4004 4004 4082 3754 3449 2904 2806 2599 2531 2464 2358 2237 2078 1894 1832 1738 1650 1543 1460 1291 1266 1214 1046 910
0 0 0 0 0 119 4095 5341 5263 5708 6038 5938 5726 5641 5856 5656 5610 5738 5963 5940 5599 5652 5603 6059 6323 6311 6165 6143 6071 5799 5423 5080 4793 4990 4566 4340 4294 3843 3839 3692 3667 3433 3181 2920 2908 2652 2287 2220 2243 2215 2042 1837 1693 1662 1629 1586 1475 1337 1261 1161 1093 948 796
39 6 0 0 0 108 4640 5547 5332 5966 6058 5839 5834 5840 6007 5849 5858 5740 5945 5932 5503 5545 5740 5847 6212 6168 6069 5715 5625 5281 4935 4759 4551 4313 4134 4178 3946 3817 3672 3374 3079 3061 2859 2636 2319 2161 2017 1914 1856 1853 1662 1304 1344 1507 1455 1349 1298 1226 1118 992 926 796 702
1420 738 516 76 1097 5318 6078 5884 5691 5847 5774 5634 5902 5975 5937 5817 5763 6017 5860 5902 5904 5741 5766 6049 6184 6070 5826 5421 4995 4948 4780 4687 4467 4051 3920 3816 3833 3470 3149 2904 2921 2702 2332 2183 1961 1762 1718 1644 1569 1338 1094 1008 1073 1241 1158 1060 958 878 810 777 746 678 650
2109 1893 630 592 4356 5231 5312 5028 6052 5887 5800 5948 6023 5843 5770 5921 6014 6158 6040 5962 5906 5752 5662 5959 5896 5738 5568 5092 4808 4654 4471 4215 4125 3827 3571 3624 3501 3187 3089 2878 2618 2236 2127 1952 1822 1718 1455 1336 1262 1231 1121 1039 1005 1042 994 743 590 573 497 500 532 570 612
2156 3564 4237 4757 5038 4690 4430 5345 5608 5465 5344 4853 5075 5297 5651 6010 6072 6064 5865 5766 5646 5606 5765 5600 5543 5381 5056 4670 4402 4080 4041 4105 3956 3550 3428 3432 3159 2973 2955 2706 2309 2042 1834 1718 1597 1593 1438 1121 1089 1004 864 744 638 640 991 1617 824 1170 569 544 485 458 453
4740 4521 3968 3940 4299 4124 4398 5612 5460 4792 4688 4512 5188 5265 5517 5974 5782 5523 5346 5504 5436 5402 5208 5130 4943 4592 4159 3873 3961 3888 3681 3584 3440 3291 3316 3192 3076 2851 2606 2225 2043 1892 1691 1588 1519 1465 1350 1230 996 800 627 772 935 1591 1486 1428 752 924 665 483 463 402 350
4498 4198 3966 3912 3784 4411 4836 4783 5009 4861 4928 5041 5123 5336 5460 5467 5109 4905 5302 5222 4907 4577 4717 4512 4238 3913 3700 3588 3543 3384 3295 3286 3171 3012 3068 3032 2856 2543 2365 2234 1971 1680 1461 1365 1412 1360 1307 1251 1033 1069 1093 1287 1467 1259 1262 1130 630 708 534 540 88 79 246
3951 3718 3732 3862 4074 4470 4442 4486 4600 4668 4628 4902 5359 5348 5230 5224 5273 4883 4779 4612 4320 4314 4177 4063 3857 3629 3486 3280 3159 3125 2995 2865 2773 2767 2802 2785 2494 2259 2074 1788 1675 1444 1310 1378 1301 1388 1312 1364 1083 1095 1249 1534 1391 1325 1196 1002 776 924 755 396 138 380 504
2686 3754 4090 4339 4626 4476 4451 4482 4290 4187 4400 4898 5176 4965 4558 4385 4306 4139 4276 4138 3912 3783 3794 3560 3506 3329 3234 3104 2836 2598 2510 2602 2530 2381 2243 2159 2217 2056 1826 1613 1619 1556 1394 1328 1331 1374 1461 1264 1220 1412 1330 1363 1295 1293 1100 1172 738 798 875 859 828 805 820
2444 2891 3213 4105 4111 4215 4101 4344 4316 4548 4680 4498 4452 4298 4174 3964 3685 3768 3759 3375 3167 3340 3284 3190 3126 3054 2809 2601 2543 2464 2298 2091 2093 2038 1932 1913 1877 1667 1589 1453 1408 1568 1600 1501 1520 1560 1565 1422 1414 1530 1321 1229 1252 1398 1109 952 931 812 836 829 831 835 879
2143 1771 2284 2749 2818 3300 4140 4010 3697 3688 3811 3717 3865 3703 3634 3594 3322 2913 3162 3266 3099 3013 2839 2714 2529 2506 2086 1900 1944 1964 1922 1990 1902 1716 1692 1340 1593 1542 1506 1346 1506 1660 1306 1195 1246 1286 1386 1490 1531 1364 1188 1301 1561 1506 1154 1059 1157 985 618 504 514 569 607
1854 2064 2193 1961 2204 2290 2752 2668 3000 3076 3109 3055 2899 3005 3210 3167 3022 3032 2971 3000 2895 2731 2558 2485 2332 2148 2000 2009 1816 1699 1648 1671 1448 1546 1302 1259 1431 1456 1417 1172 1150 1198 1171 1130 1066 1090 1079 1096 1530 1376 939 1452 1620 1320 1260 1206 1397 988 846 625 192 0 4
1382 1611 1491 1701 1783 1692 1924 2959 3254 3296 3256 3281 3187 3110 2974 3074 3095 3202 2907 2803 2776 2682 2671 2561 2322 1988 1872 1678 1554 1429 1258 1107 1291 1623 1871 1289 1302 1341 1318 1150 1102 1138 1073 1027 1004 950 948 906 901 799 996 1747 860 799 978 1018 788 678 632 527 381 409 25
993 1238 1390 1591 1884 2001 2540 2847 3356 3332 3338 3305 3221 3226 3284 3010 3113 3471 3177 3238 3182 2990 2945 2684 2372 2078 1605 1426 1394 1436 1469 1337 1752 1694 1663 1342 1142 1267 1267 1123 996 1037 1035 986 936 889 880 820 745 716 757 819 591 443 700 801 753 713 626 543 513 456 169

ECMWFFLT1_con_mucape_033.txt.gz
CAPE
107 20 234 320 513 951 1006 1083 1253 1147 1036 1254 1338 1296 1465 1599 1830 2376 2781 3014 3009 2895 2813 2818 2828 2852 2742 2618 2572 2671 2818 2923 2941 2871 2566 2560 2457 2383 2234 1865 2165 1905 1945 2063 1832 1792 1663 1388 1548 1355 1337 1472 1346 843 0 1 4 463 363 138 417 258 381
108 50 248 526 733 1014 1156 1188 1290 1287 1162 1184 1404 1385 1479 1614 1767 2226 2679 3004 3070 3001 2980 2935 2944 2886 2894 2861 2775 2788 2848 2932 2946 2875 2722 2662 2495 2394 2317 1978 2066 2039 1921 1906 1927 1864 1590 1495 1560 1397 1306 1565 1183 814 81 33 17 269 365 290 471 268 266
117 169 284 671 952 1016 1228 1274 1306 1328 1292 1267 1466 1500 1539 1650 1767 2062 2487 2923 3102 3093 3098 3061 3024 2951 2925 3017 2982 2954 2902 2946 2937 2881 2876 2807 2712 2506 2459 2288 2066 2165 2088 1858 1955 1736 1867 1581 1613 1438 1228 1465 890 449 203 242 134 264 274 342 551 320 190
302 353 331 331 808 1032 1199 1282 1313 1332 1331 1341 1490 1613 1592 1684 1760 1997 2394 2798 3070 3146 3258 3178 3108 3030 2947 3019 3095 3092 3017 2935 2939 2859 2888 2949 2868 2731 2408 2676 2232 2182 2156 2053 2005 1824 1749 1913 1640 1470 1524 1130 695 436 173 360 318 428 267 202 210 468 292
486 564 535 404 369 778 1051 1225 1263 1257 1338 1511 1564 1667 1693 1725 1760 1884 2309 2815 3003 3184 3322 3338 3191 3089 3001 3019 3147 3213 3111 2968 2929 2825 2829 2890 2960 2809 2631 2598 2462 2257 2185 2174 2048 2047 1647 1836 1621 1391 1167 953 765 609 475 362 398 480 465 272 183 260 391
582 673 670 646 598 579 810 1019 1250 1316 1295 1424 1670 1746 1745 1771 1817 1907 2166 2751 3065 3173 3336 3434 3314 3148 3076 3046 3141 3253 3192 3007 2918 2863 2770 2794 2924 2810 2799 2597 2476 2378 2240 2172 2188 2015 1790 1460 1550 1210 1072 972 883 722 576 283 383 428 568 384 205 344 187
508 655 708 692 653 593 673 890 1165 1400 1336 1482 1696 1790 1823 1783 1858 1974 2151 2538 3018 3198 3336 3491 3446 3236 3133 3108 3120 3177 3204 3078 2939 2900 2765 2728 2796 2804 2737 2693 2548 2364 2223 2168 2248 1976 1926 1570 1299 1330 1162 1019 899 737 482 241 227 422 475 577 245 244 292
292 374 537 528 479 275 558 1109 1319 1444 1481 1690 1994 2011 1926 1865 1854 1953 2141 2348 2840 3191 3326 3478 3526 3358 3176 3140 3122 3089 3160 3102 3000 2955 2810 2693 2694 2734 2676 2656 2641 2395 2282 2114 2194 1994 1849 1659 1366 1241 1067 929 783 605 407 314 276 300 313 619 446 271 354
326 351 360 422 456 357 657 1129 1452 1637 1729 1796 2009 2111 2066 1954 1919 1937 2088 2265 2586 3019 3306 3431 3546 3472 3256 3145 3122 3089 3120 3149 3110 3055 2912 2745 2639 2666 2648 2644 2611 2522 2300 2300 2058 2006 1788 1648 1482 1254 997 842 666 530 493 416 412 390 360 458 576 390 378
322 364 368 524 498 620 962 1228 1370 1567 1869 1959 2056 2125 2070 2032 1999 1974 2024 2183 2397 2745 3141 3368 3528 3570 3395 3166 3109 3095 3141 3190 3209 3150 3100 2867 2698 2664 2690 2663 2630 2599 2416 2410 2248 2061 1869 1706 1542 1401 1173 896 683 594 566 491 442 475 480 449 531 558 489
383 366 519 626 645 697 976 1320 1382 1456 1997 2139 2074 2138 2131 2106 2096 1952 1898 2015 2248 2480 2895 3230 3445 3648 3603 3367 3157 3088 3138 3237 3248 3250 3199 3074 2867 2741 2726 2720 2717 2681 2552 2447 2423 2279 2061 1865 1684 1514 1316 1088 832 702 604 552 477 489 538 526 500 545 540
539 436 641 726 704 702 884 1174 1371 1483 1928 2315 2340 2335 2271 2137 2113 2040 1992 1968 1921 2311 2614 3066 3367 3682 3770 3638 3344 3170 3156 3261 3302 3289 3248 3168 3041 2936 2783 2749 2780 2783 2733 2564 2472 2436 2297 2082 1876 1675 1465 1243 1020 822 704 609 539 494 556 581 547 527 538
623 692 698 676 751 908 1057 1393 1542 1841 2156 2461 2553 2524 2487 2342 2302 2275 2262 2220 2124 2195 2555 3002 3378 3683 3892 3796 3542 3286 3211 3261 3343 3334 3283 3193 3067 2969 2902 2750 2756 2874 2859 2787 2610 2485 2394 2245 2062 1865 1657 1445 1231 1003 796 677 547 466 533 595 594 514 410
986 800 819 730 774 947 1210 1670 1871 1932 2148 2474 2730 2759 2777 2657 2518 2497 2468 2424 2337 2167 2605 3058 3400 3708 3894 3893 3686 3416 3310 3273 3342 3376 3328 3228 3076 2912 2873 2789 2653 2832 2978 2932 2812 2626 2490 2346 2163 2001 1806 1634 1432 1235 1008 764 601 479 439 520 434 576 645
948 883 802 738 716 950 1210 1374 1606 2111 2270 2399 2607 2879 3018 2913 2711 2635 2612 2560 2478 2309 2632 3047 3387 3616 3849 3889 3715 3467 3364 3332 3366 3454 3449 3320 3144 2965 2840 2791 2697 2728 3015 3068 2977 2792 2615 2481 2345 2188 2008 1833 1664 1477 1307 1138 964 789 628 596 700 769 660
1048 950 857 642 888 1219 1381 1385 1432 1575 1722 2071 2329 2479 3009 3115 2952 2787 2728 2653 2573 2443 2509 2945 3291 3452 3645 3774 3658 3435 3352 3335 3384 3486 3548 3520 3373 3202 3070 2944 2821 2816 3113 3234 3134 2996 2816 2648 2531 2399 2253 2118 1981 1855 1710 1543 1346 1248 1190 1160 1189 1217 1148
1794 1667 1977 1972 1220 1526 1534 1462 1470 1800 2351 2655 2830 2832 2967 3208 3178 2984 2805 2721 2630 2519 2452 2849 3186 3296 3434 3592 3560 3413 3369 3405 3418 3467 3531 3594 3556 3395 3262 3175 3029 2936 3123 3383 3362 3211 3037 2878 2777 2667 2559 2460 2338 2190 2017 1881 1821 1704 1614 1608 1564 1445 1250
2569 2394 2750 2719 2082 1972 2193 2837 2673 2822 3263 3419 3252 3137 3210 3373 3336 3205 3092 2850 2730 2616 2477 2820 3070 3171 3286 3547 3619 3579 3568 3546 3536 3501 3506 3585 3648 3555 3378 3283 3241 3158 3208 3388 3484 3460 3342 3165 3014 2906 2839 2730 2626 2508 2434 2346 2212 2111 1999 1894 1707 1530 1276
2809 2729 2824 2803 2489 2295 2646 3565 3768 3472 3648 3798 3653 3443 3387 3514 3496 3396 3220 3096 2947 2767 2613 2740 2985 3057 3175 3565 3798 3863 3836 3774 3702 3624 3566 3582 3691 3715 3581 3454 3497 3540 3551 3576 3503 3465 3434 3375 3293 3187 3037 2909 2879 2813 2705 2577 2437 2310 2193 2012 1809 1673 1475
694 2322 2514 2666 2507 2560 2934 3836 4311 4200 3944 3895 3818 3583 3515 3563 3617 3486 3349 3222 3075 2927 2778 2642 2880 2976 3110 3557 3886 4026 4081 4021 3935 3857 3747 3703 3765 3927 3949 3776 3738 3894 3809 3768 3695 3570 3504 3460 3384 3294 3191 3101 3013 2898 2778 2706 2562 2408 2266 2026 1888 1668 1462
535 400 438 2496 2704 2590 2599 3007 3724 4188 4222 4082 3841 3644 3452 3547 3631 3585 3419 3302 3184 3026 2903 2747 2831 2890 3070 3536 3919 4150 4242 4242 4195 4166 4076 4002 4052 4240 4281 4127 4043 4130 4042 3870 3824 3725 3606 3503 3405 3325 3223 3119 2979 2865 2814 2696 2582 2440 2254 1968 1632 1456 1338
28 211 1183 1525 2618 2680 2503 2497 3021 3620 3936 4014 3976 3694 3517 3557 3636 3659 3535 3364 3241 3105 2952 2800 2967 2937 3073 3535 3989 4287 4416 4464 4472 4524 4469 4358 4412 4532 4519 4395 4266 4227 4116 3940 3810 3715 3587 3448 3275 3272 3181 3072 2991 2876 2796 2671 2510 2336 2177 1967 1765 1722 1381
0 0 0 751 2019 2372 2480 2508 2715 3310 3691 3903 3898 3833 3747 3684 3732 3789 3681 3618 3612 3199 3006 3324 3302 3140 3173 3597 4127 4489 4658 4698 4787 4802 4757 4638 4576 4606 4616 4529 4396 4258 4116 3985 3870 3762 3640 3495 3337 3283 3235 3150 3038 2924 2801 2684 2458 2216 2050 1924 1928 1681 1268
0 0 0 260 1987 2480 3065 3222 3151 3360 3591 3766 3892 3960 3898 3854 3890 3902 3810 3766 3841 3580 3106 3847 3774 3459 3411 3800 4355 4760 4918 4963 4973 4919 4882 4763 4658 4574 4563 4528 4414 4300 4178 4046 3932 3830 3698 3459 3197 3219 3176 3128 3026 2909 2830 2710 2513 2296 2151 1987 1809 1539 1392
0 0 0 0 702 2404 2938 3112 3299 3393 3724 3832 3979 4013 3983 3974 3995 4002 3912 3864 3966 3812 3602 4024 4135 3862 3776 4115 4707 5041 5134 5118 5048 4949 4890 4807 4682 4555 4456 4360 4288 4210 4080 3940 3809 3688 3491 3240 3124 3115 3083 3021 2892 2734 2684 2627 2533 2312 2083 1912 1679 1527 1403
389 447 560 6 0 246 2250 2979 2766 2875 3592 4033 4044 4088 4068 4042 3989 3993 3976 3956 4042 3929 3824 4095 4300 4194 4126 4535 5055 5217 5201 5144 5044 4951 4837 4708 4612 4470 4346 4204 4085 3947 3863 3765 3699 3585 3349 3101 2926 2826 2777 2732 2687 2613 2569 2481 2382 2132 1902 1756 1626 1487 1328
1451 822 2339 2805 1457 492 3 2328 3111 3480 3812 4252 4187 4120 4098 4045 3958 3947 3984 4057 4102 4026 3978 4198 4472 4471 4560 5019 5217 5241 5165 5118 5006 4864 4700 4529 4424 4282 4160 4021 3887 3791 3704 3608 3462 3239 2886 2681 2512 2447 2468 2462 2437 2374 2350 2262 2104 1925 1767 1509 1372 1194 1104
3330 3549 4529 4718 4544 4505 3866 881 1822 3557 4109 4476 4315 4148 4136 4099 4000 3946 4028 4139 4191 4131 4114 4522 4818 4852 5053 5226 5222 5157 5094 5020 4920 4744 4510 4330 4214 4074 3994 3873 3737 3601 3471 3344 3109 2795 2710 2601 2392 2254 2224 2124 2073 2003 1936 1749 1449 1366 1355 1273 1083 969 935
2728 2735 3325 3173 3298 3445 3756 4660 3461 3647 4471 4623 4483 4269 4288 4240 4137 4088 4228 4374 4372 4304 4677 5136 5185 5213 5252 5210 5108 5046 4984 4858 4707 4489 4296 4166 3990 3869 3733 3477 3239 3090 3036 2936 2829 2726 2638 2486 2242 2054 1913 1664 1498 1485 1237 993 1021 1178 1195 997 850 718 701
2896 2605 2898 3101 3162 2899 3198 3876 4414 4812 4744 4868 4714 4609 4571 4461 4383 4492 4614 4702 4551 4879 5281 5362 5312 5258 5200 5090 5005 4937 4854 4704 4540 4290 4090 3934 3741 3434 3041 2896 2829 2778 2727 2673 2562 2432 2264 2015 1833 1698 1464 1302 1147 1016 842 825 890 881 814 693 558 529 531
3435 3070 2724 2862 2821 2865 2599 2751 3249 4344 3806 4481 5037 5022 4891 4821 4692 4781 4860 4901 4989 5268 5409 5372 5225 5181 5137 5040 4952 4854 4659 4440 4274 4110 3881 3672 3086 2806 2733 2618 2482 2348 2236 2152 2090 2027 1869 1732 1570 1392 1175 993 839 891 1009 815 601 591 508 473 495 467 412
3654 3311 3193 3047 2688 2659 2602 2652 2700 2781 3156 3544 5130 5140 5037 4964 4822 4916 5067 5120 5174 5288 5353 5278 5164 5061 5040 4900 4744 4524 4291 4109 3948 3764 3501 3054 2931 2751 2669 2539 2254 2115 2010 1932 1824 1631 1437 1265 1136 959 846 734 756 909 902 760 697 540 501 526 486 412 236
2588 3101 2806 2804 2619 2641 2882 2515 2359 2239 2990 3979 4406 5182 5316 5149 4906 4997 5084 5092 5114 5216 5242 5171 5075 4922 4758 4516 4314 4166 4019 3866 3727 3394 3143 3027 2854 2657 2384 2083 2022 1964 1784 1544 1186 921 900 860 826 705 603 923 1033 958 870 780 648 620 589 517 516 510 0
2009 2035 2009 2098 2326 2608 2708 2534 2551 3013 3296 3480 4098 4921 5127 4881 4692 4522 4950 5049 4988 5038 5071 4964 4734 4524 4289 4230 4053 3922 3803 3620 3272 3044 2886 2608 2522 2273 2138 2029 1885 1674 1445 1130 954 897 926 869 746 730 856 1173 1136 1005 922 833 760 653 721 678 596 489 0
2138 2198 2103 1998 2238 2423 2636 2249 3098 3399 3220 3188 3578 4195 4399 4246 4026 4062 4273 4523 4650 4609 4585 4507 4016 4027 3836 3755 3542 3269 3186 3082 2941 2717 2505 2332 2237 2057 1927 1756 1576 1348 1114 816 890 1034 1040 1012 917 941 1045 1142 1075 993 893 859 779 808 753 696 559 557 23
2092 1973 2202 2220 2258 2559 2292 2328 3118 3069 2846 3187 3481 3534 3589 3596 3537 3345 3857 3958 3847 3909 3501 3795 3675 3265 3143 3162 3166 2977 2882 2713 2525 2322 2267 2164 2084 1910 1665 1334 1179 1066 919 921 1060 1161 1192 1262 1252 1211 1121 1072 1040 967 818 854 907 715 737 783 700 433 231
1303 1497 1863 2169 2230 2507 2236 2313 2854 3062 3270 3211 2873 2892 2853 3215 3334 2936 2895 2934 3130 3233 3408 3058 2523 2400 2622 2638 2561 2348 2154 2111 2136 2121 2068 1927 1782 1612 1316 1177 1083 1055 947 1028 1139 1230 1238 1201 1205 1124 1074 1024 1008 975 980 854 826 782 678 714 744 784 786
1100 1105 1140 1143 1460 1806 1752 1740 2122 1917 1974 2006 2114 1983 2090 2064 2077 1695 2053 1734 1667 1660 1975 2249 1873 1706 1818 1866 1865 1805 1732 1725 1702 1664 1630 1507 1387 1277 1104 1114 1138 1132 1048 1039 1096 1168 1173 1178 1130 1065 969 1056 1064 1037 884 908 852 815 740 592 375 0 0

ECMWFFLT1_con_mucape_036.txt.gz
CAPE
82 72 43 14 20 68 208 334 319 298 322 458 496 457 596 881 1238 1549 1687 1656 1666 1753 1904 1830 1701 1853 1973 1963 1936 1884 1807 1722 1689 1784 1918 1901 1684 1491 1613 1623 1692 1975 1994 2104 2313 2310 2018 1888 1765 1522 1364 1103 991 895 781 664 496 20 19 22 5 2 1
93 157 133 92 78 56 100 285 355 341 330 475 543 649 654 804 1043 1410 1678 1739 1721 1722 1933 2030 1925 1752 1822 1906 1927 1935 1870 1816 1837 1910 1943 1922 1876 1623 1565 1620 1613 1768 1785 1798 1917 1952 1806 1762 1674 1516 1368 1096 1051 996 833 601 170 22 20 18 14 20 4
117 142 339 360 345 155 110 177 359 400 366 478 617 686 715 840 984 1267 1604 1803 1793 1749 1843 2077 2134 1945 1791 1783 1845 1940 1965 1936 1964 2050 2074 2005 1972 1936 1775 1659 1636 1680 1652 1700 1675 1701 1725 1726 1643 1452 1320 1127 1076 1005 886 676 336 59 29 19 43 38 24
318 179 387 401 378 250 202 194 336 426 417 501 694 768 789 902 1022 1218 1548 1850 1908 1859 1857 2012 2190 2171 2002 1834 1777 1816 1958 2027 2063 2148 2192 2126 2062 2057 1987 1836 1703 1743 1720 1689 1646 1579 1632 1629 1562 1395 1329 1180 1146 1050 843 831 473 245 64 30 43 25 42
292 316 322 372 430 412 409 307 369 470 582 605 756 843 854 928 1075 1265 1550 1899 2038 2022 1990 2032 2161 2246 2210 2063 1899 1820 1875 2024 2136 2216 2267 2230 2150 2127 2106 2023 1885 1844 1826 1727 1656 1506 1566 1540 1477 1381 1333 1226 1200 1045 812 808 625 262 70 49 55 50 25
48 281 312 350 391 473 485 504 528 566 657 672 790 908 915 990 1119 1318 1602 1986 2162 2190 2148 2134 2183 2276 2281 2231 2138 2046 1963 2000 2140 2263 2314 2314 2250 2194 2153 2160 2080 2008 1935 1803 1610 1493 1485 1405 1380 1368 1305 1248 1208 1074 951 848 701 444 47 36 50 92 37
36 124 350 386 375 467 526 565 577 645 732 740 802 946 1025 1058 1179 1358 1654 2003 2242 2332 2325 2311 2307 2321 2336 2318 2292 2255 2184 2133 2168 2283 2343 2371 2316 2263 2193 2142 2115 2039 1938 1761 1619 1572 1545 1456 1388 1369 1316 1295 1217 1068 964 918 872 556 31 24 20 62 82
38 51 62 106 378 402 476 581 722 768 844 868 848 998 1079 1116 1235 1382 1647 1994 2324 2434 2461 2485 2469 2460 2437 2408 2402 2393 2368 2318 2267 2305 2357 2387 2405 2358 2258 2137 2113 2003 1837 1722 1623 1637 1616 1597 1501 1430 1380 1361 1286 1140 1028 898 777 434 42 38 10 17 78
32 69 87 91 154 268 384 606 777 876 952 1015 1022 1115 1176 1198 1302 1401 1612 1935 2313 2504 2586 2617 2629 2602 2566 2514 2480 2488 2513 2487 2429 2385 2397 2396 2422 2441 2367 2227 2142 2061 1859 1803 1752 1673 1631 1619 1625 1553 1499 1446 1370 1246 948 751 624 456 224 218 78 9 39
35 84 125 156 167 213 340 629 781 923 1027 1095 1139 1206 1265 1294 1353 1430 1578 1859 2230 2494 2643 2730 2761 2731 2685 2629 2577 2562 2586 2609 2569 2502 2460 2425 2411 2434 2444 2360 2237 2182 2060 1893 1850 1808 1745 1650 1619 1618 1581 1509 1443 1351 1174 966 798 658 536 505 194 34 35
138 218 283 230 185 191 311 610 795 986 1080 1144 1224 1290 1366 1396 1422 1465 1552 1769 2134 2381 2615 2781 2856 2847 2783 2723 2670 2620 2630 2661 2654 2592 2534 2476 2410 2378 2415 2423 2382 2292 2225 2101 1977 1942 1900 1820 1770 1693 1596 1562 1495 1407 1286 1117 941 810 683 613 326 117 73
252 351 426 434 238 204 472 513 765 985 1114 1176 1247 1371 1445 1478 1500 1522 1560 1699 1998 2303 2558 2753 2894 2934 2866 2812 2752 2717 2687 2694 2698 2664 2611 2541 2439 2365 2342 2377 2392 2395 2356 2257 2154 2080 2024 1968 1901 1816 1668 1541 1512 1443 1313 1180 1028 920 802 686 515 177 154
338 434 461 504 418 203 463 453 629 878 1130 1205 1236 1399 1527 1528 1529 1556 1597 1666 1842 2187 2525 2722 2886 2982 2962 2883 2830 2787 2745 2715 2714 2710 2679 2594 2495 2387 2291 2286 2322 2352 2391 2363 2271 2162 2119 2071 2005 1898 1803 1705 1581 1415 1282 1175 1066 975 852 687 492 181 216
340 422 447 457 455 238 342 513 719 896 1069 1207 1297 1442 1538 1586 1590 1591 1631 1705 1803 2045 2427 2681 2854 3000 3022 2971 2908 2847 2792 2751 2725 2715 2695 2635 2557 2453 2309 2250 2268 2304 2348 2367 2347 2273 2175 2135 2082 2010 1914 1834 1723 1619 1466 1332 1197 1056 907 732 540 298 349
178 172 288 336 390 463 490 546 749 942 1124 1247 1334 1478 1614 1665 1681 1691 1708 1747 1828 1946 2256 2580 2804 2973 3056 3047 2984 2909 2845 2806 2759 2728 2702 2660 2598 2516 2402 2283 2263 2284 2313 2341 2338 2314 2260 2166 2101 2048 2007 1929 1848 1752 1651 1530 1400 1269 1104 918 750 599 585
107 200 258 302 354 426 500 609 749 873 1077 1366 1490 1540 1699 1806 1821 1781 1750 1760 1830 1939 2112 2407 2715 2909 3049 3098 3065 2985 2909 2854 2804 2769 2731 2702 2643 2588 2497 2387 2317 2311 2329 2346 2366 2351 2319 2281 2216 2145 2084 2038 1965 1891 1818 1723 1604 1473 1331 1192 1047 945 1184
183 203 310 333 381 430 487 600 791 914 1045 1338 1646 1735 1804 1881 1921 1926 1896 1856 1859 1933 2045 2244 2563 2826 3003 3104 3119 3080 3000 2917 2854 2801 2783 2743 2716 2674 2606 2535 2448 2378 2362 2391 2416 2429 2408 2371 2339 2303 2242 2182 2116 2059 2005 1938 1821 1722 1608 1497 1457 1562 1484
306 320 403 388 455 537 602 664 835 1045 1196 1381 1705 1891 1937 2011 2024 2022 2031 1997 1953 1948 1993 2146 2397 2677 2893 3043 3129 3157 3112 3016 2920 2846 2821 2795 2770 2739 2704 2637 2570 2505 2444 2444 2492 2535 2535 2490 2448 2428 2400 2366 2320 2257 2194 2116 2027 1944 1843 1785 2065 2232 2127
464 478 463 580 596 628 728 845 996 1146 1314 1452 1695 1964 2124 2178 2154 2127 2116 2087 2065 1996 1962 1999 2295 2530 2772 2965 3113 3212 3188 3126 3025 2937 2871 2839 2815 2790 2764 2724 2640 2595 2558 2519 2529 2615 2639 2644 2593 2567 2526 2499 2463 2438 2391 2342 2282 2207 2191 2366 2518 2539 2413
846 708 713 704 700 714 852 999 1112 1266 1334 1446 1609 1890 2163 2315 2354 2329 2248 2183 2137 2096 2126 2209 2210 2456 2689 2896 3078 3215 3237 3192 3106 3029 2962 2899 2856 2850 2829 2778 2719 2645 2602 2593 2573 2609 2712 2748 2732 2701 2677 2655 2608 2588 2547 2524 2499 2615 2684 2746 2800 2752 2586
1020 921 968 906 776 818 849 987 1148 1333 1421 1431 1488 1692 2030 2364 2474 2510 2450 2367 2284 2261 2293 2310 2320 2425 2650 2847 3065 3193 3246 3229 3179 3119 3050 2978 2933 2913 2902 2859 2792 2720 2665 2622 2608 2658 2792 2853 2876 2868 2837 2821 2794 2769 2746 2801 2966 3041 3020 3006 3016 2862 2639
1272 1111 1000 1018 980 898 889 979 1097 1200 1353 1473 1629 1756 1895 2284 2591 2679 2640 2559 2496 2438 2407 2404 2390 2415 2621 2815 3015 3158 3216 3229 3212 3176 3105 3042 2992 2975 2991 2971 2916 2858 2802 2719 2680 2774 2880 2946 2972 2997 2992 3000 2984 2982 3083 3264 3349 3318 3270 3221 3137 2896 2642
375 1212 1334 1470 1674 1688 1362 1110 1177 1312 1328 1463 1714 1905 1995 2114 2455 2763 2821 2741 2675 2624 2502 2451 2431 2462 2582 2763 2936 3102 3193 3216 3203 3184 3151 3085 3025 3004 3047 3070 3066 3024 2978 2956 2941 2960 3000 3088 3136 3161 3189 3195 3248 3359 3485 3562 3555 3479 3384 3303 3102 2795 2571
902 0 40 216 1335 1763 1984 1963 1856 2036 2299 2057 1990 2139 2216 2202 2303 2530 2776 2866 2839 2734 2590 2447 2471 2492 2510 2691 2836 3024 3140 3197 3200 3189 3184 3130 3064 3031 3062 3131 3172 3164 3148 3192 3219 3210 3203 3225 3290 3383 3430 3490 3543 3598 3657 3680 3570 3462 3321 3196 3070 2848 2574
2112 2117 1693 564 35 818 1681 2038 2109 2123 2459 2842 2913 2791 2725 2705 2645 2719 2770 2789 2825 2811 2726 2607 2559 2553 2569 2609 2731 2911 3127 3255 3275 3240 3219 3192 3130 3084 3128 3244 3339 3353 3374 3386 3402 3439 3423 3413 3449 3493 3527 3602 3681 3775 3765 3662 3568 3482 3331 3192 3049 2851 2586
1715 1984 2721 3018 2503 822 766 1688 2232 2197 2248 2634 3042 3246 3306 3125 2994 2968 2975 2961 2931 2883 2858 2831 2738 2650 2606 2613 2653 2878 3149 3346 3402 3384 3350 3319 3265 3245 3314 3437 3519 3564 3587 3588 3598 3637 3657 3677 3695 3738 3788 3830 3832 3737 3644 3575 3490 3383 3225 3120 2926 2663 2445
1921 2170 2304 2394 2399 2820 1708 930 2042 2313 2399 2373 2717 3189 3510 3494 3234 3120 3127 3134 3071 3017 3014 2993 2927 2807 2738 2711 2705 2819 3206 3455 3548 3568 3558 3524 3498 3498 3555 3625 3679 3748 3789 3792 3793 3779 3815 3847 3872 3861 3836 3803 3718 3566 3450 3419 3324 3134 2898 2739 2589 2389 2180
2132 2158 2177 2325 2290 2302 2776 3164 2570 1490 2192 2528 2616 2912 3308 3536 3463 3280 3214 3196 3178 3189 3204 3128 3005 2920 2837 2775 2758 2921 3328 3602 3723 3756 3795 3784 3735 3707 3730 3783 3820 3881 3946 3969 3969 3959 3958 3922 3884 3846 3802 3731 3627 3500 3351 3169 2976 2782 2621 2522 2253 1995 1893
2728 2318 2408 2358 2411 2624 2454 2752 3221 3152 2937 3118 2674 2832 3196 3424 3568 3528 3328 3181 3196 3276 3272 3201 3105 2983 2897 2841 2803 3118 3553 3830 3913 3950 3996 3986 3927 3872 3896 3950 4014 4065 4074 4084 4086 4107 4095 4055 4007 3919 3839 3726 3532 3296 3103 2965 2738 2537 2354 2085 1881 1709 1568
3011 2676 2547 2664 2581 2594 2612 2654 2854 3126 3505 3332 3371 3460 3516 3471 3551 3562 3563 3433 3318 3243 3194 3203 3159 3068 2970 2929 3030 3550 3846 4038 4087 4128 4122 4099 4050 3995 4002 4098 4181 4232 4235 4222 4254 4249 4246 4161 4049 3883 3750 3558 3292 2992 2518 2349 2269 2080 1926 1772 1600 1461 1327
2028 2632 2721 2564 2765 2782 2722 2626 2626 2814 3132 3430 3528 3565 3757 3725 3733 3732 3706 3542 3407 3358 3344 3290 3353 3388 3381 3406 3658 3949 4184 4210 4202 4205 4194 4187 4162 4139 4115 4183 4259 4312 4286 4328 4312 4292 4241 4033 3838 3627 3388 3151 2669 2154 2078 1957 1688 1541 1428 1248 1059 1052 1028
1678 1862 2635 2977 2772 2774 2854 2790 2584 2576 2754 2930 3294 3674 3740 3871 3839 3888 3801 3783 3690 3627 3610 3624 3744 3736 3778 3856 3993 4113 4234 4298 4314 4290 4271 4278 4255 4210 4189 4245 4294 4330 4308 4269 4199 4067 3949 3766 3425 3204 2863 2384 2140 1990 1801 1544 1249 1114 950 905 982 965 808
1806 1834 1856 2009 2121 2483 2756 2819 2700 2598 2207 2439 2866 3122 3484 3621 3756 3740 3636 3871 4237 4053 4104 4111 4033 4092 4093 4061 4063 4120 4170 4225 4250 4285 4320 4331 4319 4296 4292 4287 4291 4292 4227 4037 3910 3751 3557 3395 3139 2653 2324 2162 1934 1748 1490 1231 940 656 664 645 544 422 297
1791 1954 2083 2042 2070 1978 2216 2544 2511 2516 2607 2686 2678 2973 3421 3477 3384 3222 3217 3443 3894 4187 4068 3821 3936 3753 3907 4084 4027 4090 4134 4110 4190 4244 4321 4323 4324 4371 4360 4322 4208 4114 4006 3807 3630 3348 3023 2737 2478 2289 2021 1694 1514 1286 1031 749 472 418 452 408 436 456 190
1682 1868 1978 2038 2160 2190 2102 2258 2289 2232 2170 2156 2458 3096 3479 3910 4158 3994 3884 3964 4105 4222 4074 3918 3689 3804 3714 3881 4062 3998 3987 4074 4025 4125 4215 4323 4404 4352 4058 3991 3940 3727 3628 3282 2770 2653 2495 2194 1997 1828 1648 1404 1208 979 699 464 418 488 503 539 482 321 0
1370 1608 1788 1950 1950 2083 2190 2170 2102 2100 2045 2226 2441 2789 3105 3187 3734 4381 4480 4426 4408 4059 4007 3994 3833 3735 3722 3737 3530 3587 3641 3971 3877 4030 4221 4251 4238 4070 3802 3718 3454 2766 2434 2234 2032 1864 1731 1669 1642 1511 1263 1048 876 622 419 475 684 631 556 481 421 527 542
1136 1352 1596 1646 1721 1802 1943 2084 2098 2019 1958 2004 1978 2005 2040 2010 2046 2597 3293 3887 3845 3986 4004 3619 3564 3572 3228 2428 2414 2852 3064 3450 3691 3379 3290 3173 3358 3460 3378 2109 2130 2075 1851 1615 1384 1158 944 924 958 921 823 628 592 535 534 707 720 611 616 643 661 654 524
1257 1246 1229 1172 1129 1103 1088 1314 1429 1720 2052 1976 1838 1700 1575 1540 1578 1645 2204 2742 3182 3345 3408 3363 3198 2479 1922 1721 1609 2124 2298 2423 2372 2112 2146 2248 2674 2475 1915 1974 1779 1540 1281 1061 840 758 723 714 707 624 678 714 606 786 798 733 759 779 759 715 662 554 242

ECMWFFLT1_con_mucape_042.txt.gz
CAPE
0 0 12 25 300 161 214 171 88 55 70 112 156 153 209 366 615 736 825 884 946 985 1027 1080 1156 1240 1294 1329 1346 1364 1396 1384 1328 1301 1248 1214 1204 1212 1240 1290 1351 1400 1471 1705 1890 2012 2114 2098 2110 2144 2156 2175 2184 2254 2298 2398 2472 2480 2449 1754 546 474 440
0 0 0 0 3 24 92 126 60 26 22 48 85 136 169 272 452 645 767 856 932 970 986 1036 1173 1222 1295 1332 1333 1355 1387 1411 1392 1378 1319 1271 1245 1229 1213 1238 1262 1316 1367 1566 1757 1911 2011 2044 2072 2085 2102 2116 2148 2215 2312 2463 2555 2493 2380 1757 654 375 55
0 0 0 0 0 3 23 35 32 20 10 13 39 73 146 236 352 520 676 796 887 955 978 1005 1131 1210 1284 1326 1337 1350 1367 1397 1410 1391 1369 1341 1315 1290 1258 1226 1228 1236 1272 1416 1652 1803 1950 1986 2045 2065 2076 2067 2102 2202 2357 2526 2587 2499 2290 1712 817 361 387
0 0 0 0 0 0 0 11 31 19 8 4 12 41 77 177 269 422 554 696 798 887 954 998 1050 1171 1266 1337 1352 1365 1374 1378 1391 1391 1394 1370 1350 1326 1309 1275 1252 1228 1225 1358 1614 1759 1912 1942 2013 2060 2084 2058 2057 2162 2337 2482 2550 2481 2269 1781 1019 466 455
0 0 0 0 0 0 0 0 8 18 17 8 7 42 52 86 181 336 470 589 694 792 894 986 1030 1136 1269 1316 1367 1390 1398 1403 1398 1389 1379 1382 1359 1353 1329 1320 1293 1269 1251 1317 1598 1798 1873 1905 1960 2011 2046 2041 2058 2079 2207 2347 2490 2444 2267 1889 1260 646 575
0 0 0 0 0 0 0 0 0 4 10 8 6 15 33 39 89 242 414 570 623 697 799 901 990 1183 1267 1322 1377 1398 1407 1412 1410 1406 1392 1369 1385 1368 1358 1334 1313 1290 1277 1276 1530 1735 1798 1862 1907 1935 1966 1982 1995 2016 2114 2250 2396 2352 2206 1912 1472 892 690
0 0 0 0 0 0 0 0 0 0 2 6 4 7 25 43 92 176 333 492 613 666 728 828 933 1066 1285 1322 1379 1466 1424 1432 1426 1432 1413 1408 1394 1400 1378 1366 1354 1327 1309 1273 1376 1608 1726 1828 1872 1892 1873 1870 1873 1915 2035 2164 2279 2209 2054 1833 1564 1156 867
0 0 0 0 0 0 0 0 0 0 0 3 2 1 13 64 100 132 277 448 588 662 713 792 878 996 1219 1364 1386 1438 1474 1464 1458 1453 1441 1431 1429 1416 1424 1418 1412 1396 1345 1281 1268 1420 1616 1735 1813 1825 1822 1792 1792 1824 1935 2051 2129 2038 1878 1715 1510 1230 1000
0 0 0 0 0 0 0 0 0 0 0 0 4 13 13 48 112 179 261 398 565 689 750 793 877 956 1168 1325 1399 1440 1491 1504 1503 1494 1494 1478 1463 1464 1459 1469 1475 1445 1394 1315 1233 1317 1455 1587 1681 1730 1738 1729 1729 1776 1830 1931 1986 1923 1756 1573 1409 1235 1067
0 0 0 0 0 0 0 0 0 0 0 0 6 21 28 63 135 204 266 368 539 710 797 835 896 971 1096 1258 1401 1433 1481 1518 1533 1539 1540 1529 1520 1505 1494 1490 1489 1490 1455 1385 1300 1280 1356 1437 1525 1595 1629 1653 1679 1703 1749 1820 1869 1837 1710 1559 1420 1280 1144
0 0 0 0 0 0 0 0 0 0 0 0 3 14 30 54 125 197 283 387 544 706 820 882 990 1042 1098 1186 1318 1426 1527 1541 1557 1573 1577 1580 1571 1558 1538 1526 1511 1506 1512 1477 1415 1347 1337 1392 1441 1495 1540 1587 1631 1655 1703 1753 1789 1773 1714 1594 1468 1342 1229
0 0 0 0 0 0 0 0 0 0 0 0 0 11 38 77 132 188 273 405 563 710 835 949 1015 1099 1184 1218 1275 1384 1494 1562 1589 1605 1620 1625 1620 1611 1597 1576 1552 1529 1526 1525 1517 1486 1432 1428 1455 1473 1508 1547 1578 1604 1633 1675 1703 1728 1707 1644 1518 1388 1286
0 0 0 0 0 0 0 0 0 0 0 0 0 3 47 74 132 199 289 388 518 677 870 1048 1110 1212 1256 1347 1355 1432 1448 1534 1598 1627 1650 1667 1672 1661 1652 1644 1634 1602 1583 1562 1568 1545 1515 1494 1484 1483 1484 1509 1525 1541 1568 1618 1641 1659 1666 1655 1606 1462 1314
0 0 0 0 0 0 0 0 0 0 0 0 0 2 37 90 144 233 318 387 486 632 846 1068 1231 1265 1332 1438 1506 1542 1548 1516 1552 1610 1650 1682 1710 1718 1713 1710 1695 1686 1659 1634 1602 1578 1542 1521 1496 1495 1482 1486 1494 1509 1534 1567 1584 1605 1632 1673 1651 1537 1388
0 0 0 0 0 0 0 0 0 14 23 21 15 12 35 95 172 272 378 439 499 616 826 1096 1258 1346 1406 1490 1587 1650 1674 1655 1626 1577 1628 1671 1717 1750 1766 1761 1762 1754 1736 1710 1694 1662 1631 1580 1537 1516 1512 1518 1521 1519 1524 1536 1556 1588 1664 1717 1672 1551 1439
0 0 0 0 0 0 0 0 0 12 46 75 60 61 68 128 237 326 446 513 577 675 810 1050 1274 1405 1460 1529 1616 1686 1733 1791 1795 1771 1649 1662 1698 1748 1778 1789 1804 1817 1810 1800 1774 1758 1723 1673 1638 1613 1590 1579 1574 1566 1561 1570 1613 1671 1736 1740 1662 1546 1451
0 0 0 0 0 0 0 0 0 13 56 115 147 162 176 228 296 403 483 572 656 767 887 1092 1303 1432 1513 1596 1654 1686 1760 1836 1904 1915 1881 1851 1818 1744 1763 1795 1831 1898 1868 1859 1845 1824 1800 1763 1747 1723 1683 1653 1633 1625 1642 1664 1700 1744 1766 1762 1690 1580 1477
0 0 0 0 0 0 0 0 0 0 36 123 216 258 300 365 413 491 558 652 732 822 958 1160 1334 1458 1564 1644 1692 1734 1806 1884 1958 2009 2030 1994 1967 1925 1900 1914 1936 1951 1927 1904 1895 1883 1862 1854 1834 1803 1760 1733 1720 1696 1672 1675 1717 1748 1750 1744 1691 1611 1549
0 0 0 0 0 0 0 0 0 0 19 138 252 397 460 508 507 609 691 773 850 950 1079 1268 1422 1531 1642 1712 1775 1840 1884 1943 2012 2072 2110 2112 2095 2061 2027 2018 1999 1993 1927 1940 1942 1940 1924 1915 1904 1878 1836 1795 1769 1754 1733 1712 1734 1741 1738 1711 1694 1654 1615
0 0 0 0 0 0 0 0 0 0 35 202 335 403 550 584 619 736 804 903 959 1009 1158 1354 1500 1628 1732 1818 1881 1959 2009 2048 2084 2133 2165 2186 2184 2179 2178 2137 2108 2012 1989 1980 1971 1974 1980 1976 1974 1953 1922 1891 1853 1814 1762 1764 1767 1758 1735 1716 1703 1682 1656
0 0 0 0 0 0 0 0 1 10 32 120 288 427 548 642 742 899 956 1012 1052 1097 1223 1380 1560 1702 1822 1924 2002 2079 2152 2188 2203 2221 2239 2253 2268 2285 2296 2271 2166 2124 2088 2047 2038 2038 2033 2032 2026 2013 1993 1962 1940 1878 1837 1807 1788 1784 1770 1766 1747 1713 1691
1026 1158 1001 654 26 0 0 0 2 17 42 128 309 466 596 743 851 976 1069 1100 1132 1179 1265 1414 1580 1741 1895 2028 2131 2222 2287 2328 2340 2348 2354 2346 2356 2378 2383 2301 2280 2255 2202 2152 2133 2114 2100 2085 2065 2062 2044 2023 1991 1955 1908 1869 1837 1827 1828 1827 1816 1790 1780
1212 1243 1319 1323 1239 427 69 0 2 19 174 298 450 620 720 829 973 1086 1162 1184 1188 1274 1325 1435 1574 1715 1912 2074 2212 2328 2405 2441 2448 2435 2452 2454 2440 2450 2442 2383 2373 2352 2307 2262 2232 2201 2176 2144 2116 2102 2089 2066 2032 2019 1967 1930 1907 1908 1911 1920 1895 1856 1880
1331 1401 1488 1608 1513 1295 1121 346 99 181 334 416 464 652 828 936 1084 1185 1275 1324 1344 1364 1398 1469 1562 1699 1886 2068 2221 2380 2480 2544 2562 2536 2506 2497 2474 2470 2467 2453 2440 2429 2396 2375 2332 2289 2270 2238 2198 2153 2124 2087 2074 2050 2032 2003 1955 1954 1969 1975 1937 1943 1997
1448 1525 1689 1861 1843 1683 1232 826 853 623 431 569 667 755 968 1101 1172 1271 1348 1424 1472 1479 1508 1525 1583 1661 1843 2039 2201 2344 2467 2566 2650 2664 2582 2582 2579 2552 2534 2520 2524 2494 2464 2445 2413 2389 2339 2304 2281 2230 2182 2138 2123 2086 2068 2030 2001 1993 2004 2002 1991 2021 2072
1617 1747 1842 1914 2093 2101 1887 1581 1417 1293 1055 947 853 849 1071 1210 1292 1350 1415 1492 1537 1569 1590 1629 1661 1679 1800 1924 2093 2275 2406 2531 2652 2711 2660 2657 2648 2618 2608 2589 2552 2546 2528 2509 2473 2449 2415 2363 2315 2280 2253 2198 2183 2090 2055 2048 2041 2040 2044 2039 2053 2100 2138
1708 1747 1863 1958 1976 2120 2493 2610 2436 2208 1938 1820 1809 1308 1239 1266 1441 1492 1536 1563 1600 1646 1695 1696 1688 1748 1796 1865 1952 2155 2366 2492 2620 2704 2677 2682 2683 2668 2656 2621 2590 2587 2561 2551 2512 2483 2469 2440 2388 2354 2316 2260 2207 2145 2095 2082 2092 2107 2087 2089 2123 2171 2222
1765 1796 1858 2063 2199 2208 2198 2362 2691 2780 2609 2330 2181 2156 1655 1470 1462 1544 1673 1719 1766 1823 1801 1742 1770 1799 1812 1836 1872 2061 2260 2443 2626 2707 2712 2666 2643 2690 2688 2656 2620 2612 2604 2576 2531 2500 2500 2504 2468 2441 2401 2369 2312 2222 2188 2202 2165 2188 2166 2178 2201 2254 2345
1334 1308 1307 1504 2046 2207 2183 2150 2175 2335 2696 2866 2705 2618 2513 2058 1880 1763 1702 1869 1936 1978 1936 1889 1892 1880 1864 1857 1881 1940 2160 2362 2493 2618 2720 2738 2671 2687 2684 2671 2657 2672 2659 2626 2561 2536 2524 2515 2522 2520 2507 2477 2407 2356 2331 2311 2296 2282 2299 2308 2328 2412 2505
1812 1773 1629 1781 1882 1890 1960 2024 2170 2227 2222 2378 2742 2942 2755 2840 2750 2501 2259 2154 2040 2307 2191 2165 2166 2103 2052 2014 1982 1975 2095 2216 2376 2521 2695 2762 2771 2773 2771 2728 2689 2694 2684 2652 2611 2586 2582 2575 2597 2549 2561 2546 2508 2465 2464 2419 2397 2411 2442 2463 2511 2576 2669
1034 1153 1293 1443 1581 1678 1771 1954 2121 2192 2089 1998 2020 2261 2662 3014 3076 2916 2931 2855 2766 2812 2843 2742 2356 2332 2366 2287 2245 2181 2113 2124 2335 2472 2620 2762 2770 2803 2824 2820 2761 2714 2710 2710 2652 2607 2588 2592 2597 2594 2604 2580 2558 2529 2512 2493 2491 2522 2544 2571 2625 2708 2767
1058 1112 1153 1131 1213 1541 1638 1686 1794 1877 1874 1912 1870 1891 1949 2098 2292 2635 2900 3140 3229 3234 3154 3237 3103 2850 2798 2747 2703 2709 2650 2588 2448 2313 2524 2673 2741 2803 2836 2824 2782 2741 2746 2725 2714 2743 2723 2704 2686 2649 2652 2657 2652 2592 2555 2524 2542 2564 2582 2655 2729 2830 2944
669 805 1015 1022 1446 1405 1298 1367 1539 1615 1711 1776 1808 1856 1857 1881 1936 2091 2223 2439 2689 2935 3149 3266 3453 3376 3281 3227 3204 3144 2988 2888 2756 2696 2603 2481 2608 2678 2757 2822 2793 2776 2765 2744 2808 2843 2852 2786 2737 2712 2719 2683 2698 2644 2558 2527 2537 2570 2653 2724 2831 2971 3269
484 706 1082 1474 1502 1695 1706 1693 1678 1772 1728 1740 1749 1784 1839 1852 1814 1756 1745 1782 1928 2118 2392 2910 3172 3416 3598 3554 3416 3311 3253 3222 3156 3035 2889 2701 2532 2683 2727 2764 2785 2770 2779 2810 2820 2816 2809 2815 2771 2722 2751 2774 2722 2657 2579 2531 2577 2636 2648 2774 2967 3231 3509
479 603 909 930 1109 1016 1077 1177 1298 1508 1578 1668 1712 1718 1790 1797 1797 1679 1603 1507 1426 1483 1588 1890 2454 3004 3349 3538 3624 3586 3461 3392 3342 3269 3215 3099 2963 2770 2703 2738 2737 2771 2819 2814 2822 2803 2799 2810 2795 2800 2781 2793 2674 2641 2632 2574 2644 2701 2688 2863 3122 3424 3566
739 762 770 919 1049 1081 958 1006 882 1006 1176 1364 1410 1430 1451 1430 1359 1279 1224 1150 1103 1084 1188 1317 1533 1906 2440 2993 3353 3453 3553 3647 3638 3580 3510 3415 3328 3206 3131 2913 2759 2738 2784 2796 2815 2809 2807 2764 2700 2727 2748 2691 2712 2698 2603 2583 2666 2734 2801 2999 3303 3572 3447
943 920 897 870 871 843 860 774 783 827 900 919 1005 952 888 865 829 827 846 843 811 923 1060 1163 1287 1416 1627 1828 2171 2636 3048 3314 3414 3434 3411 3315 3102 3009 3032 3035 3033 3004 2904 2808 2753 2759 2751 2727 2697 2678 2598 2577 2623 2735 2770 2714 2616 2758 3074 3160 3249 3337 3350
1087 1057 1002 938 848 807 787 802 882 962 945 915 848 783 819 843 831 854 841 834 818 799 791 886 968 1085 1205 1381 1640 1793 1936 2141 2434 2703 3005 3250 3174 3044 2912 2865 2852 2951 2888 2907 2843 2789 2690 2684 2644 2586 2662 2633 2650 2565 2414 2496 2588 2756 2907 2949 3113 3145 3140

ECMWFFLT1_con_mucape_045.txt.gz
CAPE
1034 1088 1109 1115 1125 1148 1218 1406 1401 1342 1385 1460 1411 1278 1168 1284 1464 1811 1921 2115 2245 2315 2448 2320 2266 2205 2231 2334 2378 2437 2420 2377 2299 2167 2176 2228 2212 2348 2531 2547 2592 2785 2718 2903 3012 3207 3492 3550 3612 3546 3476 3477 3386 3082 2600 2476 2453 2511 2670 2322 2238 2220 2220
864 912 1011 1090 1125 1120 1220 1382 1451 1336 1318 1266 1326 1332 1138 1208 1575 1607 1704 2096 2245 2315 2456 2355 2273 2272 2291 2330 2382 2455 2457 2374 2306 2213 2192 2245 2382 2542 2531 2566 2585 2804 2884 2863 2994 3333 3477 3629 3450 3530 3536 3384 3118 2884 2496 2458 2531 2697 2570 2224 2242 2284 2299
634 755 902 1006 1028 1054 1180 1268 1391 1263 1261 1186 1190 1230 1195 1364 1484 1489 1820 1928 2106 2214 2324 2375 2363 2315 2288 2375 2428 2467 2454 2400 2345 2264 2193 2149 2196 1944 2249 2467 2596 2594 2637 2754 3007 3176 3214 3332 3428 3479 3529 3349 3106 2840 2629 2542 2572 2617 2600 2206 2194 2288 2268
350 514 692 883 1068 1142 1225 1159 1232 1192 1162 1097 1097 1110 1221 1466 1350 1616 1773 1635 1934 2162 2220 2325 2342 2280 2317 2428 2446 2473 2444 2437 2400 2269 2083 2099 2120 2129 2302 2435 2484 2360 2509 2589 2622 2735 2889 3085 3359 3416 3362 3384 3248 2886 2536 2641 2552 2585 2576 2224 2184 2284 2276
191 335 478 740 912 1079 1026 1083 1183 1183 1046 978 1019 1175 1361 1355 1251 1382 1497 1651 1691 1913 2006 2216 2113 2182 2332 2397 2379 2396 2462 2485 2496 2373 2283 2262 2333 2398 2399 2194 2233 2218 2320 2450 2476 2726 2923 3057 3050 3276 3404 3336 3202 2893 2704 2694 2555 2626 2505 2234 2131 2232 2263
70 216 322 494 576 764 909 946 946 994 1022 941 942 1035 1046 998 1029 985 1184 1498 1606 1691 1992 2063 2061 2163 2310 2315 2305 2339 2477 2527 2560 2550 2509 2467 2528 2442 2326 2257 2180 2220 2164 2434 2383 2542 2749 2818 2818 3078 3137 3084 2864 2687 2734 2817 2570 2360 2498 2199 2043 2136 2153
118 114 168 222 362 527 666 760 783 835 900 888 846 894 866 824 927 928 985 1269 1472 1766 1900 1922 1953 2103 2293 2203 2285 2435 2524 2517 2544 2536 2467 2475 2506 2473 2369 2361 2328 2223 2227 2421 2347 2376 2524 2704 2805 3028 3094 2923 2893 2776 2898 2970 2733 2703 2474 2244 2064 2004 2070
190 202 203 200 200 265 414 584 640 679 807 879 777 725 704 680 766 828 876 1031 1257 1384 1619 1658 1832 2056 2120 2258 2293 2336 2459 2348 2331 2412 2402 2387 2409 2425 2406 2427 2417 2355 2364 2399 2462 2424 2440 2669 2769 2965 3029 2930 3057 3052 3287 3388 3189 2722 2443 2313 2158 1923 2010
68 381 237 66 59 44 110 390 531 565 790 929 810 791 655 630 622 738 843 930 1118 1256 1458 1478 1684 1913 2277 2343 2410 2428 2352 2329 2393 2392 2432 2350 2343 2312 2261 2337 2390 2307 2363 2281 2238 2411 2426 2637 2662 2971 3095 3018 3138 3271 3322 3379 3220 2901 2534 2400 2251 2084 1915
68 297 594 210 64 22 44 190 488 676 913 941 1003 1074 795 716 706 691 786 884 998 1152 1290 1421 1592 1930 2282 2249 2255 2346 2420 2486 2437 2336 2235 2211 2254 2233 2193 2173 2294 2341 2285 2217 2162 2312 2461 2561 2723 2995 3196 3095 3092 3226 3232 3267 3128 2963 2605 2444 2308 2190 1992
34 401 739 414 442 308 180 37 313 537 690 866 958 902 975 892 785 661 765 822 894 1082 1211 1438 1555 1781 1994 2050 2057 2164 2380 2454 2397 2336 2274 2178 2170 2198 2140 2106 2164 2218 2186 2182 2168 2246 2411 2511 2684 2939 3129 2997 3016 3026 3161 3152 3074 2992 2638 2410 2285 2212 2077
320 635 783 789 867 837 493 426 564 502 680 822 1000 924 924 1010 917 706 814 846 832 980 1164 1322 1452 1679 1874 1846 1951 2231 2454 2487 2370 2292 2294 2224 2191 2183 2161 2133 2181 2249 2222 2155 2172 2215 2218 2417 2532 2658 2912 2964 2963 3090 3131 3125 3056 2978 2774 2390 2176 2077 2028
70 290 470 252 809 996 1342 1130 710 559 700 825 670 889 920 934 948 791 1134 1034 814 927 1144 1461 1639 1821 1834 1836 1882 2338 2632 2517 2430 2364 2319 2410 2316 2294 2254 2187 2176 2212 2267 2198 2158 2136 2154 2208 2409 2505 2683 2870 2907 2951 3081 3091 2995 2970 2845 2580 2258 2052 1960
3 2 35 266 529 819 1189 1536 1269 939 864 960 906 1030 873 1073 983 1148 1209 1029 945 958 1232 1591 1752 1917 1905 1890 1974 2435 2774 2657 2594 2453 2486 2502 2555 2487 2372 2302 2281 2328 2377 2372 2246 2135 2137 2150 2275 2451 2485 2658 2798 2874 2952 3053 2957 2938 2890 2678 2406 2095 1964
0 0 81 76 593 935 1053 1210 1492 1295 1177 1124 780 870 963 930 954 1063 1238 1276 1260 969 1234 1470 1822 1941 1957 2089 2176 2613 2749 2645 2704 2630 2640 2654 2743 2611 2520 2469 2480 2479 2485 2525 2384 2245 2199 2214 2217 2371 2466 2465 2647 2729 2758 2848 2830 2796 2774 2672 2492 2257 2006
0 0 0 41 460 458 938 1126 1283 1611 1473 1306 1034 960 857 1029 1069 1102 1180 1345 1262 1380 1286 1906 2162 2196 1949 2253 2604 2644 2506 2808 2793 2824 2810 2884 2860 2862 2732 2623 2609 2581 2594 2636 2526 2462 2425 2372 2342 2326 2430 2454 2550 2621 2674 2648 2682 2338 1988 2033 2434 2322 2088
8 18 85 198 366 367 554 888 1126 1428 1682 1715 1432 1256 956 925 1215 1202 962 1231 1161 1431 1542 1597 1822 2274 2294 2505 2493 2453 2603 2733 2769 2774 2829 2802 2785 2843 2799 2796 2826 2789 2740 2674 2635 2548 2604 2569 2459 2373 2362 2412 2470 2551 2533 2554 2533 1933 1732 1633 1634 2114 2221
333 621 310 156 83 59 341 474 884 1185 1422 1388 1331 1274 1261 1008 1185 1158 1082 1292 1429 1332 1410 1561 1963 2136 2480 2380 2454 2695 2774 2635 2722 2770 2818 2843 2852 2913 2909 2852 2807 2842 2830 2750 2754 2757 2699 2673 2614 2626 2438 2400 2436 2466 2511 2534 2081 1798 1643 1550 1509 1531 2095
188 316 378 518 343 299 103 105 376 1146 1122 1141 1373 1270 1039 1159 1003 1450 1316 1471 1561 1510 1585 1924 2200 2268 2472 2583 2685 2763 2789 2840 2864 2836 2808 2910 2893 2870 2896 2933 2966 2931 2860 2787 2828 2855 2880 2813 2672 2663 2618 2487 2532 2444 2458 2483 2016 1720 1601 1519 1482 1465 1570
99 62 121 317 479 484 403 307 263 500 1120 1430 1331 1095 1344 1077 1262 1544 1616 1533 1877 1862 1782 1816 1937 2189 2506 2854 2825 2926 2949 3014 2909 2862 2893 2920 2858 2908 2924 2941 2892 2886 2873 2834 2856 2815 2832 2769 2772 2787 2740 2665 2646 2621 2552 2550 2122 1747 1593 1512 1470 1462 1460
1499 1690 2136 2159 2141 1718 1406 924 729 775 954 878 794 1190 1468 1418 1197 1347 1737 2109 2101 2095 2034 2117 2320 2490 2605 2729 2830 2951 2981 3034 3000 3056 3057 3026 2945 2896 2877 2888 2896 2900 2865 2818 2792 2733 2739 2707 2738 2716 2611 2657 2537 2599 2602 2537 2114 1860 1682 1578 1508 1485 1480
1922 1996 2167 2574 2585 2588 2621 2197 1309 720 693 689 774 901 1157 1330 1183 1208 1806 2121 2077 2272 2409 2384 2444 2477 2693 2759 2792 2857 2977 3026 3073 3112 3151 3104 2981 2903 2842 2852 2912 2934 2909 2793 2676 2652 2559 2816 2782 2701 2563 2640 2348 2388 2550 2603 2077 1894 1776 1698 1628 1568 1539
1658 2024 1962 2163 2085 2127 2329 2424 2293 1382 945 998 780 891 1119 1286 1376 1582 1966 1901 2055 2454 2453 2531 2618 2587 2706 2585 2775 2862 2986 2956 3028 3128 3115 3134 3064 2997 2934 2982 2999 3002 2895 2802 2767 2793 2838 2812 2668 2756 2782 2642 2432 2468 2434 2346 2328 2022 1875 1805 1743 1678 1658
1457 1625 1657 1808 1902 2090 2365 2380 2026 1422 893 1050 1144 1373 1977 1838 1782 2417 2796 2558 2546 2392 2346 2399 2437 2642 2814 2728 2949 2948 2818 2982 3007 3064 3133 3162 3158 3114 3034 3028 3035 2998 2972 2910 2778 2708 2654 2691 2690 2704 2547 2746 2679 2594 2501 2674 2851 2170 1995 1876 1848 1778 1739
1425 1389 1618 1592 1688 2077 2243 2586 2190 1265 1678 1676 1830 2241 2439 2383 2363 2320 2579 2564 2494 2373 2280 2388 2626 2729 2739 2837 2876 2891 3105 3024 2892 3025 3117 3190 3229 3151 3146 3157 3191 3152 3133 2887 2827 2828 2950 2750 2748 2922 2975 2745 2801 2527 2508 2752 2456 2240 2142 2006 1952 1895 1832
1524 1510 1516 1615 1636 1885 2308 2677 3002 2862 2745 2568 2760 2487 2687 2590 2294 2200 2762 2837 2492 2287 2414 2602 2678 2804 2847 2820 2848 2999 3083 2826 3168 3286 3166 3252 3289 3280 3270 3321 3230 3184 3067 2894 2805 2831 2821 2808 2835 2988 2978 2944 2911 2766 2468 2687 2737 2307 2201 2102 2019 1974 1949
1664 1856 2102 2045 1958 1652 1991 2081 2097 2074 2095 2178 2546 2358 2383 2522 2508 2630 2954 2994 2680 2678 2542 2854 2922 2956 2992 3094 2912 2921 3064 3158 3281 3254 3199 3223 3380 3321 3248 3198 3105 3090 3158 3055 2946 3012 3037 2955 2853 2752 2858 2857 2881 2937 2778 2705 2904 2306 2245 2144 2053 2023 1955
1844 1900 2027 2274 2435 2246 2110 1983 1986 2017 2020 2147 2548 2597 2368 2556 2796 3031 3088 2960 2937 3014 2935 3034 3070 3052 3073 3218 3023 2955 2976 3060 3247 3403 3345 3436 3509 3513 3417 3313 3226 3200 3262 3092 3126 3162 3097 3097 3024 2951 2960 2942 2882 2818 2801 2632 2389 2363 2255 2203 2155 2092 2030
1891 1945 1959 2000 2033 2108 2204 2408 2456 2477 2500 2260 2099 2653 3028 2489 3116 3176 2998 3225 3709 3476 2862 2842 2879 3060 3117 3210 3126 3117 3150 3284 3420 3470 3501 3620 3720 3728 3653 3548 3444 3447 3478 3421 3330 3280 3122 3116 3091 2850 2954 3010 3070 2992 3135 3109 2520 2296 2268 2237 2188 2167 2105
1557 1717 1729 1718 1830 1842 1873 2109 2420 2607 2657 2692 2680 2342 2708 3926 3657 3424 3390 3061 2542 3178 4018 3182 3127 3235 3176 3190 3196 3274 3284 3404 3515 3551 3550 3784 3886 3692 3717 3840 3732 3649 3670 3498 3505 3356 3199 3139 3124 2954 3029 2998 3050 3158 3176 3199 2932 2449 2364 2335 2278 2183 2125
1440 1553 1635 1718 1845 1869 1809 1760 1833 1797 2144 2516 2801 2864 2818 2639 2797 2557 2412 2471 2565 2734 3141 3828 3923 3452 3346 3167 3150 3270 3286 3409 3483 3675 3782 3855 3872 3785 3803 3909 3895 3758 3649 3580 3480 3327 3279 3222 2986 3170 3135 3075 3060 3122 3301 3124 3058 2421 2380 2397 2386 2290 2130
1090 1111 1128 1335 1465 1631 1657 1683 1672 1633 1634 1669 1680 1778 2088 2565 2847 2942 2977 3093 3126 3118 3131 3500 4073 3816 3610 3422 3357 3278 3230 3233 3178 3458 3678 3726 3673 3735 3830 3710 3751 3686 3730 3490 3169 3308 3388 3411 3308 3199 3158 3125 3130 3181 3140 2942 2990 2506 2408 2357 2311 2340 2281
606 689 709 824 1199 1281 1388 1407 1527 1513 1441 1472 1558 1530 1541 1507 1607 1604 1698 1848 2018 2446 2847 3164 3390 3806 3783 3688 3587 3535 3375 3232 3099 3131 3278 3450 3477 3563 3706 3754 3719 3643 3613 3557 3326 3323 3298 3187 3180 3144 3094 3158 3192 3234 3282 2948 2886 2422 2344 2312 2345 2296 2332
616 653 673 832 971 1069 1151 1206 1270 1369 1369 1370 1387 1407 1446 1389 1409 1372 1361 1304 1514 1756 1982 2349 2874 3092 3286 3498 3473 3371 3369 3309 3166 2901 2851 3069 3259 3261 3392 3549 3525 3560 3589 3494 3399 3322 3374 3338 3100 3198 3177 3218 3257 3359 3394 3090 2682 2513 2433 2342 2380 2444 2302
524 717 775 789 718 738 710 892 1017 973 1112 988 1142 1060 975 982 912 914 1079 1087 1354 1560 1485 1794 2004 2264 2667 3021 3256 3435 3422 3359 3285 3177 3086 2968 2859 2849 3231 3398 3476 3494 3468 3559 3670 3607 3440 3376 3318 3309 3336 3213 2974 3253 3419 2867 2642 2653 2452 2350 2497 2471 2406
611 726 703 682 663 666 750 710 760 800 803 813 835 919 922 869 840 727 691 831 969 1069 1178 1454 1546 1479 1560 1719 1724 2269 2866 3212 3321 3315 3427 3410 3237 3020 2808 2668 2665 2705 3049 3385 3232 3210 3138 3088 3524 3564 3421 3107 3282 3320 2946 2886 2556 2526 2432 2350 2419 2462 2458
739 684 732 854 906 886 915 896 884 849 838 866 987 986 1021 993 982 892 803 792 788 845 905 988 1026 856 874 893 942 1101 1605 1576 1559 1960 2501 2820 2998 3151 3186 3181 3179 3069 2987 2871 2809 2717 2706 2680 2880 2957 2977 2917 3553 3373 2833 2642 2459 2420 2295 2421 2490 2382 2416
415 578 702 750 732 798 775 920 1008 1033 1093 1094 1031 1031 1038 1026 1006 1103 964 836 865 808 869 803 753 688 582 512 483 530 860 1035 1028 1097 1160 1113 920 798 748 917 1126 1386 1759 2335 2767 2845 2727 2529 2512 2585 2610 2658 2672 2819 2815 2640 2442 2459 2449 2411 2438 2339 2360

ECMWFFLT1_con_mucape_048.txt.gz
CAPE
1221 1486 1769 2056 2260 2303 2393 2611 2780 2739 2795 2945 3148 3152 3099 3039 3081 3240 3406 3748 3880 4042 3987 3737 3405 3008 2841 2800 2966 2999 3263 3568 3611 3512 3444 3325 3031 2952 3157 3211 3277 3259 3056 3168 3364 3355 3703 3746 3407 3852 4186 4525 4334 4145 3932 3558 3084 2891 3048 3145 3078 2977 2896
877 1093 1519 1776 2056 2268 2426 2606 2799 2720 2802 2847 2995 3163 3024 3034 3058 3194 3356 3574 3846 3944 4052 3757 3290 3202 3084 3080 2999 3152 3150 3258 3536 3481 3389 3327 3236 3104 3190 3384 3323 3468 3433 3254 3270 3608 3719 4104 3884 4035 4344 4508 4347 4240 4019 3576 3248 3036 2887 2984 2982 3071 2952
824 867 1231 1692 1898 2246 2495 2519 2723 2761 2815 2781 2816 2929 3053 3219 3288 3291 3256 3454 3704 3849 4054 3771 3709 3324 2966 2916 2985 3191 3202 3273 3341 3294 3434 3375 3334 2911 3116 3386 3457 3294 3449 3412 3382 3614 3785 4022 4201 4258 4409 4370 4225 4299 4124 3911 3587 3153 2920 3041 3116 3046 3000
905 983 1115 1557 1970 2205 2417 2485 2677 2682 2641 2656 2744 2755 2916 3215 3314 3298 3299 3372 3669 3780 3905 3870 3705 3311 3215 3262 3306 3488 3486 3514 3466 3163 3472 3309 3190 3226 3192 3394 3510 3222 3279 3387 3348 3343 3548 3790 4201 4353 4484 4289 4266 4214 4187 3831 3569 3195 3016 3130 3071 3238 3172
682 918 1035 1455 1855 2193 2396 2475 2584 2801 2619 2541 2667 2848 3017 3076 3067 3110 3151 3205 3356 3711 3674 3748 3596 3358 3290 3211 3201 3510 3534 3496 3455 3270 3622 3445 3232 3394 3216 3112 3336 3376 3221 3217 3438 3426 3524 3808 3873 4215 4296 4252 4234 4124 4078 3905 3502 3439 3198 3115 3005 3057 3122
288 773 942 1341 1718 1987 2262 2361 2474 2550 2573 2454 2576 2857 2847 2810 2799 2789 2827 2976 3245 3498 3626 3597 3645 3598 3514 3458 3563 3450 3272 3538 3687 3860 3826 3494 3419 3346 3341 3322 3209 3385 3118 3304 3210 3400 3598 3663 3594 3745 3945 4134 3806 3707 3834 3958 3558 3500 3452 3122 3022 3024 3067
119 572 968 1310 1645 1835 2224 2288 2183 2326 2476 2346 2352 2597 2650 2651 2602 2495 2644 2851 3056 3218 3314 3298 3432 3494 3613 3492 3448 3642 3751 3865 3979 3722 3663 3590 3450 3364 3402 3396 3198 3166 3256 3250 3324 3368 3585 3675 3589 3552 3818 3731 3869 3538 3684 3971 3734 3632 3503 3191 3067 3262 3293
120 685 1216 1402 1384 1659 1903 2146 2054 2030 2273 2318 2127 2251 2406 2426 2446 2406 2574 2648 2666 2706 2986 3045 3147 3477 3545 3490 3361 3498 3568 3710 3796 3761 3663 3588 3444 3574 3304 3442 3385 3316 3464 3344 3414 3479 3450 3771 3735 3625 3657 3656 3912 3860 3716 3972 3923 3734 3474 3282 3199 3394 3440
278 951 1307 1197 1183 1196 1443 1882 2025 1968 2027 2211 2194 2158 2234 2306 2319 2420 2431 2372 2517 2496 2632 2661 2918 3186 3474 3468 3450 3527 3614 3602 3603 3697 3696 3594 3580 3361 3244 3391 3565 3497 3395 3307 3231 3570 3514 3608 3659 3905 3819 3817 3867 4212 3964 4006 4028 3873 3617 3490 3432 3488 3394
624 1358 1508 1042 856 764 914 1228 1747 2001 2034 2296 2360 2324 2223 2174 2234 2277 2220 2164 2242 2264 2239 2405 2662 2897 3311 3598 3540 3572 3505 3542 3524 3518 3502 3389 3386 3292 3255 3208 3462 3575 3456 3384 3137 3408 3658 3545 3614 3826 4099 4073 4047 4234 4246 4060 4102 4048 3775 3638 3666 3790 3964
1016 1421 1564 942 715 661 723 806 1465 2144 2189 2664 2560 2202 2337 2224 2194 2102 2152 2053 2046 2176 2208 2434 2494 2763 3127 3352 3289 3261 3496 3497 3456 3444 3430 3238 3206 3211 3182 3159 3245 3400 3439 3415 3235 3245 3627 3655 3614 3805 4137 4145 4253 4279 4298 4204 4258 4057 3687 3795 3994 4044 3917
863 1263 1671 1638 1341 1085 870 1084 1482 2288 2444 2606 2454 2279 2432 2453 2184 2010 2027 2062 1972 2016 2193 2322 2412 2579 2919 3120 3150 3246 3385 3566 3403 3308 3321 3277 3169 3078 3066 3013 3019 3168 3424 3455 3406 3272 3230 3652 3610 3656 4078 4258 4281 4325 4406 4349 4248 4124 3779 3650 3934 3929 3746
586 1775 2541 1747 1738 1580 1531 1583 1721 2365 2741 2446 2206 2220 2292 2256 2156 1990 2110 2106 1933 1932 2172 2362 2492 2672 2785 2995 3008 3271 3425 3546 3362 3282 3108 3347 3181 2959 2942 2893 2792 2873 3130 3368 3337 3284 3186 3259 3680 3658 3810 4246 4330 4309 4460 4459 4190 4097 4036 3967 3888 3914 3804
821 650 1314 1716 2027 2014 2223 2265 2173 2346 2873 2451 2261 2242 2144 2136 2040 2034 2061 2058 1986 1845 1975 2195 2491 2615 2695 2924 3080 3243 3425 3584 3588 3308 3292 3214 3368 3250 3055 3038 3014 3009 3134 3292 3368 3259 3203 3109 3374 3721 3737 3959 4246 4345 4412 4490 4260 4277 4329 4060 3894 3866 3813
0 96 1624 1613 2150 2479 2762 2684 3181 2782 2489 2408 1829 1827 1926 1879 1911 2044 2146 2058 2049 1727 1835 2170 2426 2606 2694 3081 3379 3494 3664 3794 3704 3524 3435 3334 3526 3467 3299 3191 3257 3239 3225 3324 3408 3294 3202 3162 3142 3578 3831 3888 4089 4234 4228 4278 4309 4304 4296 4143 4072 3923 3692
0 0 0 941 2077 2178 2520 2491 2794 3418 2910 2630 2003 1890 1749 1870 2119 2024 2097 2123 1964 1930 1885 2077 2439 2787 2823 3108 3503 3583 3676 3972 3846 3823 3622 3602 3648 3783 3569 3398 3487 3380 3382 3400 3424 3506 3409 3289 3270 3310 3636 3849 3935 4128 4133 4131 4316 3891 3451 3503 4133 3942 3615
0 0 0 0 3054 2294 2509 2486 2210 2718 3063 2978 2634 2154 2038 2048 2111 2020 1804 1954 2099 2115 1884 1980 2658 2970 3077 3295 3609 3702 3913 4147 4067 3990 3850 3742 3710 3905 3837 3656 3513 3614 3669 3646 3695 3707 3632 3505 3364 3190 3289 3577 3857 3936 3999 4098 4017 3412 3118 3164 3237 3735 3803
0 0 0 0 0 1564 3013 2818 2645 2577 2828 2761 2782 2635 2368 2406 2180 2062 1836 1994 2141 2060 1825 1826 2318 2949 3472 3466 3760 3830 4147 4340 4272 4127 4052 3967 3954 3981 4058 3862 3783 3800 3840 3732 3730 3869 3741 3623 3481 3538 3332 3405 3614 3733 3868 3978 3529 3193 2997 2896 2790 2845 3535
0 0 0 0 0 2536 1898 1335 1574 2833 2250 1948 2182 2403 2266 2304 1921 2247 2296 2228 2322 2140 1972 2084 2519 3384 3754 3510 3913 4126 4180 4264 4365 4371 4216 4136 4043 4063 4190 4134 3884 3827 3873 3832 3879 3921 4020 3802 3728 3648 3562 3420 3550 3626 3714 3800 3334 3021 2846 2653 2471 2368 2631
0 0 0 0 111 1031 1350 1794 1722 1275 1773 2292 2003 1764 2385 2309 1922 2132 2332 2142 2225 2410 2658 2506 2680 3413 3773 3658 3900 4044 4075 4284 4302 4388 4254 4216 4186 4200 4291 4277 4122 4028 3957 3938 3956 3962 4023 3923 3865 3876 3894 3699 3690 3734 3697 3756 3299 2963 2654 2467 2301 2183 2124
0 0 42 217 1118 1175 1844 3046 3453 3153 2548 1819 1542 1779 2086 2284 1998 1946 2293 2303 2377 2709 2908 2748 2923 3326 3802 3745 3736 3952 4265 4258 4118 4074 4239 4314 4292 4228 4283 4312 4215 4192 4064 3863 3888 4015 4120 4016 3980 3946 3964 3899 3748 3713 3752 3677 3090 3032 2734 2417 2190 2045 1952
0 0 0 291 2018 4399 4828 3741 3650 3617 3371 2728 2032 1799 1814 2228 2120 1643 2220 2530 2850 2998 2860 3300 3472 3384 3730 3792 3742 4034 3987 3965 3904 3872 4041 4228 4140 4138 4116 4045 4068 4180 4057 3901 3816 3849 3877 4067 3972 3968 3968 3927 3828 3676 3674 3652 3016 2936 2813 2589 2308 2056 1883
61 1308 2715 3449 3113 3064 4040 4335 4150 4082 4070 3510 2456 1704 1560 1819 2114 1830 2139 2879 2886 3357 3237 3200 3478 3523 3871 3845 3807 3843 3812 3845 3862 3865 3954 4212 4178 4120 4150 4113 4212 4204 4112 4019 3817 3817 3971 4025 3972 3829 3512 3422 3406 3398 3548 3435 3599 2875 2703 2610 2457 2228 1992
1932 2495 2288 2639 3480 3303 3746 4004 4031 4031 3774 3123 2554 2129 1817 1892 2125 2165 2378 2852 2926 3164 3208 3059 3302 3536 3781 3793 3743 3968 3895 3827 3821 4134 4162 4169 4172 4177 4044 4046 4096 4128 4096 4050 3922 3705 3750 3856 3731 3572 3500 3542 3664 3335 3558 3628 3671 2882 2626 2619 2539 2346 2171
1964 2338 3102 3290 3214 3242 3548 4174 3994 3512 3152 2738 2377 2289 2108 2151 2209 2202 2545 3132 3037 3153 3001 2946 3040 3143 3382 3624 3578 3856 3886 3949 4044 4172 4238 4264 4216 4142 4022 4029 4090 4016 4014 3973 3908 3778 3772 3626 3549 3565 3632 3557 3416 3125 3206 3620 3623 3053 2725 2663 2602 2430 2320
3410 3201 3250 3125 3126 3161 3609 3541 4002 3795 3692 3442 4276 3694 2974 2567 2417 2533 3176 3299 2928 2817 2697 2827 2978 3277 3331 3366 3379 3623 3832 3856 4101 4154 4099 4195 4261 4299 4228 4048 3906 3929 3932 3965 3824 3824 3735 3528 3558 3714 3791 3720 3541 3434 3283 3414 3852 3110 3081 2808 2644 2486 2364
2824 2696 2862 2713 2638 2730 3669 3414 3655 3764 3898 3979 3885 3116 3224 2800 2757 2834 3165 3334 3083 2859 2719 2943 3170 3495 3539 3665 3480 3547 3751 3719 3915 4044 3977 4086 4311 4303 4079 3847 3878 3872 3901 3845 3813 3813 3820 3787 3805 3723 3836 3694 3619 3828 3710 3598 3554 3176 3082 3034 2769 2518 2371
2651 2608 2569 2488 2242 2793 3502 3300 3694 3829 3639 3766 3595 2829 3233 3069 2766 2884 3464 3546 3232 3043 2796 3078 3465 3652 3766 3937 3742 3540 3664 3779 3875 4050 4122 4124 3982 4181 4192 4064 3948 3918 4053 3959 3961 4049 4044 4094 3922 3808 3712 3708 3666 3817 3622 3144 3087 4009 2928 2974 2985 2841 2520
2639 2512 2423 2540 2860 2749 2882 3160 3263 3309 3305 3221 3872 3560 3082 3240 3500 3748 3987 3659 3662 3502 3523 3734 3996 4201 4127 4122 3890 3745 3719 3832 3980 4192 4033 3910 3986 4174 4351 4307 4175 4210 4161 4275 4216 4194 4059 4102 3874 3600 3650 3279 3753 3439 3435 4021 3923 3016 2867 2838 2886 2884 2730
1705 2100 1859 1967 1968 2316 2566 2673 2771 2909 3031 3144 3896 4663 4182 4111 4106 4274 4522 4349 4158 4711 4216 4070 4025 4171 4057 3973 3977 3925 3839 3929 4040 4169 4019 3923 4007 4122 4278 4363 4399 4395 4394 4396 4239 4101 3904 3752 3701 3645 3536 3190 3308 3467 3658 4012 3821 3450 3127 2998 2871 2808 2752
1679 1835 1989 1804 1776 2119 2378 2482 2489 2616 2637 2595 3169 3599 3982 4107 4150 3920 3771 3536 3703 4235 4526 4627 3956 3952 3922 3882 3884 3899 3858 3820 3865 4015 4180 4169 4191 4326 4382 4499 4544 4316 4215 4015 4094 3913 3528 3879 3433 3704 3844 3643 3404 3560 3255 3604 3708 3885 3420 3265 2993 2915 2766
1672 1629 1870 1749 1736 1775 2122 2048 2366 2472 2457 2504 2541 2658 2923 3218 3431 3302 3150 3224 3287 3764 4154 4320 4555 4390 4043 3876 3797 3815 3802 3823 3861 3997 4218 4295 4178 4312 4561 4494 4380 4223 4168 4097 3832 3773 3806 3834 3584 3623 3671 3752 3788 3662 3702 3490 3677 3917 3873 3432 3248 3041 2992
1806 1851 1962 1715 1610 1846 2326 2274 2058 2026 2045 2121 2297 2420 2499 2579 2639 2761 2693 3091 3420 3587 3974 4292 4387 4405 4488 4428 4196 4095 3973 3827 3725 3785 3907 4150 3845 3499 3993 4093 3912 3830 3978 4024 3957 3789 3693 3731 3736 3745 3587 3734 3761 3856 3865 3895 3819 3947 4049 3436 3360 3176 2990
1586 1678 1836 1834 1606 1684 2116 2252 2103 2001 1957 1891 1771 1743 1878 2037 2166 2242 2388 2551 2990 3212 3634 3955 4284 4334 4312 4109 3934 3969 3826 3932 3615 3580 3569 3482 3428 3464 3371 3406 3470 3671 3867 3922 3871 3878 3836 3800 3739 3671 3710 3555 3626 3701 3785 3741 3772 3897 3929 3273 3319 3196 3014
1417 1529 1640 1547 1509 1643 1751 1754 1722 1734 1624 1526 1352 1377 1591 1603 1654 1773 1692 1990 2233 2781 2806 3291 3439 3629 3662 3414 3679 3563 3571 3977 4150 3925 3582 3829 3651 3534 3911 4025 3810 3992 4381 4343 3896 3537 3574 3693 3835 4162 4282 4131 3767 3538 3403 3382 3352 3883 3407 3345 3396 3265 3086
1294 1277 1256 1329 1449 1507 1446 1514 1408 1446 1407 1435 1456 1470 1388 1266 1198 1462 1662 1753 1965 2115 2256 2205 2436 2602 2652 2694 2817 2689 2871 2991 3224 3202 3206 3315 3435 3386 3238 3092 2963 2985 3019 3078 3079 3119 3253 3258 3253 3231 3231 3218 3210 3139 3114 3402 3731 3331 3330 3164 3176 3284 3206
1304 1318 1355 1333 1327 1440 1467 1410 1380 1410 1378 1413 1499 1507 1467 1181 1258 1339 1458 1324 1602 1770 1795 1888 1693 1705 1859 1626 1840 1946 2202 2433 2518 2438 2501 2705 2932 2950 2946 2957 2836 2864 2803 2764 2762 2755 2745 2733 2687 2715 2735 2755 2827 2899 2978 3041 3138 3147 3069 3055 3120 3076 3230
1127 1111 1180 1291 1255 1324 1281 1358 1362 1373 1399 1562 1584 1619 1653 1526 1332 1072 1227 1278 1374 1220 1374 1513 1538 1533 1361 1342 1362 1397 1617 1771 1836 1760 1609 1605 1483 1352 1398 990 1248 1526 541 313 320 258 189 157 162 254 489 762 799 995 1428 2035 2477 2617 2638 2781 3047 2996 2987